GFSNW_925_rhum_000.txt.gz
RH
59 62 58 51 52 49 71 49 46 71 35 46 77 52 57 50 31 28 34 34 30 35 44 51 51 49 46 50 47 35 41 53 62 34 32 36 32 36 41 57 44 85 82 56
59 60 57 54 52 49 61 68 88 66 28 59 82 48 47 43 30 31 32 36 38 45 56 57 57 56 47 38 42 43 42 56 70 50 37 34 33 46 55 59 72 70 76 55
56 57 56 58 48 48 44 79 88 79 72 62 43 37 37 41 34 34 33 41 42 50 58 63 64 59 49 39 47 69 52 57 49 57 42 43 34 44 47 45 69 63 70 40
54 54 60 56 47 50 53 72 75 71 88 80 50 38 42 42 38 33 35 37 39 48 56 59 64 58 48 46 56 66 48 51 50 58 60 44 34 35 54 47 46 51 47 52
52 54 61 56 51 58 56 84 69 63 65 72 66 64 50 47 39 39 36 39 48 43 57 47 64 56 46 38 65 67 62 69 57 62 70 66 46 41 45 50 46 58 54 55
52 55 62 57 52 57 59 73 64 59 84 72 74 78 55 50 44 48 48 45 55 51 55 62 71 69 70 62 63 74 69 87 56 43 74 60 50 46 49 46 47 52 65 51
53 57 59 55 52 49 40 58 69 78 84 75 68 58 53 51 45 48 55 51 55 57 65 57 54 64 78 79 88 71 93 86 79 73 68 44 35 41 46 47 53 63 61 66
56 63 56 52 49 46 52 54 60 75 89 65 52 61 71 70 73 71 70 74 64 59 53 73 62 75 62 74 90 80 70 85 94 68 73 45 30 62 64 57 49 72 66 73
62 64 57 48 44 45 48 51 53 70 87 79 54 68 63 80 76 76 72 73 62 61 86 75 72 68 54 62 76 79 80 81 70 89 52 41 36 43 48 42 69 72 71 76
62 62 60 48 44 41 44 56 57 60 83 73 61 68 68 71 75 87 74 65 61 57 88 88 76 63 60 66 85 92 98 98 76 100 74 63 45 47 44 63 57 79 71 73
55 57 58 58 45 41 40 58 62 57 88 77 67 59 71 74 73 81 76 73 78 86 73 78 87 92 84 76 68 87 90 92 98 97 88 53 49 48 59 59 56 72 77 77
50 48 52 58 51 43 33 59 58 58 78 74 65 64 62 56 50 82 77 63 73 80 86 91 97 96 94 89 76 69 70 64 75 67 68 49 50 54 51 57 56 72 77 80
44 47 60 58 46 46 38 54 55 46 90 78 72 71 59 56 50 45 67 81 73 76 77 96 97 75 97 92 94 79 70 65 78 66 48 61 60 54 59 64 66 67 79 82
41 46 59 55 50 50 46 44 49 42 86 92 77 60 62 62 55 44 40 72 77 88 88 98 98 80 84 90 79 84 73 69 69 76 67 64 62 70 66 69 77 79 81 80
42 48 57 56 53 49 47 59 70 50 54 86 94 70 66 70 56 54 59 64 79 86 91 94 86 96 95 97 96 96 76 68 79 75 52 51 51 45 64 78 83 86 82 79
43 41 53 56 50 39 26 61 60 56 51 86 85 84 81 78 71 75 82 83 87 86 84 92 92 78 87 98 97 72 65 66 57 55 50 61 57 72 71 78 85 84 72 50
50 40 39 46 43 25 64 59 80 66 47 91 98 96 85 84 89 98 95 95 97 88 97 97 98 100 92 96 97 55 61 65 67 70 71 70 78 74 78 77 73 50 42 43
68 63 58 54 53 58 72 77 67 60 58 89 94 97 92 90 100 100 99 100 96 98 98 98 99 99 99 100 87 77 72 72 72 70 76 68 76 66 52 48 46 52 58 64
69 67 57 43 52 97 90 79 68 58 59 98 99 85 79 93 100 100 100 99 100 96 100 100 98 100 99 94 91 87 82 81 80 84 82 74 57 49 52 56 70 86 94 96
63 52 62 100 100 99 75 61 91 96 98 99 100 98 99 95 100 100 97 100 96 95 95 99 100 100 89 88 85 88 89 85 80 76 69 68 81 84 84 87 83 90 96 92
69 99 100 99 90 79 96 100 96 93 97 99 100 100 99 94 99 100 100 100 100 98 91 100 99 98 93 69 78 82 83 81 79 77 79 79 84 91 95 97 82 86 89 83
89 92 89 77 89 100 94 100 100 91 90 100 100 100 98 100 96 99 100 99 100 96 97 100 98 90 66 75 83 85 82 80 83 89 94 95 97 96 95 92 80 70 63 59
73 80 91 86 98 98 91 98 100 100 100 100 100 100 100 98 96 100 100 100 99 99 100 99 99 79 87 89 77 70 74 78 80 83 84 76 56 44 44 50 48 53 53 56
94 100 98 99 98 99 99 99 99 100 100 100 100 100 100 100 100 100 100 100 100 99 99 97 100 100 95 61 65 72 80 90 88 66 52 51 49 52 57 59 66 73 72 70
90 88 97 98 99 99 99 100 100 100 100 100 100 100 99 100 99 99 98 97 97 96 96 99 99 98 89 61 66 79 85 86 70 61 61 61 63 66 66 67 72 74 76 78
88 93 98 99 98 100 100 100 100 99 100 100 100 99 98 99 99 97 97 96 96 96 100 100 99 85 78 85 69 68 80 81 81 67 64 73 72 74 76 72 71 75 78 75
78 99 100 98 98 100 100 100 97 100 99 99 98 97 94 96 98 98 99 98 98 100 99 99 90 86 70 83 86 78 70 72 70 70 69 72 76 80 80 86 80 77 76 83

GFSNW_925_rhum_003.txt.gz
RH
74 62 54 68 69 81 97 66 56 73 42 52 70 56 51 48 44 32 36 30 34 38 42 48 50 48 44 50 46 40 41 51 51 34 33 36 32 36 38 44 39 62 61 36
72 55 54 70 70 81 88 62 83 63 31 61 77 48 43 43 35 31 33 40 39 47 56 52 56 55 47 39 41 45 43 51 56 39 30 32 35 42 45 52 62 62 73 33
64 50 58 65 64 63 58 81 87 81 67 56 46 40 38 35 38 36 36 45 46 55 58 62 66 61 49 43 55 73 50 51 46 46 36 40 41 47 44 40 52 51 58 37
58 54 57 60 62 60 73 73 74 75 88 63 44 32 39 41 40 35 34 41 41 52 60 60 66 60 49 53 61 63 45 48 51 57 56 46 34 44 45 37 40 46 40 43
54 58 55 59 65 72 82 72 73 68 71 64 46 44 52 46 40 40 36 44 48 45 57 48 66 57 49 44 64 59 58 61 56 62 62 57 48 39 43 49 47 42 46 45
56 56 57 60 65 73 71 82 58 58 83 78 59 69 53 49 45 49 48 45 53 50 56 61 65 64 66 60 61 66 61 77 53 48 63 50 49 47 42 47 44 43 53 37
54 55 56 64 62 61 50 60 62 73 79 78 62 64 52 50 49 47 57 52 52 65 62 58 53 62 72 66 70 64 77 65 64 64 66 46 31 44 40 41 41 42 48 48
52 54 60 64 56 56 62 54 57 69 88 66 55 64 68 70 73 72 71 77 67 64 57 70 61 74 67 78 72 63 60 72 77 70 56 41 26 41 55 54 37 46 46 50
53 56 62 60 56 53 59 56 43 66 78 70 49 70 66 78 78 77 80 70 58 59 78 75 72 69 56 53 74 74 67 73 65 72 50 46 34 33 51 42 53 43 55 63
59 60 57 56 54 52 54 56 44 57 73 73 64 66 68 70 75 84 76 64 64 57 77 82 72 60 61 52 70 90 93 92 71 77 69 56 40 44 46 49 44 57 62 62
64 60 54 52 50 50 51 61 58 53 85 80 69 64 71 73 73 79 76 72 76 81 79 82 77 82 74 66 62 84 71 80 82 83 73 57 43 49 57 53 53 56 65 63
60 61 53 48 47 49 48 68 72 57 77 78 68 68 62 58 53 76 81 64 73 74 83 82 92 97 97 82 69 71 67 63 67 61 62 47 45 57 50 55 52 53 64 61
62 60 57 45 45 43 44 53 62 53 91 79 71 72 63 57 56 49 68 74 72 72 73 90 92 80 91 91 85 75 68 60 67 63 46 54 53 49 51 48 53 54 59 58
64 63 58 51 46 46 37 49 52 53 88 100 84 66 70 69 59 50 46 70 74 83 77 94 97 86 79 87 74 81 68 66 67 69 60 56 50 56 54 54 62 66 66 69
73 65 56 55 53 43 34 46 62 51 64 93 94 72 73 75 61 61 60 62 74 80 88 97 88 89 93 94 91 85 69 65 74 72 48 48 48 41 49 60 60 63 73 78
64 64 64 57 51 45 42 72 68 52 54 84 89 86 84 79 73 80 87 82 85 82 78 92 83 82 81 99 88 62 59 61 54 47 52 53 53 52 57 63 67 75 78 59
45 49 43 35 29 30 64 61 75 52 43 90 96 97 84 88 92 98 95 93 93 85 96 98 97 98 80 98 85 57 66 61 61 64 66 69 68 67 76 73 54 46 45 48
60 55 48 42 40 54 73 71 60 51 53 85 92 94 93 90 99 96 96 99 94 97 97 97 98 98 96 99 85 80 74 72 74 79 73 73 63 49 48 46 50 60 71 81
61 48 38 36 51 95 84 70 61 50 51 92 94 84 83 93 100 99 97 95 99 94 100 100 93 100 98 93 85 81 81 86 80 66 55 53 55 55 60 66 78 94 97 97
51 44 63 100 100 94 64 54 86 93 96 98 99 93 99 93 100 100 98 100 99 98 98 98 100 100 77 66 73 80 83 78 76 75 70 77 83 83 83 90 92 96 98 98
57 99 100 96 81 67 93 98 96 94 96 98 100 100 100 94 100 100 100 100 100 97 90 99 99 99 73 75 85 81 80 83 82 80 82 84 94 96 97 98 99 96 93 93
86 89 82 71 86 92 92 99 100 94 94 100 100 100 98 100 94 98 100 98 100 94 98 100 100 83 61 79 84 86 86 88 91 94 95 95 94 94 97 97 96 90 75 70
68 78 89 85 97 96 85 98 97 100 100 100 100 100 100 98 97 100 100 100 99 97 100 99 94 69 97 85 77 82 84 84 82 84 87 77 67 62 67 70 73 76 78 78
93 96 98 95 98 100 99 99 100 100 100 100 100 100 100 100 100 100 100 99 99 100 99 95 97 100 93 73 71 85 87 90 74 56 60 61 62 66 66 69 72 78 79 80
90 89 99 98 100 99 100 100 100 100 99 100 100 100 97 100 98 99 98 97 96 94 93 99 99 97 65 57 61 66 77 80 70 62 63 65 69 72 74 77 78 79 78 78
91 98 99 99 98 100 100 100 100 99 100 100 100 99 99 98 97 97 96 94 93 93 99 99 98 99 98 82 65 70 76 82 79 70 70 74 76 83 86 84 90 93 97 99
91 99 100 100 100 100 100 100 100 99 99 100 98 97 96 96 97 98 95 92 91 100 99 97 92 89 78 79 80 78 66 71 72 74 80 86 90 92 96 99 100 100 100 100

GFSNW_925_rhum_006.txt.gz
RH
78 94 100 86 73 78 94 58 55 82 76 51 34 34 28 36 33 32 28 24 23 24 28 28 27 26 28 37 28 29 28 30 40 28 27 27 24 23 20 24 29 42 49 20
87 96 100 86 78 93 93 51 53 71 54 52 61 36 29 34 30 27 31 28 28 34 33 38 36 35 41 38 34 32 31 34 40 34 30 27 27 26 23 31 40 38 58 17
90 99 100 83 75 70 63 44 68 62 39 32 30 31 29 26 34 30 31 37 37 39 40 43 46 45 42 41 39 61 33 35 33 36 25 26 33 30 25 21 33 25 30 14
84 100 99 75 66 68 76 51 45 37 67 42 28 27 25 24 34 32 31 36 33 35 49 45 47 44 41 44 64 43 35 38 35 34 35 31 26 26 28 25 24 29 16 19
90 100 93 67 71 81 79 52 50 49 39 35 28 34 26 22 32 33 31 31 36 37 44 34 46 41 37 36 46 42 42 47 46 48 41 36 34 25 26 26 24 27 20 23
98 99 81 64 74 87 58 60 50 34 69 37 32 32 26 23 33 46 36 31 39 43 44 44 41 42 39 36 43 49 49 59 46 40 47 44 60 37 25 24 24 27 27 21
100 94 66 73 69 65 44 55 41 44 64 48 35 28 25 36 34 41 45 39 40 55 43 40 40 43 43 40 46 42 60 50 55 59 58 79 20 28 27 24 22 21 23 25
99 74 64 69 64 60 59 65 43 43 99 46 38 30 26 41 47 54 51 57 50 44 45 51 53 65 75 66 48 43 41 49 70 85 42 29 14 23 28 32 19 22 22 22
70 60 64 62 62 56 67 71 46 38 67 58 31 32 40 52 52 62 68 59 50 45 58 64 65 58 44 52 57 54 46 51 46 64 86 85 26 27 38 34 29 28 33 34
58 58 60 60 64 54 69 68 43 32 34 41 42 37 46 45 51 58 62 60 63 48 69 100 73 54 45 43 59 91 75 80 81 63 82 41 26 32 36 37 30 32 38 36
54 57 61 65 62 50 69 78 52 53 48 55 51 45 51 55 49 61 59 55 60 63 85 88 65 84 54 46 43 58 56 68 86 71 91 76 28 40 48 34 40 38 38 37
62 64 65 64 57 51 63 71 62 54 56 62 69 69 68 54 37 47 54 48 51 50 65 80 83 94 93 70 60 51 53 48 48 44 38 33 32 34 33 39 41 38 40 34
66 64 60 59 54 49 60 74 56 63 72 61 56 59 67 67 71 62 44 54 50 53 58 76 89 100 77 96 62 56 49 45 53 52 32 32 31 30 31 32 37 34 33 36
64 59 55 53 50 54 56 68 56 60 72 100 72 72 68 78 72 62 58 55 63 56 48 83 96 96 58 78 59 65 49 49 48 48 37 34 32 34 34 33 36 40 39 44
64 58 50 51 51 53 60 55 53 54 67 90 81 70 76 74 64 59 58 51 49 53 77 98 87 69 74 79 71 65 47 42 55 51 28 37 33 32 37 43 42 44 50 51
65 58 50 50 51 52 46 84 63 62 72 73 95 74 72 73 67 63 63 57 58 54 60 89 62 65 66 95 65 40 43 42 42 42 42 44 43 45 54 57 60 57 54 51
77 72 66 58 56 42 48 59 83 66 59 79 94 83 70 81 71 79 72 74 73 63 73 90 77 74 59 94 71 61 60 57 57 57 58 53 58 58 50 47 48 53 56 62
54 52 49 45 46 46 66 60 59 56 60 64 91 91 92 78 93 95 84 94 77 84 89 92 93 87 82 83 71 64 59 59 61 56 57 63 49 47 50 52 58 71 87 94
48 42 39 43 54 86 82 64 63 57 60 72 93 99 96 78 96 92 90 83 100 81 100 93 84 99 96 78 70 67 71 73 69 55 51 53 61 63 70 78 88 95 98 97
35 26 64 92 99 81 55 62 69 78 82 84 100 88 99 80 100 100 97 98 100 98 97 95 99 97 65 70 74 70 67 62 63 69 71 71 71 78 92 96 97 97 97 89
52 94 98 87 65 68 74 83 82 76 98 91 94 97 97 86 96 100 98 99 97 99 89 91 98 98 74 78 78 76 75 69 65 66 70 78 94 95 96 96 91 84 84 86
78 80 72 66 72 78 96 99 95 92 94 99 99 100 95 99 84 95 95 100 99 95 88 99 98 82 82 87 90 88 86 86 82 83 88 84 76 74 83 88 88 85 72 72
65 74 94 79 97 100 100 99 100 99 100 100 100 100 100 96 86 100 100 100 100 84 99 92 86 78 96 92 87 81 73 68 66 66 64 54 56 66 74 81 80 79 77 80
90 100 100 100 100 100 100 100 100 100 100 100 100 100 100 100 100 100 100 100 99 98 98 97 95 100 100 96 77 70 66 87 55 52 64 73 74 79 80 84 86 87 94 95
88 90 100 100 100 100 100 100 100 100 98 100 100 100 91 100 100 100 100 100 97 88 84 99 99 98 91 69 63 59 77 86 67 66 78 80 79 85 95 96 97 96 96 98
99 100 99 100 100 100 100 100 100 99 100 100 100 100 100 99 100 100 100 97 88 91 98 98 94 86 70 56 58 69 72 68 75 75 81 92 96 99 99 100 100 100 99 96
100 100 100 100 100 100 100 100 100 98 100 100 100 100 100 100 96 96 91 96 99 100 98 97 95 84 76 75 77 82 72 73 79 87 96 99 100 99 92 78 68 75 78 83

GFSNW_925_rhum_009.txt.gz
RH
73 82 80 84 100 92 82 64 59 81 81 52 50 47 28 19 22 24 19 20 15 18 17 19 17 16 16 20 19 18 16 21 37 24 21 20 20 20 20 30 26 30 39 22
70 81 87 90 99 88 76 62 54 89 66 62 69 33 22 20 24 23 23 19 16 15 18 21 18 17 36 32 26 20 24 24 36 29 25 21 19 18 18 17 31 25 49 21
58 73 91 92 99 83 67 44 58 76 75 40 37 33 25 27 24 21 20 17 19 24 24 22 26 26 35 34 27 45 32 22 26 34 24 20 26 18 18 20 30 26 22 15
59 70 97 94 99 77 74 43 40 41 74 50 35 28 24 22 27 24 24 26 22 22 26 28 30 30 37 37 58 32 30 33 25 24 24 20 18 18 18 18 18 24 18 10
68 80 95 99 98 72 80 47 35 34 44 39 34 34 23 22 22 25 28 24 20 20 25 27 26 30 33 34 37 35 33 37 37 44 27 26 24 19 15 16 17 14 12 14
77 83 90 100 97 76 68 47 47 35 54 42 34 31 22 20 22 35 23 20 25 25 31 35 33 31 28 27 37 40 40 51 46 36 38 36 58 37 22 16 15 16 21 16
91 83 82 100 96 75 51 45 34 52 58 41 33 24 21 19 22 31 30 25 26 43 32 31 31 31 31 31 37 35 58 47 48 46 64 79 18 18 16 19 16 14 14 14
92 77 85 100 96 69 58 50 41 42 98 34 27 23 19 20 30 35 37 44 37 33 33 43 51 56 66 47 32 32 33 44 57 82 37 23 16 15 19 21 18 16 18 14
83 83 92 100 87 62 93 72 50 33 51 40 22 23 20 38 41 54 59 45 38 41 47 56 48 48 36 48 48 36 36 47 42 50 80 84 30 23 27 24 22 19 19 21
93 87 99 97 71 64 90 60 50 26 29 23 23 26 26 22 32 42 56 56 55 44 67 94 53 45 34 41 51 87 65 71 74 56 72 42 21 23 26 30 33 25 26 22
88 98 98 88 64 65 90 62 66 28 26 35 27 20 26 25 28 58 50 51 54 57 74 81 52 74 48 42 34 50 50 62 80 64 90 77 20 28 38 36 27 25 27 26
100 99 90 67 62 62 69 58 67 50 28 54 53 55 55 30 26 31 48 31 45 45 47 68 72 90 93 56 58 38 48 39 44 37 36 28 23 23 22 27 30 29 29 28
85 70 66 62 61 59 69 58 62 45 57 53 50 51 56 56 60 63 39 42 35 42 47 70 80 96 70 93 55 44 36 34 42 41 22 23 22 22 23 24 28 28 29 31
64 62 59 58 60 55 72 61 69 38 58 96 65 59 57 65 59 55 54 42 51 46 44 77 94 94 46 71 50 47 38 37 34 36 26 22 23 24 28 29 31 34 34 36
61 58 60 65 64 55 77 73 76 63 41 88 73 57 63 56 55 50 49 48 46 47 72 90 80 57 62 67 59 50 35 28 48 45 30 37 31 33 38 42 45 48 48 46
67 66 68 68 66 59 64 69 73 57 58 69 81 62 60 54 48 45 43 42 41 38 57 84 49 51 52 89 52 36 38 40 44 42 41 43 41 42 43 46 44 42 43 41
67 65 65 65 71 63 62 51 79 61 54 76 84 80 64 63 54 60 55 53 53 41 54 80 64 57 49 94 56 49 48 48 50 49 51 49 48 50 45 49 55 66 69 74
69 64 64 75 67 64 69 83 63 57 58 60 85 91 86 64 83 86 62 76 58 66 71 78 78 68 72 71 57 52 51 50 54 48 48 47 46 48 54 63 73 88 93 90
74 74 66 60 64 63 81 76 53 65 79 69 88 96 96 63 80 81 80 67 94 69 94 83 71 90 87 66 60 58 59 60 58 50 48 50 58 64 71 75 82 87 82 70
52 55 58 74 89 67 59 64 82 75 69 68 99 76 97 68 97 99 88 91 93 95 88 71 94 83 59 60 60 57 55 51 54 65 66 64 70 76 79 82 83 73 66 62
64 84 97 87 61 58 72 79 73 62 87 82 86 88 89 78 91 99 97 97 95 99 86 86 96 94 70 64 66 67 61 56 57 58 62 66 72 76 83 73 72 86 84 78
72 70 79 75 64 79 95 99 94 87 91 97 97 93 84 92 70 86 92 98 92 94 73 97 84 84 78 84 86 75 65 63 64 66 66 63 65 67 76 68 70 87 76 80
70 69 93 69 95 100 94 100 99 98 100 99 99 99 97 86 79 98 89 99 98 73 97 82 80 82 89 89 74 66 58 54 54 51 48 50 61 78 78 87 93 90 78 83
88 100 100 100 100 100 100 100 100 100 100 100 98 100 99 100 100 100 100 100 95 100 100 93 89 96 97 87 65 56 58 73 49 53 66 75 94 100 99 100 100 100 98 99
94 90 100 100 100 100 100 100 100 100 98 99 97 96 85 100 100 99 100 100 99 94 96 97 98 97 95 77 62 62 63 88 65 68 86 98 99 100 99 98 98 99 98 94
96 99 100 100 100 100 100 100 100 98 100 97 91 100 100 100 100 100 100 98 90 99 99 99 97 97 94 61 60 64 59 57 70 73 86 99 98 97 97 87 83 85 89 87
100 100 100 100 100 100 100 100 100 97 100 100 100 100 100 100 100 100 100 100 100 100 99 98 97 94 76 58 70 80 69 71 76 85 94 97 98 88 72 60 58 62 67 76

GFSNW_925_rhum_012.txt.gz
RH
90 95 86 81 78 92 100 63 67 67 86 71 45 65 41 31 20 15 18 15 13 14 16 16 15 25 20 15 14 19 14 19 46 24 16 14 17 22 18 55 37 50 60 34
83 90 88 84 84 88 97 63 66 81 65 55 66 48 39 27 24 20 23 18 17 13 17 19 16 14 30 26 19 21 18 24 44 30 24 20 21 15 18 19 41 47 69 38
87 92 89 83 82 90 92 55 83 98 88 40 45 50 38 32 23 18 18 18 16 15 17 16 19 18 32 30 25 42 32 24 25 44 26 22 28 19 14 19 59 46 40 19
88 98 86 84 84 90 99 71 57 61 91 67 47 43 35 30 24 21 18 19 16 22 24 22 23 20 36 33 50 30 28 33 25 20 18 22 23 19 17 17 21 32 27 17
86 98 79 84 88 84 97 74 49 50 56 51 54 50 40 28 21 24 25 24 19 19 25 22 25 22 35 34 37 31 31 43 41 44 27 24 27 22 19 16 15 16 15 16
91 89 68 79 94 97 89 56 56 46 60 53 54 52 35 27 22 22 20 20 21 22 27 28 33 35 31 26 37 41 42 64 62 54 38 43 54 42 26 23 16 16 24 18
90 79 70 71 94 97 65 53 54 74 63 48 48 42 29 24 21 29 23 21 24 36 28 30 30 30 32 33 37 32 66 60 66 72 68 67 23 16 16 19 17 14 13 13
85 83 68 76 99 97 98 52 73 78 87 48 38 39 31 22 21 28 26 40 35 32 34 51 56 69 62 40 28 34 38 60 74 96 56 30 22 15 17 18 20 18 19 19
81 84 74 83 100 95 98 90 90 89 68 55 30 30 25 32 43 50 55 37 35 34 57 72 50 60 40 48 45 29 35 57 72 66 80 78 35 23 22 20 34 20 20 23
78 84 80 86 92 95 100 93 93 97 71 37 29 30 31 25 45 53 51 54 54 46 88 95 69 61 30 54 63 87 75 78 86 72 87 65 22 22 21 38 48 28 28 27
89 85 80 85 88 81 100 93 89 95 66 33 27 22 25 26 40 67 53 54 51 69 80 87 69 81 57 48 34 59 65 80 92 82 98 88 20 24 43 44 32 30 29 31
86 86 83 78 74 78 100 95 85 80 86 56 54 52 46 34 22 42 55 41 49 55 56 74 81 93 90 69 69 30 53 48 62 55 62 34 21 25 23 24 29 30 32 29
91 89 88 68 78 98 98 94 75 77 65 60 44 46 52 52 55 57 47 44 36 43 48 79 89 93 86 94 75 44 34 32 52 47 21 22 23 20 22 22 27 28 30 34
90 91 72 77 98 98 100 96 92 71 62 97 72 55 50 57 52 52 52 46 51 54 56 88 99 97 52 88 60 70 42 35 35 36 30 24 21 31 32 34 35 39 43 43
89 85 80 96 95 98 78 83 93 74 40 82 75 55 56 52 51 46 47 48 53 58 81 95 90 68 79 81 69 68 35 34 62 70 40 44 39 43 44 47 46 42 42 41
100 98 96 98 98 73 92 95 67 71 50 75 88 60 54 47 48 45 46 50 49 48 73 90 59 47 65 96 72 31 41 40 43 44 46 46 46 44 44 48 48 48 50 53
93 82 73 70 67 72 89 74 85 66 58 76 93 87 61 47 47 49 50 46 45 46 60 85 73 60 58 98 75 46 45 45 48 46 50 54 47 52 51 61 65 71 72 76
64 64 68 69 74 79 84 71 66 64 63 84 88 100 86 59 84 85 59 68 62 68 73 76 86 74 87 85 52 48 49 47 50 47 45 47 48 54 64 71 73 73 73 72
76 75 75 85 69 76 80 69 70 54 70 97 94 94 100 61 81 84 80 64 96 68 99 83 74 87 89 60 55 55 56 56 53 47 48 52 61 66 70 69 66 68 66 61
71 76 59 87 93 69 66 65 70 78 90 88 100 87 96 74 97 93 92 94 95 95 92 69 94 84 56 56 54 53 51 52 52 61 66 66 68 73 72 69 70 81 82 72
62 79 94 87 71 67 71 91 87 91 100 82 84 91 96 79 97 100 99 100 100 99 87 89 86 86 66 57 63 57 52 51 55 58 63 66 71 71 77 83 77 76 76 87
68 68 76 75 78 83 96 100 98 96 97 97 98 93 84 93 72 93 96 100 99 91 80 98 83 82 67 73 73 62 57 58 60 62 65 66 72 69 73 77 88 96 96 99
56 71 97 86 98 100 100 100 100 99 100 100 98 100 97 91 76 94 86 97 96 76 98 83 86 79 79 80 70 62 58 57 57 53 55 64 83 91 89 99 97 89 92 100
92 100 100 100 100 100 100 100 100 100 100 100 99 100 100 100 100 100 100 100 85 100 100 86 92 85 92 76 66 62 59 70 63 63 81 97 98 99 100 99 99 97 94 90
93 92 100 100 100 100 100 100 100 100 98 100 99 99 94 100 100 100 100 100 100 84 96 98 96 97 86 75 67 66 72 94 78 83 98 98 98 97 98 98 95 90 89 87
99 99 100 100 100 100 100 100 100 99 100 100 98 100 100 100 100 99 99 97 95 100 100 99 97 98 96 90 77 71 64 75 80 91 97 95 92 93 87 76 78 82 71 70
100 100 100 100 100 100 100 100 99 98 100 100 100 100 100 98 100 99 100 100 100 100 99 98 97 98 88 78 81 78 78 79 85 92 93 93 92 78 68 59 57 59 65 61

GFSNW_925_rhum_015.txt.gz
RH
67 67 94 80 80 76 96 94 93 69 88 96 83 87 65 50 39 35 35 20 21 22 23 24 25 27 36 30 22 34 47 57 76 50 25 20 20 24 35 63 36 72 76 53
84 76 89 90 75 82 97 96 82 90 58 75 89 56 55 52 46 42 30 27 23 22 27 42 23 35 32 32 28 27 32 34 60 42 35 31 23 21 20 40 62 51 66 51
85 94 88 97 78 83 94 91 86 95 94 57 58 57 53 60 44 43 32 27 29 27 28 31 30 47 36 34 39 41 38 35 43 57 41 32 32 27 23 31 67 54 62 36
100 94 92 96 91 89 94 96 70 71 95 91 71 50 48 54 55 38 31 30 30 30 24 24 27 48 46 38 47 32 39 41 30 34 36 29 26 29 29 22 35 45 38 34
96 91 83 91 90 90 97 95 63 88 79 70 79 55 55 50 43 38 34 36 29 27 28 34 30 40 46 45 43 37 38 61 43 42 39 42 38 35 32 31 25 22 24 26
88 85 86 96 97 97 94 77 72 62 78 75 74 54 54 44 39 35 24 33 33 33 37 38 44 46 52 45 52 50 52 68 69 58 49 45 53 37 33 32 29 26 29 24
90 90 83 90 99 96 87 70 72 86 83 71 58 47 48 44 42 45 29 31 38 42 44 47 49 50 64 68 75 53 65 66 77 76 67 51 39 24 20 27 26 27 29 32
88 92 86 87 93 98 90 82 81 87 99 64 51 52 48 46 40 38 46 42 41 47 49 75 62 78 44 56 48 62 67 78 84 72 79 49 33 25 27 24 32 30 34 32
83 92 86 85 80 92 90 91 97 99 97 71 42 47 45 62 53 70 63 62 55 48 91 77 62 79 53 62 44 53 49 69 72 82 80 64 51 28 24 23 52 37 37 38
87 91 98 89 73 88 100 91 96 99 96 69 45 47 52 48 66 85 82 76 57 65 99 97 76 73 48 74 73 73 86 81 80 94 88 74 44 27 22 43 54 34 33 40
88 93 90 83 85 77 100 94 94 100 99 85 56 39 50 49 71 83 74 86 72 92 86 87 86 95 70 69 64 71 74 92 97 98 99 83 31 28 36 59 39 38 35 36
78 80 80 76 76 81 97 94 93 98 98 94 68 55 33 38 50 70 70 70 67 81 86 96 98 99 96 74 75 48 74 73 82 73 81 58 24 32 39 36 36 32 37 47
78 77 74 75 74 78 89 89 92 97 99 91 90 72 56 49 42 37 71 67 58 63 78 95 100 91 93 92 88 54 42 40 72 51 32 35 29 25 35 46 52 58 58 57
74 79 83 76 79 89 91 94 92 100 99 100 84 55 60 52 50 44 48 60 64 78 90 98 99 100 79 93 72 79 64 43 48 51 37 54 60 59 59 56 56 50 53 57
84 85 89 84 83 84 82 98 93 93 99 100 92 64 55 50 49 51 50 65 73 87 85 96 94 93 86 95 86 79 51 53 70 79 56 67 66 59 54 56 57 55 65 68
87 88 91 95 96 100 98 100 85 96 98 99 99 78 63 51 52 57 66 66 74 82 94 98 82 65 82 94 90 56 56 61 59 67 62 61 63 68 68 73 73 72 74 75
98 96 96 98 89 98 98 97 94 93 100 93 97 96 79 59 65 84 72 62 82 85 89 97 85 73 92 98 88 60 60 59 62 60 59 66 60 79 72 76 78 82 84 86
96 96 100 93 99 82 91 81 77 92 82 88 98 100 95 70 94 98 88 92 91 92 92 94 96 92 97 90 67 60 59 57 59 58 60 68 72 76 76 74 76 81 83 77
100 100 99 100 99 98 85 72 67 51 71 98 100 100 100 80 98 97 92 94 100 94 100 95 89 99 97 73 68 67 63 66 63 62 66 71 78 75 72 75 76 76 85 81
78 83 98 100 91 65 69 63 85 90 93 96 100 98 100 88 100 100 99 100 100 100 99 89 100 96 70 69 69 67 66 59 63 81 85 80 77 75 78 86 82 79 76 78
89 97 100 93 73 66 90 91 93 92 100 98 99 99 100 91 99 98 100 100 99 99 93 94 98 100 78 74 72 70 69 68 68 66 70 71 72 87 85 82 85 90 97 99
70 81 79 78 88 94 98 100 100 97 97 99 100 100 95 98 92 100 99 100 97 100 91 98 93 92 86 80 74 71 69 71 72 72 75 77 78 78 86 96 99 100 99 99
51 76 94 85 99 100 95 99 99 97 99 100 100 100 100 97 95 100 100 100 99 96 100 96 98 89 84 78 72 70 69 70 68 76 84 87 93 96 100 100 100 100 99 94
97 99 98 100 99 98 99 99 99 100 100 100 100 100 100 100 100 100 95 100 97 100 99 95 99 94 91 83 71 71 69 77 83 89 98 99 99 100 100 99 93 88 93 92
98 92 99 98 100 100 100 100 100 100 100 100 100 100 99 100 100 100 99 98 93 91 98 100 98 94 85 76 72 79 83 88 93 98 98 99 100 100 99 93 89 78 84 86
98 98 98 99 99 99 99 99 100 99 100 100 100 100 100 99 100 98 100 96 99 100 100 100 97 96 94 82 81 84 85 91 98 98 99 99 96 92 92 83 68 59 65 81
99 99 100 100 99 99 100 100 100 99 100 100 100 98 99 100 100 99 99 99 99 99 99 99 99 98 95 91 91 92 94 98 98 97 96 96 87 67 70 72 82 66 60 69

GFSNW_925_rhum_018.txt.gz
RH
79 93 77 68 68 76 84 86 95 95 90 93 81 84 64 55 49 44 50 41 43 29 31 31 33 30 26 32 41 39 47 54 74 45 34 22 30 30 33 60 35 77 78 51
84 95 73 67 64 83 93 90 87 99 78 91 89 68 64 55 49 49 48 41 34 24 32 32 31 31 32 36 30 38 46 48 64 49 33 32 30 26 32 47 62 55 68 52
96 92 66 55 61 90 92 90 90 96 91 63 60 72 74 70 46 53 51 49 43 30 31 32 39 44 38 39 38 54 42 41 41 56 42 38 35 30 30 41 69 57 64 36
93 78 62 56 62 95 93 90 73 71 92 88 61 60 63 68 58 50 45 46 48 42 35 39 37 49 45 42 49 37 41 41 36 35 36 33 30 31 31 33 36 46 38 40
82 80 56 75 67 93 96 84 84 80 86 67 80 63 60 55 46 47 46 51 46 39 31 36 44 50 51 46 43 36 45 45 44 41 44 38 34 34 35 34 28 36 30 31
77 84 76 86 87 99 93 78 83 79 71 76 82 76 55 49 42 44 39 43 44 40 35 37 41 45 48 49 49 52 53 70 67 54 55 45 61 40 34 32 31 31 38 29
78 81 71 90 97 100 79 80 83 86 83 79 76 65 52 48 45 43 41 37 44 40 46 47 48 56 64 66 72 57 64 67 76 77 61 65 46 32 30 35 34 36 36 35
82 84 61 96 98 96 99 86 86 96 94 78 73 64 57 45 44 51 40 45 40 49 53 67 58 78 55 63 56 65 66 79 87 70 74 53 36 25 26 32 38 35 38 35
84 85 91 99 88 84 96 98 99 99 99 78 59 64 49 57 58 55 59 55 59 60 88 74 63 64 55 63 48 53 68 80 81 91 71 63 49 34 25 32 59 38 42 42
91 92 92 77 81 86 99 91 100 96 99 79 56 59 54 43 68 59 78 67 60 67 97 87 77 76 54 71 67 68 84 87 77 96 78 67 47 35 25 34 44 40 47 47
92 89 90 76 87 84 100 85 96 95 98 91 76 47 48 51 65 79 78 81 82 95 87 85 88 81 77 77 66 70 67 86 95 96 91 63 46 29 35 46 49 46 42 43
87 86 97 91 87 91 99 96 90 92 98 94 90 86 69 37 57 80 81 67 74 83 86 94 94 89 91 73 85 60 57 67 77 71 74 53 34 37 46 46 44 41 58 59
86 89 86 84 87 94 95 91 94 89 95 88 97 88 59 43 32 33 78 78 65 83 72 96 98 70 92 83 83 62 51 59 74 60 44 47 44 58 56 60 68 65 64 66
96 87 88 98 88 91 84 94 88 95 98 100 90 67 68 64 44 41 41 57 70 84 86 99 99 88 76 88 68 76 64 50 56 57 67 67 71 69 63 61 64 65 62 57
88 96 85 82 86 100 95 90 86 92 99 100 97 80 62 66 49 62 62 69 72 77 79 98 87 94 87 96 83 82 56 56 69 69 54 68 72 66 64 65 70 68 72 78
87 81 82 84 92 86 93 97 83 83 86 99 99 92 83 68 69 71 72 83 88 90 90 99 87 75 78 84 87 60 63 64 59 73 67 74 79 76 72 79 80 78 80 81
88 85 84 84 78 96 88 85 90 72 81 99 99 99 90 85 85 92 88 89 96 91 95 98 86 80 89 96 86 68 69 71 67 67 68 78 75 90 82 82 83 82 84 87
87 86 89 89 91 96 83 75 100 99 91 98 99 100 99 84 99 98 96 97 95 96 96 97 96 96 96 82 73 71 67 70 74 76 72 78 79 79 83 80 78 81 86 88
87 86 96 100 100 100 79 88 97 94 98 100 100 100 100 89 100 99 95 98 100 96 97 99 88 100 96 78 75 71 67 69 84 80 79 78 82 82 81 82 86 89 86 80
87 99 99 100 93 96 91 88 98 91 93 98 100 99 100 93 100 100 100 100 100 94 98 95 99 98 79 80 77 74 72 74 76 90 93 85 82 77 80 83 77 77 80 92
99 100 100 100 95 91 99 97 93 93 100 99 100 99 99 95 98 100 100 100 99 92 91 87 98 99 85 82 84 77 72 72 73 72 74 75 83 86 86 84 89 97 99 98
86 90 95 98 98 96 95 100 98 96 99 98 100 100 99 99 93 99 99 100 98 97 95 92 96 97 90 88 88 86 81 77 76 75 83 82 78 79 88 97 98 99 100 97
88 91 94 87 97 94 99 98 99 99 100 100 100 100 100 97 96 100 100 98 97 94 93 94 98 92 86 84 82 80 77 78 80 82 86 90 96 99 98 99 100 100 96 81
96 93 99 98 96 99 99 99 99 100 100 100 100 100 100 100 100 100 100 100 96 99 99 95 99 93 90 79 77 80 87 91 92 92 97 98 98 100 100 100 92 92 91 70
98 93 99 99 99 99 100 100 100 100 100 100 100 100 99 100 100 100 99 99 99 98 98 99 99 97 84 80 80 86 90 93 95 96 98 99 99 99 99 90 86 79 68 67
96 98 98 99 99 99 99 99 100 99 100 100 98 99 98 99 99 98 99 96 99 99 99 100 97 88 83 83 85 87 87 92 97 98 98 99 99 96 92 75 77 82 68 70
97 99 100 99 99 99 99 99 99 99 100 100 98 96 100 99 97 99 98 99 99 100 100 100 97 98 98 97 97 99 99 97 98 98 98 94 92 81 77 75 70 75 72 73

GFSNW_925_rhum_021.txt.gz
RH
80 99 94 76 60 65 86 88 96 96 82 98 86 84 63 49 43 47 54 54 55 39 33 33 34 32 25 28 41 35 42 46 58 34 32 31 31 34 36 62 39 78 78 53
83 100 96 81 68 73 93 88 89 100 78 94 91 70 66 55 46 51 54 55 46 34 37 34 35 36 29 44 36 44 47 49 64 47 36 35 34 31 40 50 63 60 69 48
92 90 95 82 71 56 94 87 96 97 89 68 68 75 73 74 55 55 53 58 51 44 33 32 43 42 40 40 37 57 43 47 43 47 43 42 39 35 35 42 71 57 64 36
94 92 91 82 68 73 94 96 72 71 92 88 76 63 65 70 67 56 49 57 61 57 48 39 40 48 46 43 52 46 40 41 36 35 32 37 33 34 38 38 38 47 40 48
90 90 89 83 66 88 96 89 87 74 82 70 76 74 68 64 61 59 57 48 46 45 60 44 45 50 49 46 42 39 47 48 41 47 43 42 37 36 38 38 33 39 35 34
89 89 90 80 73 84 95 77 87 78 69 76 77 72 64 59 56 56 48 46 52 56 51 42 39 47 49 44 51 53 51 67 65 50 54 46 61 46 39 34 33 33 40 34
93 97 96 86 89 81 88 79 83 94 76 79 72 62 58 58 54 55 46 40 49 47 54 49 49 57 68 71 76 56 65 64 74 72 63 69 42 36 34 36 37 36 38 43
90 92 90 84 84 88 87 89 87 97 98 65 71 64 64 54 50 54 44 43 30 53 50 65 66 75 59 59 64 73 63 78 83 72 76 53 39 32 39 37 36 36 48 53
95 93 82 83 93 86 79 96 82 96 100 80 59 68 60 68 62 58 57 38 63 66 83 83 67 74 66 68 59 60 66 76 77 88 69 69 53 37 29 36 58 36 44 52
89 79 85 92 92 87 79 98 92 95 96 86 62 73 67 56 60 59 64 76 69 68 98 88 79 72 57 70 73 68 84 88 84 96 79 66 45 36 27 42 48 47 48 50
86 86 87 88 85 89 91 95 95 91 94 90 87 74 68 61 56 64 70 77 83 94 80 86 84 84 77 73 62 66 75 89 95 92 77 58 43 37 35 46 50 52 51 51
86 90 89 88 97 78 99 94 98 89 99 94 84 78 74 89 43 54 91 61 79 81 88 96 95 92 92 77 83 62 56 68 77 70 68 49 43 32 37 53 51 48 54 66
91 97 99 93 94 88 95 92 89 94 96 90 88 88 62 71 66 39 78 80 80 84 82 94 96 78 90 82 84 69 57 64 68 62 51 51 48 60 55 47 56 65 66 71
90 91 94 89 80 77 96 94 91 84 87 100 89 83 88 68 65 52 40 58 82 91 91 97 96 85 77 85 70 77 68 65 67 70 73 69 71 72 71 72 69 66 60 56
88 90 81 88 79 88 93 83 90 98 88 100 98 84 78 77 77 58 48 74 82 91 90 97 85 93 88 97 84 85 65 62 74 76 67 60 75 73 70 71 73 69 70 75
79 82 80 75 83 94 93 97 80 86 96 99 100 90 92 87 81 64 76 71 89 86 86 100 92 80 78 85 88 57 61 59 52 53 75 78 81 80 75 80 80 78 80 80
79 78 86 98 95 84 88 90 81 54 92 97 99 95 94 95 88 96 97 93 97 92 94 96 89 87 75 93 80 60 77 78 80 76 75 86 80 93 84 84 85 87 90 90
93 83 93 84 79 86 83 84 99 90 78 93 100 99 100 91 100 100 98 99 96 98 99 98 97 99 96 72 72 82 78 78 82 85 77 81 85 84 85 81 81 87 92 89
86 88 87 98 96 89 92 94 99 99 91 100 100 100 100 95 99 100 99 98 100 97 100 100 92 100 90 83 83 82 78 77 92 84 84 84 88 87 83 85 88 88 85 81
86 95 97 99 76 76 71 82 97 100 97 97 100 99 100 96 100 100 100 100 100 97 99 96 97 97 82 89 81 82 87 83 81 94 96 92 92 89 88 88 77 75 80 88
93 99 100 99 81 88 96 100 100 99 100 100 99 100 100 98 98 100 100 100 99 90 97 96 99 99 90 91 91 85 82 80 78 75 77 77 80 87 88 87 88 90 92 94
87 98 81 86 93 99 100 100 99 98 99 99 100 100 99 100 96 99 100 99 96 93 94 93 98 96 97 95 94 91 85 82 82 79 85 85 82 80 85 89 95 98 100 96
97 92 96 96 100 99 99 99 100 99 100 100 100 100 100 96 93 100 99 96 99 94 96 97 97 97 95 93 89 87 82 84 84 85 84 86 89 90 91 97 100 100 94 85
96 100 99 99 98 99 99 99 99 99 100 100 100 100 100 100 100 100 99 100 97 98 98 97 99 96 92 88 85 87 91 91 91 92 93 95 98 99 100 100 95 81 88 89
98 97 98 99 99 99 99 99 100 99 100 100 100 100 96 100 99 99 100 99 99 98 98 100 99 92 87 90 92 95 95 96 96 97 98 98 98 99 100 96 77 68 75 74
96 98 98 99 97 98 98 98 100 99 100 100 97 99 99 99 99 99 98 97 99 99 99 100 94 92 91 94 96 98 98 98 98 98 98 98 97 94 99 81 66 64 62 65
93 99 99 99 99 99 99 99 100 99 100 99 98 98 98 97 95 97 99 98 98 99 99 99 99 98 98 98 98 98 98 97 98 98 97 97 89 83 87 89 86 75 72 74

GFSNW_925_rhum_024.txt.gz
RH
95 87 86 88 80 82 75 84 93 92 88 97 82 76 67 55 52 47 55 56 63 56 38 39 37 35 28 29 38 34 41 45 54 36 31 32 30 35 42 63 44 78 78 54
97 92 89 87 79 83 87 93 86 84 81 91 89 66 63 61 52 51 57 62 57 44 36 33 38 36 28 41 33 41 45 44 57 40 32 36 35 37 43 53 64 66 70 53
99 95 91 88 87 86 82 95 93 94 88 56 65 71 69 72 58 54 53 61 57 51 48 42 35 37 40 48 35 54 39 49 39 38 33 40 40 39 45 46 70 60 67 41
100 96 92 88 97 86 79 97 85 75 90 86 72 60 60 72 67 54 55 62 66 54 56 41 45 49 50 44 62 46 39 40 42 37 36 41 39 34 47 44 44 49 41 46
99 95 94 97 94 88 78 97 90 79 87 69 73 72 67 69 63 66 67 62 55 61 68 49 39 49 52 47 49 48 49 46 40 45 46 42 41 39 43 41 39 41 40 40
99 92 96 99 92 87 88 92 87 92 69 75 77 69 64 62 57 57 53 53 53 59 51 42 43 44 53 48 52 57 51 67 62 50 54 45 62 50 44 43 40 39 46 38
100 95 90 95 90 90 72 78 82 93 85 78 71 60 61 61 59 61 52 53 57 46 51 49 49 57 69 69 72 57 65 62 70 75 65 64 41 38 36 41 38 37 36 38
97 98 89 82 91 80 70 72 84 96 94 73 70 65 65 59 55 60 57 51 42 44 59 65 64 76 56 63 73 72 61 74 78 70 74 51 39 39 42 42 38 41 43 56
98 99 98 92 89 83 75 84 85 98 99 81 61 67 61 68 63 66 62 48 48 60 74 82 81 84 69 72 61 61 66 74 71 80 70 68 52 37 33 33 49 44 56 63
98 99 97 96 89 86 78 76 84 96 97 89 68 72 68 56 61 67 65 58 71 62 93 87 83 75 64 77 73 78 86 90 80 95 79 72 51 34 32 44 48 49 55 61
99 97 95 96 88 85 87 75 67 97 94 83 86 78 69 62 60 73 72 75 86 96 83 91 85 91 79 74 64 74 78 90 88 88 80 75 43 39 43 47 50 54 55 58
98 99 98 97 92 92 87 74 60 83 98 94 88 80 70 76 52 56 71 62 85 81 87 94 94 90 93 74 78 62 63 69 77 70 72 52 47 39 38 49 54 53 56 63
95 96 92 92 94 94 89 71 65 96 95 84 89 86 64 63 63 57 68 84 77 78 77 91 94 84 90 85 81 71 60 60 63 60 53 57 49 52 50 46 49 58 62 66
91 91 92 88 80 79 86 82 82 94 92 100 91 81 87 82 74 67 66 63 85 89 88 95 94 85 79 85 72 78 69 66 73 66 71 67 64 67 63 71 72 69 65 60
86 83 72 65 71 88 91 80 89 89 92 99 96 75 73 80 91 90 79 64 88 91 92 95 86 95 90 97 84 87 72 67 76 72 63 54 52 75 73 74 74 71 70 76
80 84 82 87 92 85 96 97 92 96 79 93 99 86 86 89 93 97 78 70 88 89 85 93 94 87 81 89 87 56 61 63 56 49 72 85 88 83 76 80 80 76 76 74
81 85 82 85 77 83 90 92 85 78 87 96 99 99 84 96 93 98 96 92 98 90 95 97 92 93 75 91 73 49 66 70 82 80 75 83 78 88 85 85 87 86 88 88
83 77 84 78 88 84 91 77 87 84 83 92 99 94 94 93 99 100 98 99 94 98 99 98 98 98 94 78 69 84 85 83 86 88 82 79 90 89 94 88 86 92 96 94
83 76 81 90 89 87 84 71 94 77 80 97 100 100 98 94 99 99 98 96 99 98 100 100 96 100 87 69 85 89 85 78 94 89 87 86 90 92 90 90 90 93 94 91
90 92 92 100 78 74 75 98 96 99 99 100 100 99 100 95 100 100 100 100 100 100 100 95 99 96 88 88 84 86 86 84 82 96 97 94 94 93 91 87 83 84 88 89
93 98 100 95 80 74 96 100 100 99 99 99 97 100 100 95 98 100 100 100 100 99 99 97 99 98 88 91 92 84 82 79 80 77 79 79 81 88 88 86 85 87 88 91
84 89 81 83 93 99 99 99 100 100 95 100 100 100 99 100 96 98 99 99 98 94 94 98 99 96 99 98 98 95 89 86 85 81 86 86 85 83 85 86 88 92 97 92
99 90 94 94 100 99 99 98 100 96 100 100 100 100 100 97 94 99 100 98 99 97 99 97 96 98 98 95 92 94 89 88 87 87 86 88 90 92 92 97 99 94 92 95
97 98 98 99 98 98 99 99 99 99 100 100 100 100 100 100 100 100 99 100 97 98 98 95 99 98 98 92 91 90 95 94 94 94 94 96 96 98 99 98 93 91 91 88
99 99 98 98 100 100 100 100 99 99 100 100 100 100 98 100 99 99 99 98 99 99 99 99 99 96 95 96 95 96 96 96 96 96 96 97 97 96 98 94 86 90 83 77
98 98 98 99 97 97 98 98 99 98 99 99 96 99 99 99 99 92 97 98 98 98 99 99 99 98 98 98 98 98 98 98 97 97 97 97 97 96 94 83 83 80 74 77
98 99 98 99 99 98 98 99 98 98 100 99 99 97 97 98 96 96 97 98 98 98 99 99 99 99 99 98 98 98 97 97 97 97 98 98 97 84 77 78 80 73 72 75

GFSNW_925_rhum_027.txt.gz
RH
97 100 99 94 90 87 93 92 96 66 72 94 82 80 64 56 52 52 54 59 64 65 40 44 41 38 31 31 33 33 37 44 49 37 32 31 32 36 40 53 44 56 56 41
100 100 100 95 91 86 95 97 83 91 78 87 81 69 62 53 58 51 58 60 57 51 48 39 40 38 30 41 35 39 42 42 45 35 31 36 36 36 39 48 55 57 62 39
98 100 100 97 92 88 94 96 97 96 93 63 65 72 72 66 56 51 52 60 58 55 51 46 36 40 37 44 33 52 37 46 40 38 34 34 44 41 41 42 55 52 50 36
94 100 100 98 93 90 93 98 95 78 94 84 74 61 59 66 65 58 51 60 54 61 58 48 49 45 52 47 64 45 40 41 43 34 30 36 34 36 43 38 40 46 37 40
79 100 100 99 93 93 94 100 95 87 72 67 71 72 65 67 61 53 64 58 55 51 63 55 49 48 52 52 56 50 50 46 42 39 44 42 42 38 39 39 41 40 37 38
88 93 99 100 94 92 95 92 85 87 68 75 76 69 64 61 56 56 49 51 54 66 54 56 52 46 46 50 47 56 54 64 56 47 54 46 60 51 43 42 39 38 44 35
90 83 99 98 95 89 79 79 81 90 87 77 69 61 61 57 57 61 53 55 60 50 49 51 53 58 68 65 66 56 62 60 63 67 62 67 37 39 36 38 38 36 36 34
88 78 100 97 93 92 78 71 84 92 90 71 69 64 61 59 55 59 54 54 52 47 50 68 56 77 62 66 67 63 57 68 73 74 62 48 37 40 40 40 29 34 34 38
91 91 100 91 94 94 80 78 76 94 78 85 55 66 58 65 68 72 61 51 56 58 78 80 85 80 70 73 67 61 64 64 62 72 63 60 46 35 36 31 42 35 38 49
85 100 99 94 98 95 78 81 74 89 96 88 79 65 68 54 61 70 73 63 69 58 83 89 84 79 65 77 79 82 75 76 69 75 72 61 44 36 33 47 39 42 43 50
98 98 92 98 98 93 74 88 71 78 96 86 81 83 70 61 58 71 74 69 72 91 82 88 86 85 73 71 67 75 74 76 83 78 80 63 44 37 45 43 44 48 50 52
95 96 100 100 98 95 80 78 79 77 96 97 94 91 75 74 45 55 60 62 68 68 81 89 87 91 95 72 68 63 72 65 69 63 63 54 44 41 40 43 43 52 52 53
100 96 94 98 98 96 83 71 81 80 90 89 91 84 67 69 66 42 71 77 72 81 78 87 88 83 85 88 77 69 64 60 61 58 51 51 50 47 48 46 48 48 47 52
99 100 100 96 94 98 96 73 72 74 92 97 90 89 90 67 69 62 61 64 79 84 85 88 94 87 74 84 69 76 65 58 64 61 53 66 58 57 51 58 63 60 56 56
100 100 97 96 96 97 82 67 75 64 93 100 94 75 67 71 90 80 75 72 85 88 89 96 87 87 85 95 82 79 66 62 66 62 44 48 46 54 63 64 61 58 61 65
98 96 94 93 97 94 72 92 70 86 88 98 100 85 89 90 100 98 92 82 83 86 86 91 88 85 78 89 82 53 58 65 57 43 58 70 78 71 66 66 65 64 63 64
87 78 73 76 88 84 85 91 84 73 84 98 100 98 89 92 95 99 99 93 90 84 86 95 88 91 79 91 72 48 56 62 68 73 68 71 73 70 73 70 72 72 71 71
78 70 66 75 87 85 96 92 75 52 95 94 99 98 95 89 100 100 98 99 96 96 93 96 94 96 92 83 62 73 77 76 78 75 77 71 78 80 83 80 78 82 85 85
74 85 81 94 92 92 82 92 81 78 81 98 96 100 99 90 99 99 99 94 100 97 100 99 92 100 89 69 66 82 83 80 86 86 82 80 82 85 84 80 80 86 88 85
93 98 88 99 79 75 97 100 99 97 96 96 99 95 100 92 100 100 100 100 100 100 99 95 100 96 84 87 86 81 82 81 79 92 97 94 93 89 86 83 81 83 85 85
82 95 98 83 81 76 95 99 98 99 100 99 96 99 100 95 98 100 98 100 100 100 98 98 99 97 90 93 90 82 79 76 78 74 79 76 79 85 87 87 86 88 87 88
88 84 80 86 93 97 98 100 100 100 98 100 100 99 97 100 93 96 99 99 99 98 94 100 100 99 97 97 98 95 90 88 90 82 88 88 83 81 85 88 90 95 98 98
84 85 94 93 100 100 97 97 99 100 100 100 100 100 100 99 95 100 99 100 99 99 99 99 100 97 97 97 95 97 95 90 87 88 86 86 88 90 92 95 98 98 98 98
96 94 96 98 97 97 98 99 99 100 100 100 100 100 100 100 100 100 100 100 99 98 97 98 99 100 100 96 94 94 96 94 94 94 92 93 94 97 98 98 99 98 97 98
99 99 97 98 100 100 100 100 100 100 100 100 100 100 96 100 100 100 100 98 97 98 98 98 98 100 99 97 97 97 97 96 95 94 95 96 97 96 97 98 98 97 97 96
97 95 96 98 98 97 97 97 97 97 99 99 97 100 97 100 96 95 96 94 94 95 98 98 99 99 99 98 98 98 98 97 97 97 97 97 96 96 97 97 97 96 93 95
97 97 96 97 97 97 97 97 96 98 100 99 93 92 96 86 89 90 91 95 96 96 98 98 99 98 98 98 97 97 97 96 97 96 96 97 98 98 94 88 87 90 87 85

GFSNW_925_rhum_030.txt.gz
RH
100 100 98 100 100 98 96 80 97 75 84 93 82 93 52 34 28 35 41 39 35 38 29 30 25 25 22 21 17 25 19 22 27 22 24 24 20 20 25 33 32 36 42 27
100 99 100 100 100 99 92 91 96 86 66 88 88 52 51 40 36 35 47 42 40 43 41 37 29 24 26 28 22 20 24 27 32 24 27 28 26 25 23 28 33 30 48 26
88 99 100 100 100 98 82 96 98 98 88 48 56 45 46 49 39 34 37 41 41 48 48 41 38 32 35 34 21 39 28 21 25 30 21 18 29 24 25 26 34 28 28 20
75 88 98 100 100 99 79 96 90 79 96 74 46 43 43 53 46 38 35 43 41 46 52 43 44 37 46 37 50 26 26 25 23 18 16 16 18 18 21 24 23 26 22 21
92 87 99 100 100 99 88 96 79 70 67 59 48 49 41 50 39 32 44 46 43 40 47 36 53 44 41 41 40 32 30 27 28 29 20 22 23 18 17 19 18 18 22 22
93 93 85 100 100 99 92 87 53 56 51 63 57 54 44 41 40 33 29 30 38 42 45 40 49 51 45 41 43 41 38 34 36 33 35 34 47 32 22 21 19 22 26 22
92 95 90 99 100 96 76 67 58 76 64 59 56 47 43 42 39 40 33 34 46 46 38 44 45 41 51 49 43 39 47 43 44 41 66 79 24 26 21 22 19 21 22 20
94 95 93 91 98 96 70 67 66 64 76 54 48 52 44 38 37 39 35 46 37 42 47 49 50 58 64 56 51 49 42 43 50 72 47 29 28 29 29 30 25 19 22 19
95 95 83 98 100 97 76 67 62 58 60 56 47 58 53 52 49 49 41 40 48 56 65 64 64 64 40 50 59 51 50 50 52 60 50 63 27 20 22 24 31 17 19 21
96 91 74 100 100 97 76 74 67 58 59 52 50 65 72 43 39 48 48 56 59 54 75 93 74 54 34 40 69 80 65 61 68 56 57 35 26 24 24 37 32 22 20 22
92 91 81 100 100 96 76 78 73 60 62 68 74 64 60 44 40 56 47 57 62 75 80 72 69 83 63 42 37 60 57 63 73 54 75 64 29 29 31 26 31 27 30 27
88 83 97 100 100 99 86 81 80 74 61 89 83 78 87 71 33 38 56 41 45 52 58 59 53 96 94 47 64 52 62 47 48 43 38 31 30 24 25 28 25 32 30 30
95 93 99 99 100 96 79 88 79 65 62 61 71 83 69 70 66 45 49 44 40 49 40 60 69 91 80 93 55 43 50 47 51 49 29 34 34 26 30 28 28 27 29 33
92 100 100 98 96 85 85 78 72 53 57 72 58 82 88 66 68 64 52 39 42 50 53 60 73 82 52 66 50 57 40 49 41 43 34 42 38 32 28 31 34 34 31 36
100 100 98 100 96 81 75 81 76 60 54 79 69 54 60 63 77 68 59 58 54 65 72 84 72 62 67 70 64 61 43 42 54 49 29 32 23 28 32 35 39 36 37 40
98 100 100 100 96 88 74 95 74 77 77 94 100 82 83 85 78 66 62 56 56 61 58 70 53 61 65 86 58 30 39 36 34 33 37 35 48 43 37 37 36 38 40 39
100 100 100 96 93 83 78 72 66 83 75 74 100 98 74 93 88 86 72 59 59 59 64 70 59 70 62 87 66 30 34 38 44 51 52 48 49 41 49 44 43 49 41 43
93 94 97 93 83 75 73 95 85 70 72 90 100 99 98 87 100 99 98 88 81 72 66 73 67 75 79 81 46 37 45 50 54 54 57 59 50 51 53 50 51 53 54 53
94 93 92 89 79 79 92 94 86 84 84 97 99 100 97 92 98 97 98 98 100 96 96 82 70 80 78 62 59 47 52 58 53 64 61 62 60 59 60 58 57 57 62 61
82 81 84 99 83 81 93 97 91 83 88 82 92 77 94 83 100 100 99 100 100 100 97 88 98 72 66 71 71 67 66 64 65 72 77 76 72 69 68 66 64 64 67 70
78 91 90 82 72 97 90 98 99 96 95 85 74 75 84 85 86 95 96 100 100 100 94 94 97 83 74 78 84 75 70 65 63 61 60 60 64 69 71 72 72 72 73 74
82 88 85 96 78 73 94 97 92 95 86 98 99 95 80 98 88 88 96 98 99 100 97 99 98 98 93 92 92 81 75 73 72 66 68 69 67 68 73 80 88 90 95 98
89 70 86 88 100 100 96 94 96 100 100 99 93 100 94 98 93 99 92 100 100 98 99 99 100 100 96 96 92 93 87 85 86 88 83 89 91 93 94 95 98 97 97 99
89 99 98 100 97 96 96 97 100 100 100 100 100 100 100 100 100 100 100 100 100 100 95 94 92 99 100 100 100 96 97 96 93 93 91 94 95 97 98 98 98 98 98 99
99 91 94 96 100 97 99 100 100 99 100 100 100 100 98 100 100 100 100 99 93 89 90 91 95 100 99 98 98 98 97 97 96 96 96 97 97 96 96 98 98 98 98 98
94 89 90 91 94 94 95 96 97 100 100 100 99 100 99 95 89 92 92 79 87 89 91 95 96 96 96 97 97 98 97 97 96 96 96 96 96 95 96 98 98 98 98 97
94 94 95 95 94 94 95 97 96 98 100 97 86 85 94 69 76 83 81 88 90 92 92 93 96 96 96 96 96 96 96 95 95 95 95 95 97 97 93 90 95 95 96 96

GFSNW_925_rhum_033.txt.gz
RH
99 99 100 100 100 98 100 93 97 56 81 98 90 84 58 32 24 16 20 25 27 21 21 28 20 21 17 14 13 19 18 19 27 23 16 13 16 20 21 34 34 33 35 28
95 96 100 99 100 100 97 96 87 68 74 96 92 61 46 32 23 26 24 26 32 29 24 27 26 20 15 19 19 19 19 23 34 25 18 18 21 22 23 24 24 44 59 28
91 89 88 97 100 100 97 98 98 96 92 67 60 54 47 41 26 20 22 22 26 27 38 29 29 26 22 19 19 33 28 21 25 33 22 18 23 19 18 22 40 34 31 21
84 91 84 91 100 100 96 98 87 85 95 89 58 42 39 36 29 19 22 25 35 34 28 27 31 30 28 32 31 27 24 32 26 20 16 14 15 17 18 21 22 31 25 20
89 88 83 80 99 100 95 100 80 72 65 69 57 52 42 33 26 22 29 30 32 49 52 34 50 38 40 30 27 29 26 32 25 22 16 14 16 14 14 16 17 18 18 18
94 92 90 78 96 99 96 94 51 49 53 74 59 54 44 34 26 23 23 23 26 30 31 39 57 53 55 47 42 37 30 38 37 38 20 19 32 20 17 15 13 15 21 16
96 96 96 92 89 100 87 85 46 68 65 81 55 44 37 34 26 25 20 21 27 28 31 35 39 50 42 60 45 37 39 39 42 43 59 59 26 17 16 18 15 14 13 12
98 99 98 92 89 100 90 69 52 66 81 58 51 42 37 30 26 30 26 21 20 22 34 45 49 72 64 60 45 38 42 47 52 59 47 28 20 19 21 20 19 14 15 13
98 98 97 96 84 88 88 72 51 60 64 63 39 41 36 38 33 44 31 26 34 40 48 48 45 39 33 61 61 38 38 51 58 52 52 54 28 18 15 15 29 14 14 15
100 97 99 90 83 95 88 86 55 59 64 54 48 50 45 31 34 43 55 59 58 44 68 82 50 44 23 43 92 80 69 70 76 63 51 34 19 15 15 36 29 15 15 16
100 98 97 94 75 100 94 78 64 62 71 60 68 51 41 36 39 54 44 51 62 66 66 51 39 58 39 34 29 69 67 65 72 58 60 65 18 21 26 22 18 20 20 17
96 98 90 83 91 98 92 71 68 69 74 87 65 67 58 40 28 36 42 47 51 41 43 44 37 67 78 39 46 34 60 55 48 38 38 29 24 22 20 16 19 22 20 17
91 94 94 80 100 94 87 66 63 66 83 71 58 53 54 63 57 51 50 48 31 36 30 34 54 70 58 67 53 38 44 32 45 41 32 26 24 22 18 19 22 20 21 19
89 86 76 95 97 93 74 66 62 54 62 83 68 66 61 58 58 62 54 49 35 32 35 49 63 66 29 54 46 52 37 41 42 36 28 27 28 26 23 22 24 23 22 22
80 96 100 99 96 88 73 73 69 63 52 64 53 52 52 57 58 61 53 51 50 40 55 71 69 39 40 50 56 48 32 36 51 49 29 35 28 23 22 25 26 28 25 27
100 100 100 98 93 89 85 95 72 68 62 57 76 64 55 47 48 51 61 52 55 39 47 65 47 29 37 74 54 24 22 32 29 36 33 33 29 34 28 24 24 27 27 27
100 99 96 86 78 70 76 69 56 64 52 48 58 86 71 55 60 60 61 51 46 59 57 60 52 44 54 66 71 38 29 22 26 30 39 42 35 30 35 33 28 33 28 28
99 93 90 86 82 69 76 83 66 55 51 59 77 88 97 80 95 88 66 70 60 60 61 50 55 49 65 66 39 34 29 29 40 40 44 44 44 40 42 36 37 38 35 34
95 90 87 86 86 90 82 77 64 73 55 70 98 96 100 93 95 96 90 69 78 50 73 69 55 73 80 56 50 48 56 52 55 47 49 48 48 44 45 44 44 42 43 43
90 79 60 78 80 86 74 78 72 56 57 86 100 93 100 94 99 100 99 98 98 93 88 54 68 64 63 68 66 64 61 56 53 59 57 57 57 54 54 50 47 47 50 50
63 68 87 83 87 95 93 86 75 70 85 74 75 86 99 95 98 100 99 100 98 100 99 82 67 69 93 88 84 75 67 60 56 56 54 53 53 57 59 60 58 60 62 67
88 85 86 84 96 100 96 93 97 85 67 70 79 70 75 98 94 86 95 99 100 100 98 99 99 95 89 95 95 89 81 78 71 61 62 59 60 58 65 76 86 92 96 96
84 83 94 89 93 98 99 98 92 90 94 96 98 94 78 86 84 93 88 99 100 100 99 93 93 79 91 96 97 92 87 87 88 90 90 92 92 94 95 96 98 98 97 98
94 99 99 100 97 93 96 98 100 100 100 100 100 100 99 100 100 100 100 100 99 99 93 93 86 87 92 95 95 90 94 94 94 95 95 96 97 97 98 98 99 98 97 98
89 77 94 90 94 94 95 98 100 95 99 100 100 100 98 100 100 100 99 99 91 86 89 88 91 93 93 93 95 95 95 96 96 96 96 96 96 96 96 98 98 97 97 97
77 84 91 87 85 92 90 89 93 90 98 100 100 100 100 97 89 90 94 80 85 89 90 91 92 95 95 95 95 96 97 96 95 96 96 96 95 95 96 96 97 97 97 96
93 93 92 93 89 89 89 90 88 96 100 98 98 93 94 67 77 82 80 91 92 92 91 90 93 94 94 94 95 95 95 94 95 95 94 95 97 95 89 88 95 96 97 97

GFSNW_925_rhum_036.txt.gz
RH
94 96 99 97 100 96 99 95 98 68 69 97 91 91 54 41 30 24 22 19 19 18 19 25 29 25 20 15 16 20 18 24 33 23 15 14 16 20 21 37 36 36 56 35
97 90 92 92 100 100 98 96 96 64 73 93 95 72 65 40 37 31 28 25 20 18 30 60 50 37 22 18 19 21 20 25 39 30 22 18 20 17 21 26 31 42 67 40
91 94 100 97 94 100 99 98 99 94 90 57 66 76 66 53 34 32 25 21 19 21 31 43 63 66 27 26 18 32 34 25 29 42 28 24 25 19 17 28 45 44 45 33
91 82 78 95 100 100 98 98 98 86 96 91 59 55 45 52 43 32 30 26 25 23 34 48 63 64 60 39 32 21 33 34 28 24 19 19 19 19 18 20 36 42 39 36
90 91 80 80 100 99 97 100 97 72 54 72 68 60 56 43 37 33 34 33 23 22 28 40 57 70 68 49 38 29 30 36 33 37 24 19 22 18 16 17 17 17 19 20
85 88 89 82 82 97 96 98 79 62 62 74 77 70 56 48 36 31 25 26 27 28 23 29 53 70 78 73 60 51 37 40 40 46 30 27 35 24 17 16 15 17 23 19
90 88 88 91 91 94 95 95 82 92 75 69 64 55 50 46 38 38 27 24 26 22 47 53 65 79 78 78 56 55 55 41 40 55 61 56 25 16 14 16 15 15 14 13
99 95 90 90 93 91 96 98 83 84 89 59 52 50 48 44 39 41 32 25 18 21 66 81 88 90 78 76 76 60 49 56 58 62 54 33 21 20 21 23 22 16 17 14
96 100 94 97 94 91 88 97 90 82 78 63 42 46 44 53 48 47 39 27 24 28 32 76 95 66 46 72 65 51 55 59 70 63 61 62 36 24 17 16 33 17 15 17
98 100 92 100 96 92 92 84 81 84 93 56 46 52 52 39 46 49 42 37 40 29 74 88 77 52 27 47 61 81 76 83 80 72 65 47 27 20 17 37 36 20 20 19
100 100 99 100 96 95 94 89 92 84 91 67 62 58 58 48 43 53 38 51 62 64 66 75 60 64 42 30 27 72 80 98 82 76 70 68 26 22 30 29 29 23 23 22
95 87 97 95 97 100 85 89 91 73 89 87 58 68 54 55 39 38 40 45 67 80 72 55 53 74 73 47 64 40 70 72 82 73 59 39 31 30 27 26 27 26 24 23
90 100 99 94 99 87 85 90 89 83 88 90 76 65 60 58 52 35 53 46 49 53 61 47 55 60 64 78 56 46 49 41 60 60 48 51 36 32 24 21 26 21 20 23
100 100 95 96 82 83 87 91 84 77 70 98 90 67 62 50 53 66 66 66 55 53 60 56 64 76 41 65 43 58 38 64 50 51 44 46 32 30 31 28 27 24 23 23
99 94 80 87 97 92 97 88 88 55 58 74 81 50 44 46 47 49 58 82 75 93 88 77 66 50 54 50 46 53 29 31 48 54 37 47 41 32 38 37 34 27 28 28
91 83 99 100 91 92 89 96 88 63 62 74 79 47 47 43 45 44 54 69 68 74 72 73 45 36 44 75 58 34 25 26 28 37 39 42 46 39 34 38 38 32 34 29
92 100 93 95 88 77 78 86 73 60 63 65 62 67 64 48 44 48 52 52 78 72 82 68 55 53 46 74 70 38 34 34 34 36 36 40 42 44 39 38 35 31 30 29
100 95 91 84 68 62 72 70 63 60 52 49 65 73 84 71 67 70 56 68 73 65 66 58 64 58 67 80 57 50 47 42 34 42 42 46 48 46 40 39 40 40 39 33
95 92 88 87 86 90 74 65 59 60 60 64 74 82 93 92 75 65 74 72 83 53 76 71 62 74 89 94 88 80 72 66 61 53 52 48 48 47 43 43 45 47 41 40
85 78 73 97 83 68 60 56 59 57 58 70 88 85 97 95 100 98 86 80 78 75 73 55 77 91 80 79 84 83 81 76 61 66 68 64 62 56 52 50 48 47 52 56
82 85 98 89 80 76 76 66 63 57 76 75 77 84 91 93 100 100 97 99 93 97 77 79 81 91 80 77 90 88 82 77 70 64 63 63 61 58 60 64 82 88 86 87
90 82 78 79 82 93 88 82 95 79 78 87 92 91 96 100 97 98 97 100 100 99 84 98 95 95 83 80 85 86 88 85 83 78 81 83 86 86 90 94 95 95 94 93
82 72 88 97 100 99 88 88 82 96 99 100 99 100 100 99 96 100 100 100 100 99 99 93 93 87 86 84 85 84 86 88 88 90 90 90 92 94 94 94 97 96 96 98
94 99 97 98 91 92 96 96 99 100 100 98 99 100 99 100 100 100 100 100 100 98 93 92 92 93 94 94 93 90 94 95 95 96 95 94 93 95 96 97 97 96 96 97
83 69 86 87 94 91 92 98 100 97 95 98 100 99 99 100 99 100 99 93 85 87 91 91 94 94 93 93 93 94 95 95 95 96 95 95 95 95 96 97 97 97 96 96
69 76 88 82 81 83 84 86 92 88 96 100 100 100 99 93 93 79 92 72 88 91 92 93 92 94 95 96 96 96 95 95 95 95 95 95 94 94 96 96 96 97 97 96
88 93 81 83 76 88 89 91 89 90 100 100 85 86 94 71 72 79 79 89 93 93 93 92 94 95 95 95 95 95 95 95 95 95 95 96 97 94 90 92 96 96 97 97

GFSNW_925_rhum_039.txt.gz
RH
88 86 86 85 88 86 98 95 99 83 77 98 95 89 71 54 38 38 41 36 34 36 31 30 28 52 42 39 31 27 23 33 38 30 24 18 21 24 28 65 53 54 68 47
91 90 91 88 91 92 98 97 97 82 75 96 95 72 71 62 61 46 40 40 33 32 34 37 58 55 47 54 59 46 26 31 40 35 24 22 23 23 24 31 50 53 66 56
91 88 89 90 92 90 100 98 99 99 93 66 72 75 73 75 53 60 46 40 36 36 40 32 54 59 50 60 61 70 55 28 33 41 32 30 32 30 25 28 59 53 62 44
92 94 95 90 92 94 100 99 98 86 95 94 77 64 59 68 72 50 46 46 44 42 45 38 46 51 62 52 64 67 62 47 29 24 26 27 28 29 30 28 32 44 46 44
87 94 94 84 84 97 98 99 99 88 68 77 82 71 69 62 54 50 50 45 39 39 44 37 40 54 74 76 76 76 64 60 42 42 25 25 29 30 29 25 26 33 33 35
80 83 84 80 78 91 95 95 91 71 75 81 94 81 71 64 56 48 41 40 42 44 41 40 62 64 70 81 73 85 88 78 50 48 37 34 48 35 27 27 24 23 41 34
86 84 82 80 76 93 94 96 91 96 96 82 86 70 66 63 56 56 42 39 42 34 38 69 75 79 80 81 84 79 92 95 75 71 60 68 35 25 25 27 23 20 18 18
98 97 91 84 73 95 98 97 98 97 97 81 69 71 64 58 53 54 48 42 34 28 49 68 70 93 82 82 77 86 81 98 97 76 58 52 45 27 27 28 27 21 20 18
100 99 98 96 86 81 98 99 93 96 97 95 54 64 60 65 64 61 55 40 38 35 51 74 77 87 77 68 74 68 88 92 100 96 69 72 47 33 22 21 40 20 23 25
94 96 100 100 98 90 94 90 93 94 100 85 62 60 61 50 56 62 52 52 54 45 75 81 84 83 63 79 82 98 98 99 98 95 95 70 37 26 22 40 43 27 24 25
94 94 95 97 99 91 96 89 96 89 97 88 67 58 55 49 52 66 58 62 61 72 80 84 87 94 78 61 59 80 88 95 98 99 92 82 54 34 35 38 32 29 27 22
99 95 92 96 100 100 95 96 95 78 95 96 65 60 50 41 40 50 56 52 56 72 73 76 81 80 76 50 58 59 91 75 90 87 89 64 47 54 58 50 44 38 24 23
98 81 79 96 100 99 97 88 96 94 89 95 97 81 65 59 52 56 85 63 62 85 80 86 77 67 74 80 73 68 51 59 73 59 52 56 48 53 52 66 56 45 30 29
94 99 99 100 98 98 97 84 90 79 87 100 96 73 63 59 52 57 58 62 58 77 78 78 94 87 58 83 59 68 65 62 66 68 53 51 45 56 64 66 59 53 46 39
84 87 94 99 94 99 84 77 90 83 90 97 95 71 57 56 45 64 60 75 78 90 88 95 79 76 76 75 72 66 49 65 79 86 58 60 48 55 57 52 71 58 50 50
97 93 92 97 98 80 93 100 94 87 74 84 100 67 62 48 49 75 76 84 80 93 93 92 74 54 73 82 74 50 36 42 36 44 42 38 37 41 40 43 44 45 44 42
96 91 92 93 87 79 90 91 85 72 85 84 89 88 81 71 55 64 77 76 85 92 91 94 79 71 71 92 86 86 80 67 54 60 58 55 55 56 51 47 47 49 44 37
99 94 98 92 84 78 83 82 76 75 65 75 91 97 89 88 86 81 76 84 85 93 96 92 85 70 81 98 89 84 81 78 74 69 62 60 54 53 53 50 52 53 55 49
99 91 81 85 85 92 76 62 58 55 66 90 94 93 99 94 92 85 83 86 94 79 97 94 89 98 98 98 94 94 90 90 83 72 70 66 71 68 58 62 68 67 74 69
72 70 90 98 85 61 52 53 75 77 80 84 96 90 100 97 99 100 93 97 94 98 88 86 95 99 100 96 92 87 89 86 79 88 94 88 86 81 91 88 84 82 82 80
83 95 98 82 76 79 86 87 84 76 89 89 87 94 99 96 100 100 95 97 96 88 86 85 98 94 93 76 91 94 88 90 94 80 84 86 89 92 94 94 92 91 89 91
86 83 81 79 82 92 84 96 90 89 90 92 96 96 95 99 96 99 99 90 98 96 96 91 96 96 91 87 88 88 89 88 89 88 93 92 92 93 94 95 95 94 96 96
79 83 96 98 99 96 92 78 91 98 99 100 100 100 100 99 99 100 98 99 99 98 96 96 96 91 87 90 88 90 91 90 88 90 89 89 91 93 91 92 96 94 95 97
92 94 93 93 93 97 98 98 98 99 99 98 99 100 100 100 100 100 98 100 99 97 96 95 96 96 96 95 95 90 95 95 94 95 94 94 94 95 95 96 96 94 95 97
88 84 97 96 98 95 98 97 99 99 99 98 99 100 100 100 98 99 98 96 96 95 96 96 96 96 96 96 96 96 95 95 94 94 94 94 94 92 95 96 97 96 96 96
82 89 93 92 93 92 94 95 97 94 98 99 100 99 98 98 95 89 97 86 95 96 96 97 95 95 96 96 96 96 95 94 94 94 94 93 93 94 96 96 96 97 96 96
88 98 95 98 95 98 98 97 94 96 99 98 97 94 97 91 93 93 94 96 96 96 96 95 96 96 96 95 94 94 93 94 94 92 92 96 95 85 84 90 97 97 98 98

GFSNW_925_rhum_042.txt.gz
RH
86 87 86 85 84 83 96 96 100 86 88 98 88 88 70 55 54 46 48 48 46 40 39 40 33 38 36 55 49 56 46 37 42 33 23 24 24 25 32 49 53 63 71 46
90 89 88 86 84 87 96 98 97 96 79 94 92 70 67 62 61 53 51 50 46 36 39 46 41 45 58 58 60 73 67 70 54 42 31 28 30 26 25 40 59 62 71 52
93 92 91 88 85 85 100 99 99 99 94 74 72 74 68 68 56 62 60 60 54 48 48 43 50 50 50 54 66 78 73 74 66 60 38 32 33 27 26 30 61 50 56 40
95 92 91 89 88 90 99 99 97 91 97 94 83 69 65 69 69 60 57 66 59 58 62 49 49 44 63 54 75 71 79 94 82 69 50 30 28 30 33 33 37 47 40 47
96 96 95 95 94 94 98 100 98 94 81 80 88 77 75 68 64 57 62 70 48 52 61 52 58 48 47 66 73 71 80 94 88 78 52 38 31 26 30 29 34 37 33 37
97 94 91 93 94 98 96 91 92 84 80 92 96 86 74 66 60 56 50 51 56 53 46 43 52 61 68 67 74 88 85 94 98 89 64 48 50 32 26 34 31 31 43 38
87 84 84 86 85 99 96 96 91 98 97 96 90 69 68 66 60 66 52 54 59 46 36 70 68 74 81 83 76 71 92 92 99 97 80 93 44 27 23 30 30 28 26 24
81 80 86 74 71 86 99 96 98 96 96 93 76 72 66 64 58 63 58 50 44 42 44 73 77 90 81 88 86 85 76 91 100 93 95 70 45 37 33 35 32 27 28 23
92 92 86 89 84 76 98 98 95 97 99 94 71 71 68 73 74 69 61 49 43 46 58 79 76 87 70 80 88 82 86 86 86 98 88 96 58 37 30 27 47 27 24 25
100 99 99 97 92 89 96 96 97 95 100 90 79 73 72 60 66 70 63 59 60 52 80 79 80 72 63 76 92 93 98 99 97 95 94 86 65 54 35 51 49 37 26 29
92 86 86 96 98 94 98 92 100 95 99 90 86 68 65 62 61 69 63 64 70 80 79 85 83 92 81 71 67 86 85 95 98 93 98 94 65 58 61 68 66 61 57 31
91 97 100 97 100 98 91 95 100 96 92 94 83 72 62 54 45 51 61 58 59 69 82 85 85 84 90 78 85 65 81 72 84 82 74 62 65 66 55 64 73 67 66 57
89 85 100 100 98 100 99 95 100 97 94 88 88 89 63 62 68 39 68 71 61 82 79 87 82 69 85 84 70 47 52 62 77 82 58 59 56 53 64 55 62 62 58 58
92 85 99 99 98 98 100 97 98 78 90 98 90 70 83 63 54 57 48 59 70 75 87 84 91 86 66 80 56 75 68 68 68 70 58 51 51 47 59 50 60 60 55 58
95 93 95 94 99 96 100 98 95 66 77 92 96 81 78 64 56 58 57 73 73 92 94 97 87 84 76 82 79 69 74 77 83 78 50 46 45 43 50 44 55 56 60 63
90 81 84 84 89 100 97 99 94 65 71 92 98 83 82 74 65 69 82 87 89 89 95 95 87 66 62 87 85 89 87 84 83 85 74 61 55 43 53 51 49 58 57 53
96 98 95 99 100 96 90 90 84 85 85 99 99 99 84 82 80 90 89 89 97 93 94 98 87 78 68 94 98 88 84 84 81 76 73 68 65 66 60 55 53 51 50 53
100 99 99 96 87 76 86 87 84 80 97 86 94 100 95 88 88 89 95 91 89 94 96 96 94 84 94 97 97 87 86 84 82 81 77 79 74 70 73 71 68 74 75 72
88 86 86 88 88 96 97 83 76 85 85 92 94 96 98 92 99 89 87 89 93 92 98 98 94 95 97 95 90 89 89 96 95 79 82 81 86 86 82 78 77 79 79 77
96 89 94 99 100 97 76 71 78 76 82 89 97 94 99 94 100 99 93 99 97 94 94 95 97 97 92 90 93 93 92 96 96 96 95 94 94 93 92 92 86 85 85 85
79 95 99 88 79 76 84 90 85 82 88 91 94 95 96 93 96 99 97 97 98 91 89 93 97 94 93 85 84 87 87 88 92 96 98 97 93 94 94 94 92 90 89 89
80 80 83 78 90 88 86 95 90 90 96 98 97 97 97 100 95 99 99 91 93 97 93 92 94 94 91 86 88 88 88 86 86 84 88 89 88 92 90 90 91 93 94 92
76 88 93 87 91 88 92 82 97 98 99 99 99 99 99 98 99 100 97 84 97 94 92 97 95 91 86 89 87 90 90 88 89 91 92 89 91 92 92 92 95 94 94 96
87 85 90 92 95 97 98 97 98 99 99 97 99 99 100 100 100 100 98 99 91 94 94 95 94 93 93 93 92 85 94 94 94 95 94 94 94 95 96 96 96 94 95 97
89 84 99 96 97 96 98 98 98 99 100 99 99 100 100 99 98 97 93 94 96 94 98 97 96 96 95 95 95 95 95 95 95 95 94 95 95 94 95 96 97 96 96 96
85 90 94 94 93 92 96 95 96 98 98 99 99 99 97 98 96 88 96 85 96 97 96 96 95 95 95 96 96 96 95 95 95 95 95 95 94 94 95 96 96 97 96 96
90 97 99 100 100 99 97 97 95 97 99 98 96 95 96 93 94 90 91 96 95 95 95 95 95 95 95 95 93 93 94 94 94 94 94 96 94 85 85 90 96 97 99 99

GFSNW_925_rhum_045.txt.gz
RH
84 81 85 87 80 80 86 96 100 98 89 99 98 85 61 51 52 49 50 54 55 52 44 41 34 37 31 57 52 69 63 51 54 38 26 25 27 32 37 44 48 69 68 38
80 77 82 82 84 84 95 100 98 100 86 97 95 70 67 60 64 59 56 58 55 38 42 45 43 40 56 56 68 61 54 78 79 51 35 31 34 30 30 45 54 44 59 40
84 83 85 84 87 88 98 99 99 99 98 83 71 84 74 72 59 63 62 66 61 52 54 47 49 49 44 63 64 76 72 79 85 94 90 75 66 48 31 35 55 49 46 37
82 79 85 89 89 92 99 99 98 94 97 97 82 68 64 70 68 60 59 61 66 68 76 58 56 46 54 57 74 67 70 76 91 86 63 55 58 57 48 38 34 42 38 45
82 84 94 92 94 97 99 100 99 97 91 87 96 84 77 67 59 56 66 77 65 62 65 58 56 50 46 58 62 63 77 73 86 86 54 55 58 52 50 42 34 42 36 41
91 96 96 93 94 98 97 95 92 93 97 98 97 86 77 75 60 60 52 61 64 67 59 56 50 51 48 55 64 84 88 92 91 84 75 62 56 62 48 38 30 36 42 35
99 100 97 90 93 98 97 88 86 97 96 96 87 72 71 72 64 66 59 55 63 53 46 54 74 86 87 83 81 79 96 92 97 97 81 72 33 47 35 44 33 28 30 30
97 96 91 89 92 96 99 96 90 96 94 91 85 77 70 66 62 65 60 55 52 47 54 69 75 88 87 97 89 83 78 91 94 94 95 64 43 40 46 73 72 43 31 28
98 90 87 87 88 92 100 97 96 97 96 93 83 94 74 93 77 73 66 54 48 50 66 93 96 86 70 93 90 84 82 82 86 98 94 82 26 40 45 61 80 49 59 43
79 79 85 87 84 76 97 98 96 98 100 91 72 88 91 78 72 77 68 63 63 59 90 98 97 89 60 77 96 98 99 99 93 94 94 84 59 54 60 93 79 70 67 69
88 89 91 86 90 89 93 95 100 96 100 92 84 78 70 70 70 83 73 71 75 83 89 94 95 95 77 71 78 88 90 96 96 87 99 91 52 77 76 81 68 71 67 67
100 98 94 92 98 98 99 91 98 100 97 93 72 71 70 71 51 56 62 60 73 65 84 94 89 91 94 78 84 71 85 75 88 82 79 59 67 64 64 63 71 69 72 63
91 93 96 90 90 94 99 96 100 99 98 98 93 84 69 61 61 50 71 72 60 77 78 90 84 84 87 87 86 66 65 64 75 77 52 52 49 54 58 58 69 61 59 67
87 84 86 93 89 91 99 98 99 90 97 100 88 64 62 57 65 62 66 60 70 78 85 84 89 96 71 84 61 74 59 63 66 63 57 57 49 54 56 60 60 62 61 61
89 88 86 85 88 98 100 100 99 88 75 90 85 85 73 58 55 71 62 77 73 82 85 96 88 80 77 88 77 74 92 88 94 85 85 90 68 53 58 61 53 54 65 55
85 92 94 84 89 99 99 100 100 83 60 80 100 86 86 78 80 76 79 75 84 86 89 95 93 71 78 92 98 87 82 81 84 93 85 85 81 67 67 65 66 62 66 65
92 93 94 98 99 100 93 90 92 88 72 91 99 99 91 84 83 84 88 88 89 86 85 96 96 89 86 90 94 86 81 80 82 84 84 88 82 86 73 73 72 65 67 70
87 95 99 100 99 89 90 93 91 84 92 96 99 99 99 92 98 96 95 99 97 95 94 96 98 97 94 96 87 82 79 85 83 89 79 85 83 80 77 73 72 76 78 76
100 99 99 95 90 95 100 98 87 72 92 100 99 98 99 98 99 97 98 95 99 96 100 98 96 97 96 95 91 88 88 95 95 94 81 84 89 87 86 84 84 85 85 80
90 83 94 100 100 84 95 96 99 100 99 95 99 94 99 93 98 100 95 99 98 99 96 92 96 97 93 89 85 89 92 98 94 96 95 95 94 91 92 91 86 85 86 83
85 97 100 98 98 94 97 99 99 99 96 93 96 94 98 92 96 98 97 98 97 96 98 92 97 92 89 88 86 89 91 91 94 96 94 91 88 88 87 88 86 86 87 89
80 83 85 82 85 85 88 96 92 90 95 95 98 100 94 99 94 97 96 96 92 99 99 88 93 93 88 94 91 93 95 94 94 91 90 92 88 89 90 88 90 92 95 95
66 77 77 78 87 87 91 86 96 98 99 98 99 96 99 98 98 99 95 92 99 87 95 94 95 90 86 87 83 86 87 90 91 92 93 90 91 94 93 92 96 95 95 96
85 83 92 92 94 97 97 97 98 98 99 98 98 99 99 99 99 100 97 98 85 95 96 99 96 93 93 91 91 84 93 92 91 93 92 93 93 94 95 96 96 95 94 96
88 82 99 96 96 96 97 98 97 97 98 99 99 99 96 98 97 96 93 92 98 95 98 97 96 96 93 93 93 93 94 94 94 94 92 93 94 93 95 96 96 96 96 96
85 89 93 94 94 94 95 96 95 96 97 99 98 98 95 98 96 87 97 86 99 97 97 96 93 94 95 95 94 95 95 95 95 95 95 95 95 94 95 96 96 97 96 96
89 97 95 100 97 98 96 97 95 96 98 98 96 93 98 89 90 92 91 98 95 95 95 95 95 94 95 95 95 95 95 94 94 93 94 96 95 88 86 90 96 97 100 100

GFSNW_925_rhum_048.txt.gz
RH
90 90 91 94 88 83 92 96 100 92 99 99 100 93 68 48 52 51 58 58 61 56 51 46 34 38 52 65 62 60 60 55 57 41 31 28 29 32 42 59 50 72 72 45
90 89 92 94 78 85 91 99 99 95 97 98 97 89 72 59 66 62 60 63 62 48 43 45 44 50 53 51 69 65 60 76 84 52 37 60 59 44 52 47 54 56 70 51
86 86 92 94 75 77 96 100 99 97 98 88 79 96 91 74 60 64 63 70 61 58 63 48 55 55 43 57 63 78 64 79 70 90 81 77 79 63 55 61 65 54 48 42
87 86 90 93 82 79 96 99 99 97 97 97 92 78 69 79 68 58 60 68 72 72 76 68 54 48 49 40 64 63 64 70 82 77 73 68 60 56 54 55 63 64 52 44
82 89 91 83 78 79 99 100 99 92 91 82 97 93 92 72 64 57 68 78 70 67 77 65 64 53 49 50 48 65 73 71 86 89 72 67 62 55 52 52 54 57 50 45
86 88 88 84 81 86 97 97 90 96 80 97 96 91 80 82 58 58 51 64 69 72 63 61 61 58 58 58 60 71 83 86 88 77 72 64 73 58 50 48 41 48 58 50
90 90 87 85 84 89 98 97 91 100 96 90 91 82 79 76 68 66 60 54 71 58 51 54 61 68 68 68 67 74 84 86 96 96 81 82 42 47 44 47 49 54 52 46
87 88 86 84 89 88 100 98 88 95 95 84 94 90 94 69 63 70 62 61 49 51 54 89 84 89 96 86 82 78 80 93 97 97 96 69 47 39 39 55 30 46 40 52
90 86 86 96 94 95 100 99 97 96 100 94 69 98 95 95 90 74 68 52 48 50 74 92 97 92 68 92 79 85 87 78 85 93 97 86 41 48 58 56 60 67 74 77
97 98 98 91 89 94 100 97 98 97 100 86 75 89 96 85 83 86 78 70 71 59 95 97 96 92 65 82 76 97 98 99 95 81 95 79 62 54 59 67 57 67 62 70
96 94 94 97 96 97 100 96 100 96 100 95 85 74 82 92 84 97 77 83 86 97 99 96 95 98 80 74 79 91 89 96 91 85 97 87 53 70 64 58 64 62 61 69
86 86 83 79 79 86 95 97 99 100 98 97 84 76 65 60 59 58 64 67 78 77 91 93 89 94 95 80 89 78 87 78 88 82 76 59 64 69 65 64 68 64 68 62
93 92 92 85 86 86 93 97 100 99 99 99 98 90 65 65 68 59 78 73 64 73 78 92 88 80 90 89 89 73 74 65 81 76 57 59 54 54 52 61 67 63 57 54
92 95 99 96 94 88 94 98 99 93 97 100 94 75 75 60 63 61 65 59 71 76 82 82 92 90 74 87 67 77 66 69 72 66 54 69 51 63 79 70 64 62 61 55
85 87 87 90 94 94 98 100 100 84 76 95 86 84 66 60 72 73 72 70 76 88 91 96 88 84 79 86 82 79 88 90 88 82 97 94 91 81 77 78 83 78 67 65
85 86 81 80 84 87 100 100 100 87 63 87 98 81 86 70 59 67 77 78 89 83 94 92 85 76 70 94 100 92 84 78 80 92 86 92 87 83 75 76 73 71 74 68
90 91 86 81 83 99 95 92 92 96 78 98 95 94 89 85 86 86 85 82 92 93 91 96 90 89 86 97 98 94 90 94 88 81 87 88 85 92 78 75 71 69 68 69
86 94 88 86 99 100 95 94 97 89 93 97 99 98 98 90 98 94 94 97 92 97 99 98 93 97 96 99 89 84 76 78 82 88 85 86 82 78 80 75 74 78 81 78
100 100 98 99 95 98 100 100 91 77 89 99 99 98 98 95 97 97 96 95 99 96 99 98 90 97 97 96 92 87 88 88 91 85 88 82 85 85 83 82 84 86 86 82
93 86 94 100 99 99 89 92 98 98 98 99 100 99 100 96 100 100 98 99 99 99 100 98 96 96 92 90 91 94 91 85 87 88 91 91 89 88 88 88 84 83 84 82
92 98 99 98 93 89 98 99 98 100 99 100 100 100 100 98 99 99 98 99 99 98 100 92 96 94 90 89 81 85 83 83 88 92 95 91 90 88 85 88 85 84 85 87
94 97 93 85 95 97 98 98 99 99 96 100 100 100 98 99 93 96 98 97 94 97 96 94 96 95 92 93 86 87 92 90 91 92 93 94 90 93 86 90 90 92 94 95
60 75 82 78 87 87 91 95 96 97 98 97 99 99 100 97 97 99 92 94 97 90 94 94 96 89 82 87 88 90 91 93 92 93 93 93 93 92 92 92 96 95 95 96
83 82 92 91 95 97 97 98 97 97 98 97 98 96 99 99 97 99 96 97 85 94 95 97 95 92 90 92 92 85 94 93 93 94 93 94 93 94 95 96 96 94 94 96
89 81 99 96 96 96 97 97 98 97 98 98 99 98 93 98 96 96 92 90 100 96 98 98 96 96 94 94 95 95 94 94 94 94 93 94 94 93 95 96 96 96 96 96
84 89 93 93 94 92 95 96 97 96 96 99 98 97 92 97 95 87 99 88 98 97 98 96 94 95 95 95 95 95 95 94 94 94 94 94 94 94 96 96 96 97 97 96
89 97 96 97 97 97 97 97 94 96 97 97 94 92 98 83 90 92 93 99 97 96 95 95 95 94 95 95 94 94 94 94 94 95 95 96 96 94 89 91 97 99 100 100

GFSNW_925_rhum_051.txt.gz
RH
88 81 86 89 92 86 95 86 91 74 99 96 100 98 92 53 49 50 50 59 58 60 50 47 41 41 58 46 65 63 62 50 50 35 30 30 30 36 38 49 45 59 59 41
83 83 82 92 92 91 92 95 82 70 99 94 91 99 94 61 61 59 60 67 64 56 52 50 42 48 46 42 61 70 63 67 68 53 42 53 61 59 55 58 55 53 57 40
84 78 82 89 81 76 98 97 100 95 97 84 86 96 86 79 60 57 62 67 62 60 62 54 54 50 43 47 52 78 61 64 66 63 62 65 66 52 47 51 67 58 53 46
84 83 91 87 82 73 92 96 95 83 98 91 96 90 96 79 69 57 56 70 67 69 72 65 57 49 47 42 49 62 61 60 62 49 52 62 57 50 45 51 48 55 42 46
72 89 88 89 88 93 98 100 100 98 87 86 98 96 99 80 69 60 66 69 66 65 70 60 56 56 48 50 48 71 60 68 78 76 66 59 62 52 47 46 44 43 48 50
86 94 95 86 91 91 88 86 98 97 85 79 93 80 84 87 64 60 50 63 75 79 65 60 58 57 55 54 60 60 64 82 79 68 71 60 61 58 48 39 33 36 38 27
89 85 81 82 84 89 88 92 98 99 92 94 82 73 91 76 68 74 62 58 80 58 50 56 61 66 67 64 64 58 70 82 91 86 80 71 36 42 40 43 38 33 36 40
82 83 81 83 83 82 98 88 98 99 89 80 76 74 81 96 75 75 77 66 54 60 73 86 80 80 85 80 75 74 63 81 89 87 79 55 39 34 32 40 30 45 56 55
82 83 77 74 67 75 92 95 97 97 100 85 64 75 75 94 100 99 88 70 66 61 98 97 88 83 72 80 73 82 85 74 86 92 76 76 43 53 53 47 47 48 56 49
94 95 94 92 79 81 89 91 99 97 99 86 70 74 87 96 91 91 86 81 94 78 99 91 85 76 66 70 72 80 88 96 90 92 86 68 49 43 51 55 41 46 53 48
96 98 100 99 97 93 96 96 99 96 100 95 73 63 80 87 98 98 81 94 95 99 96 90 86 88 73 62 72 75 71 77 81 79 94 84 47 63 62 45 52 53 50 52
98 94 95 100 95 88 95 96 100 100 98 96 81 70 66 62 70 73 78 69 83 87 84 85 78 88 86 70 71 75 78 68 72 71 65 54 55 59 57 59 64 59 59 52
93 89 97 98 96 93 98 98 100 99 100 99 96 94 79 74 70 60 85 71 70 77 75 85 82 79 79 84 77 69 71 65 70 68 51 50 47 51 73 67 74 70 64 59
95 95 89 93 96 97 99 98 99 95 98 100 99 89 81 75 72 76 68 63 69 76 84 88 88 83 67 75 61 70 56 66 69 65 53 62 54 79 79 72 68 67 65 66
96 97 97 87 84 86 99 98 100 95 85 95 89 84 75 66 71 74 76 69 73 82 92 100 98 79 80 82 76 69 66 66 74 65 90 90 80 72 76 75 74 68 70 74
84 86 88 95 95 98 99 100 100 92 78 99 98 76 81 74 79 79 76 79 79 83 98 99 86 71 76 88 82 82 82 80 81 82 84 82 81 77 75 77 73 69 69 70
83 81 81 86 89 100 96 95 92 89 78 99 91 81 82 79 75 82 85 79 88 94 98 98 96 89 79 100 92 89 75 75 75 87 86 83 85 88 75 74 69 68 69 74
82 78 79 83 93 99 97 93 99 86 96 96 97 94 98 85 94 94 89 97 96 98 97 98 91 93 97 100 89 78 74 74 75 80 81 94 89 77 76 72 70 74 77 76
84 81 85 99 95 98 99 98 94 85 89 98 95 95 91 97 92 93 95 86 100 92 99 100 98 97 97 94 89 86 84 86 86 78 74 84 85 81 80 78 77 79 81 78
100 94 95 100 99 99 97 97 92 98 94 98 94 92 98 96 97 99 95 98 100 100 100 91 92 93 90 86 84 84 83 81 81 84 83 82 84 84 85 87 83 81 79 84
90 100 98 98 95 93 97 100 96 100 98 93 92 95 96 98 100 98 96 98 99 99 100 94 91 89 89 78 76 78 82 81 86 90 92 91 91 90 91 89 88 90 91 89
95 94 88 86 87 97 94 98 97 97 94 100 98 99 99 99 99 100 97 97 97 95 92 84 92 89 81 79 80 81 83 85 88 88 88 90 89 92 91 90 89 92 93 94
44 72 76 74 83 86 91 97 96 95 95 96 99 100 100 100 98 100 92 92 94 79 87 90 89 83 76 77 75 82 87 91 86 91 93 93 93 93 92 91 96 94 94 96
80 78 88 89 93 94 96 95 95 95 96 96 98 100 98 97 92 94 90 96 80 90 89 93 87 85 86 84 85 81 91 90 91 93 93 93 93 94 95 96 96 94 94 97
83 78 99 95 95 94 94 95 95 92 94 97 99 93 88 93 91 90 86 86 94 89 93 92 91 91 88 90 92 92 92 94 94 94 94 94 94 94 94 96 96 96 96 96
82 88 92 93 94 94 95 96 95 91 94 96 91 93 91 94 90 84 98 82 93 93 93 90 89 92 93 94 93 94 94 94 94 94 95 95 94 94 95 96 97 97 97 97
89 96 95 95 95 95 95 96 92 93 95 96 90 90 98 70 83 90 87 94 94 94 93 91 92 92 93 94 93 94 94 94 95 95 95 95 97 96 89 88 94 95 98 100

GFSNW_925_rhum_054.txt.gz
RH
74 56 79 80 82 61 86 75 84 80 96 99 84 87 53 47 41 37 39 42 47 48 44 43 37 32 37 36 39 44 28 36 39 29 28 24 24 27 28 35 37 35 42 29
80 80 80 86 82 67 83 72 67 74 91 94 89 71 71 54 45 41 42 45 48 42 47 49 35 31 31 34 40 58 49 36 35 32 30 30 34 35 33 36 38 39 51 33
85 73 83 87 70 70 90 79 88 78 84 78 75 63 69 61 50 45 43 42 48 52 51 41 41 36 30 32 35 65 53 45 39 30 30 33 50 42 37 39 47 38 36 31
82 84 72 74 83 68 87 91 87 54 90 76 70 68 77 58 57 48 43 47 47 51 66 49 47 37 35 30 37 44 50 60 42 38 37 35 37 38 35 38 38 44 33 31
77 75 84 70 89 88 90 99 80 75 57 55 66 64 76 61 58 56 52 51 48 50 64 56 47 44 42 42 36 45 46 42 42 40 32 41 44 34 31 30 29 30 29 30
86 91 84 80 88 91 76 83 76 94 56 55 59 60 63 52 57 54 44 47 51 70 56 48 45 45 48 47 48 52 50 57 47 38 46 39 39 36 31 28 24 23 25 19
86 80 84 72 85 87 78 83 81 93 84 73 56 48 45 49 51 63 51 59 65 59 50 45 46 50 51 52 50 46 51 65 64 50 66 55 22 29 29 30 24 20 20 20
85 83 90 90 97 86 92 79 95 100 83 49 46 49 48 45 54 88 94 59 58 64 90 90 66 62 67 62 52 49 47 56 69 67 53 34 31 21 23 27 19 26 29 29
85 85 86 86 86 83 87 89 83 83 96 82 39 47 47 58 58 68 91 84 73 87 100 98 72 62 50 63 61 43 50 51 61 70 56 56 30 36 35 33 33 32 34 36
85 83 77 77 79 77 82 80 85 88 95 72 59 62 55 57 76 90 95 97 98 93 100 87 69 60 50 61 64 83 76 69 74 63 72 47 31 26 33 54 52 39 36 35
82 81 82 82 83 81 82 82 84 90 91 92 68 52 58 56 71 91 85 98 99 100 97 75 65 62 48 47 51 64 69 68 70 57 72 77 32 37 45 58 44 41 38 38
84 84 85 89 89 87 89 88 81 90 94 95 66 59 54 45 45 72 95 75 87 72 69 58 56 65 59 44 53 45 66 44 48 44 46 40 40 46 43 51 55 54 57 52
88 86 93 99 98 95 100 89 80 95 97 99 89 73 63 62 58 65 97 80 69 72 49 71 62 74 50 63 50 40 39 37 52 48 37 36 32 40 56 56 59 55 52 55
93 96 98 98 96 99 100 96 90 93 98 98 94 71 69 64 68 69 74 69 66 65 70 72 74 70 45 52 43 46 35 38 47 42 34 31 34 55 62 61 58 57 53 53
97 99 98 95 97 97 100 99 98 98 81 96 78 84 75 67 73 73 74 83 81 80 98 100 97 60 62 57 57 47 34 39 50 47 58 63 57 54 64 64 65 60 60 58
93 96 96 95 97 99 99 100 100 98 86 96 86 61 74 71 73 70 70 85 90 92 97 99 73 64 75 72 57 39 63 63 66 64 67 65 59 56 64 66 62 59 59 59
89 94 94 99 97 99 97 90 92 99 97 91 74 64 70 63 68 74 86 72 74 83 96 98 96 82 67 97 77 77 67 63 61 70 81 73 84 78 68 66 63 61 59 62
84 88 85 94 98 100 96 92 100 99 96 87 83 78 83 64 74 76 68 79 82 97 100 98 90 71 96 100 83 65 59 58 58 68 65 72 76 78 73 69 66 64 67 66
80 83 97 100 97 97 97 96 99 90 93 96 84 81 81 71 67 60 75 90 100 96 100 99 82 100 100 92 80 76 76 74 70 62 58 72 81 82 83 83 82 73 76 75
94 97 97 100 100 99 97 97 99 100 96 80 77 68 94 98 83 74 76 73 80 99 98 100 100 92 83 72 73 75 72 70 69 75 68 70 77 75 81 86 85 81 85 84
95 98 100 100 88 88 96 100 94 98 97 85 74 80 90 87 98 85 76 90 94 84 98 93 90 87 83 64 66 68 70 69 72 76 80 80 81 79 79 83 85 88 88 87
93 95 98 92 97 99 92 90 96 84 80 97 94 84 80 93 92 97 91 94 96 86 82 89 86 85 71 69 72 73 73 74 77 77 84 89 84 86 84 86 87 90 93 94
58 58 77 62 72 87 85 91 92 91 90 94 100 100 100 99 100 99 98 100 92 74 89 85 82 70 67 68 66 71 73 75 77 84 90 88 87 90 89 89 94 94 92 95
59 68 80 78 83 84 85 85 86 87 88 92 98 100 100 100 99 97 92 91 80 90 89 86 81 78 78 77 77 73 84 87 86 87 89 90 91 92 95 95 96 94 92 96
71 66 90 86 84 83 86 85 85 82 87 94 99 96 96 90 88 87 87 87 90 81 84 82 81 82 81 84 85 88 90 91 91 92 91 92 93 90 92 96 97 96 96 96
67 76 83 84 82 88 85 88 88 84 91 93 80 82 83 88 80 79 89 77 83 84 83 83 80 86 88 89 90 90 91 91 91 92 92 93 93 91 92 96 96 96 96 94
74 86 84 83 83 86 87 88 87 85 90 92 76 82 92 62 74 82 76 86 85 86 88 85 87 88 90 91 90 91 91 90 91 90 89 90 93 93 88 84 86 85 88 90

GFSNW_925_rhum_057.txt.gz
RH
89 77 74 62 72 79 84 60 92 48 64 94 76 77 42 35 28 26 29 30 35 38 35 37 34 31 29 35 40 54 31 34 35 39 21 21 22 27 32 36 43 30 38 33
80 80 87 84 80 84 79 66 64 47 74 85 74 50 44 37 33 30 30 31 29 28 35 41 32 29 26 28 38 54 51 37 42 36 30 26 27 25 25 28 30 50 55 36
92 77 73 67 77 82 90 80 92 53 79 66 61 52 55 49 36 33 27 28 27 36 38 33 38 32 26 27 31 53 54 51 34 36 33 23 32 30 28 30 42 39 40 32
85 86 90 87 86 83 93 82 82 56 75 56 61 54 64 48 50 35 29 34 32 34 40 35 39 36 30 26 38 35 64 65 51 28 32 30 28 32 32 33 31 37 31 30
82 82 78 81 82 78 98 98 72 48 51 49 46 49 66 56 45 41 40 38 31 32 38 36 43 38 45 42 30 35 55 74 56 56 32 32 36 31 28 26 24 26 24 24
91 91 76 73 71 88 98 70 63 79 58 48 55 56 41 39 35 42 44 36 38 42 38 38 44 44 56 46 44 45 44 50 73 72 40 36 41 34 30 29 25 26 30 21
89 88 87 76 74 88 92 87 61 84 74 50 49 38 50 43 38 38 39 39 52 41 44 43 41 42 42 41 41 40 48 45 46 64 52 82 28 21 20 24 21 18 17 16
89 91 91 81 71 87 96 96 83 76 86 45 39 49 47 32 38 49 44 50 68 68 67 69 62 60 61 63 41 42 40 47 56 54 49 32 22 20 21 22 18 16 17 23
84 84 73 76 84 90 95 98 91 82 81 63 40 36 31 45 46 45 54 52 71 87 96 100 77 65 50 50 46 37 39 44 58 56 56 49 26 21 25 21 25 24 28 31
84 84 78 76 86 93 88 97 89 84 96 51 50 79 60 43 47 54 65 74 86 92 100 93 80 64 45 60 63 59 58 56 63 56 53 35 20 23 22 43 44 35 32 32
87 85 84 83 85 85 92 81 77 84 86 56 45 42 51 61 62 85 75 97 98 100 100 70 60 61 48 42 53 50 53 64 64 56 63 58 24 26 37 54 40 39 39 41
94 86 83 82 74 75 78 78 62 78 87 57 60 51 43 52 48 63 85 73 90 62 72 53 64 65 58 45 53 53 58 43 47 40 42 34 28 43 46 44 45 45 46 43
97 89 83 79 78 78 84 76 64 80 96 90 69 63 50 56 53 49 95 72 78 71 47 77 66 69 54 65 45 48 39 52 46 60 32 42 30 40 44 44 47 44 42 43
94 90 85 86 80 78 88 92 73 82 77 88 60 54 61 49 54 54 65 63 61 71 77 84 79 73 43 56 44 43 33 36 36 40 34 30 27 45 52 48 45 46 44 46
89 87 87 86 84 85 97 99 89 81 62 79 67 48 60 57 53 55 67 76 81 95 92 98 90 56 54 51 50 51 31 34 46 46 53 51 43 45 50 51 51 50 53 52
88 88 88 91 96 98 100 100 99 90 80 79 92 60 58 61 59 58 67 81 93 96 96 90 63 55 62 79 61 36 47 47 53 58 62 60 53 49 55 58 56 54 53 53
88 92 96 97 97 100 97 87 82 96 93 98 97 88 55 60 62 70 77 78 93 95 98 99 87 69 65 69 68 76 55 52 50 56 57 61 69 70 64 61 57 56 55 57
96 97 97 96 100 98 90 92 90 92 95 96 97 80 72 56 76 89 76 96 93 94 82 81 65 58 69 100 75 54 51 50 51 54 50 55 62 70 69 66 64 68 68 69
93 99 100 100 98 98 95 99 99 93 88 94 77 76 80 58 62 60 71 75 98 80 77 77 75 74 100 93 73 69 69 65 60 53 49 57 68 66 62 63 64 70 73 71
100 97 98 100 98 94 99 100 99 98 94 79 75 54 91 64 67 69 72 76 69 83 90 97 97 93 77 64 68 68 65 60 62 67 66 68 70 68 68 70 69 69 72 74
96 99 100 100 91 95 98 100 100 99 91 67 66 64 89 87 88 74 61 74 66 66 78 98 97 91 79 59 60 61 65 65 68 73 76 76 77 79 72 77 80 78 77 80
95 94 92 93 95 97 94 90 83 69 64 73 78 69 70 75 80 94 68 76 76 77 79 85 86 82 65 65 68 67 69 75 78 82 78 78 82 84 80 81 86 89 90 92
69 74 76 68 82 96 88 87 78 87 96 90 100 96 86 93 86 98 96 97 86 70 95 91 80 64 60 62 64 74 74 76 76 80 80 81 84 90 91 88 92 92 91 95
53 71 88 87 85 80 85 92 94 93 93 96 100 100 96 100 99 98 98 95 87 86 88 89 80 77 75 79 76 71 81 80 80 82 83 86 86 90 94 94 95 93 91 95
68 64 86 81 80 81 85 87 86 81 80 91 97 98 98 96 96 94 95 95 88 84 89 86 80 79 77 82 82 81 82 82 83 82 84 88 90 89 90 94 95 94 95 95
67 76 80 80 85 88 88 91 91 83 87 93 100 97 95 93 86 87 89 89 86 87 86 86 80 85 86 88 87 87 86 82 84 86 88 89 90 90 92 94 94 95 92 87
72 85 81 84 84 90 90 87 86 87 96 96 90 86 91 64 76 80 75 85 87 86 88 84 84 84 87 88 88 89 89 87 87 88 91 91 93 93 81 78 77 76 80 82

GFSNW_925_rhum_060.txt.gz
RH
87 88 92 78 75 80 85 88 91 45 54 86 71 90 56 40 27 20 21 27 29 30 29 30 30 30 28 30 36 54 49 34 42 43 28 21 24 29 32 54 58 39 50 41
88 90 92 75 76 87 75 89 54 39 66 94 75 50 46 37 33 27 26 28 25 24 27 33 28 28 24 26 30 49 48 45 53 40 36 33 32 31 28 34 52 92 73 56
88 91 87 71 77 79 87 97 82 49 77 56 60 62 50 46 28 29 28 25 23 24 28 27 32 29 25 25 26 56 41 66 58 50 56 66 65 33 39 40 82 81 81 51
91 76 89 77 75 81 89 100 80 50 83 63 54 52 72 52 40 32 26 31 27 26 35 29 30 26 25 24 45 39 61 93 61 48 44 40 40 45 35 43 62 74 48 41
79 90 90 88 85 86 97 96 71 42 43 54 66 51 56 49 53 38 38 33 26 26 30 30 32 32 49 35 36 36 63 82 75 65 46 34 34 38 63 59 28 29 40 56
88 87 89 78 76 78 97 98 66 86 71 65 52 70 48 36 33 38 50 41 40 30 41 52 48 41 58 56 55 49 56 70 90 74 51 42 47 34 42 46 24 23 30 24
86 88 89 90 79 79 81 86 68 87 78 52 52 41 52 60 34 34 26 48 53 60 49 42 40 37 38 40 41 38 48 49 74 83 85 78 32 20 21 27 24 23 23 22
86 86 88 89 77 79 93 83 85 85 82 49 46 41 45 39 49 44 40 40 58 68 73 64 50 49 51 46 39 40 40 47 75 95 74 65 44 24 22 24 26 18 17 17
83 82 85 85 76 72 88 91 87 98 89 64 38 45 47 64 56 49 40 44 60 64 85 78 70 58 43 42 42 36 39 47 63 66 74 83 33 25 21 19 31 22 26 30
92 87 84 80 77 82 87 84 88 98 100 52 44 72 84 71 70 60 48 68 73 73 95 91 69 62 41 61 59 58 58 63 71 70 69 45 21 19 21 39 59 40 36 40
100 98 90 86 73 85 92 84 85 95 96 59 43 40 54 54 76 93 72 82 81 97 96 76 59 65 57 56 58 66 57 70 73 62 63 62 20 24 33 62 57 51 48 44
100 100 98 89 73 73 84 83 82 90 97 55 50 47 41 39 50 86 93 65 99 76 84 61 63 79 70 54 61 76 93 45 52 43 45 34 30 50 46 45 54 53 46 41
97 100 98 92 79 82 87 72 68 85 93 76 64 56 45 45 48 48 89 65 59 80 82 96 86 81 60 65 50 60 82 57 44 54 40 27 52 48 43 43 46 43 43 44
96 100 99 93 81 86 90 80 67 82 85 80 58 40 45 46 44 48 51 56 59 84 91 99 93 79 67 80 55 66 74 88 55 53 57 73 78 66 48 45 46 48 46 49
90 100 96 90 83 82 88 89 76 80 64 74 73 59 50 37 54 49 46 60 67 89 99 99 87 62 69 61 54 54 46 83 76 79 71 83 84 54 48 52 53 53 52 54
95 98 94 88 87 79 90 98 86 82 84 95 79 63 75 59 53 54 54 63 86 93 100 99 66 47 65 72 79 82 70 48 56 65 52 56 57 58 57 57 56 53 54 56
92 91 86 84 81 90 96 92 83 72 84 99 83 56 52 58 58 66 71 76 94 97 98 99 77 69 64 81 72 92 65 48 53 48 50 57 62 72 62 60 58 56 60 62
89 87 86 87 88 92 99 82 93 91 92 96 94 87 81 61 86 99 85 96 96 98 97 94 94 64 72 93 82 61 57 51 54 52 48 63 59 56 56 55 59 65 66 65
88 86 91 99 100 98 95 83 97 82 83 97 96 93 86 56 69 73 88 89 100 95 99 80 68 84 92 94 78 73 67 64 61 54 54 53 63 59 58 60 60 68 70 69
98 98 99 100 99 99 99 99 99 98 88 87 84 62 83 63 74 75 73 74 73 82 78 76 84 95 76 65 66 67 65 62 65 69 75 70 72 67 69 71 68 68 71 74
96 98 100 100 99 96 97 100 100 100 99 71 68 70 79 70 86 76 76 87 76 75 87 89 92 89 84 59 63 63 67 66 73 75 78 78 82 84 74 77 76 78 80 86
96 97 97 96 96 99 100 100 96 81 67 68 77 74 75 78 72 83 77 74 74 73 84 88 90 89 71 65 69 73 72 74 80 78 75 79 80 76 74 77 81 88 92 95
81 85 98 99 95 99 94 87 80 90 89 87 96 94 91 78 84 84 94 88 80 69 84 90 86 74 72 75 68 75 71 72 73 75 78 79 83 86 81 87 96 94 96 98
62 74 87 90 82 85 90 92 95 96 100 99 94 100 98 100 89 94 97 96 92 89 89 92 90 85 83 84 76 74 86 85 83 84 87 90 90 94 96 97 97 94 95 97
68 64 86 81 84 84 87 93 90 91 89 99 99 94 88 94 92 81 89 90 91 84 90 89 89 84 83 86 85 87 90 92 92 90 91 93 92 92 95 97 96 95 97 95
67 79 82 85 86 91 90 95 94 90 93 83 85 93 88 90 85 92 90 92 91 91 89 85 81 86 90 91 90 91 91 90 92 92 91 92 94 93 94 95 95 94 92 94
70 84 86 87 81 90 92 91 90 90 98 96 90 89 93 92 85 84 81 89 90 89 91 85 85 85 90 91 91 93 94 93 93 93 92 93 96 95 80 80 78 76 83 78

GFSNW_925_rhum_063.txt.gz
RH
94 90 90 90 81 79 80 79 99 53 52 91 92 88 59 46 44 40 42 36 34 38 37 40 36 34 46 34 36 57 54 72 57 37 25 26 35 42 72 100 83 70 63 71
82 87 91 90 76 81 77 96 78 49 59 98 94 68 54 52 51 49 43 37 32 31 37 44 34 33 38 32 36 53 45 70 74 56 38 34 45 34 50 54 59 97 98 66
93 91 90 86 68 81 92 98 98 78 86 80 96 85 73 59 43 42 39 35 32 38 39 35 39 38 32 41 40 51 43 65 80 85 70 77 80 59 36 48 84 79 88 73
89 92 86 74 75 75 90 98 94 73 96 82 79 72 66 66 83 44 35 36 36 41 45 40 44 38 35 32 53 51 71 85 76 73 60 61 74 69 50 58 58 90 74 79
88 82 76 77 71 80 94 99 95 76 75 62 83 97 77 64 53 77 62 62 40 34 41 44 51 66 59 66 52 60 65 83 81 76 55 53 58 58 45 65 65 59 69 84
87 87 89 80 78 82 90 94 79 95 82 76 83 74 75 77 59 46 65 64 76 69 65 66 56 58 61 59 62 66 82 86 88 89 64 74 69 45 66 73 72 64 92 57
86 87 88 88 83 80 84 79 78 96 87 71 66 52 48 59 81 84 57 51 66 68 67 59 54 55 54 68 66 57 65 66 84 97 69 95 56 47 45 54 62 49 30 38
86 87 84 88 90 79 95 96 92 100 98 67 59 52 47 55 73 98 78 59 76 75 81 69 68 66 58 58 49 52 53 65 87 96 88 68 53 45 29 39 39 31 28 28
85 86 85 79 86 92 87 98 98 99 96 77 60 64 48 89 89 85 90 78 73 66 96 95 83 81 58 53 51 44 50 62 80 94 87 90 63 41 29 26 67 50 48 48
83 83 85 83 91 91 89 91 90 100 99 72 62 88 84 88 94 99 79 77 85 73 83 98 93 86 50 68 65 63 68 72 79 81 88 79 45 34 27 50 83 60 56 57
84 91 96 97 89 82 91 91 82 97 98 78 62 66 77 72 80 99 99 97 94 93 90 95 82 86 72 67 59 88 84 78 89 86 86 81 33 51 53 78 67 60 56 58
90 93 99 100 100 83 81 90 84 87 96 85 72 62 59 60 51 82 93 100 100 87 90 86 90 89 88 76 86 86 97 84 78 68 68 59 64 67 69 64 63 60 59 56
99 97 100 100 100 92 90 90 79 84 94 91 81 74 48 41 49 50 95 88 80 94 95 100 97 98 99 96 73 76 82 80 89 69 79 78 90 72 54 53 58 58 56 56
100 99 98 99 100 93 89 90 74 84 98 98 80 44 53 48 46 48 51 65 66 84 93 100 100 100 84 95 83 82 88 93 93 78 89 92 88 84 73 62 55 56 55 58
97 98 94 100 100 92 88 91 77 76 89 97 97 72 49 51 48 51 49 58 75 87 98 100 99 98 90 84 70 95 88 100 100 100 96 94 96 81 74 71 59 60 61 65
92 91 98 99 94 85 90 99 79 78 85 92 96 66 67 60 51 60 67 72 79 91 100 100 97 78 72 90 94 96 72 70 71 95 90 87 80 74 63 61 62 63 66 65
86 96 97 94 78 90 87 87 88 65 83 100 98 89 78 58 63 82 79 74 94 95 98 98 90 86 83 96 97 71 61 59 56 59 69 74 67 70 61 61 62 65 66 70
92 98 91 86 84 90 84 75 92 92 82 99 99 93 93 73 98 100 93 98 98 98 99 96 97 89 88 99 83 68 63 58 64 62 64 64 59 61 62 62 64 71 76 77
94 90 85 88 93 93 79 75 81 79 79 98 97 96 98 77 86 95 95 97 99 98 99 98 89 96 98 96 83 77 73 72 72 64 65 67 67 69 69 69 73 80 81 78
90 98 98 99 98 86 80 98 99 100 96 95 100 76 92 89 92 98 99 98 100 99 95 93 99 98 82 75 77 78 75 76 75 80 84 80 83 82 83 86 82 83 87 87
95 99 100 99 91 93 99 99 98 94 94 95 92 85 92 81 92 97 83 94 93 95 96 91 98 95 94 73 77 76 81 83 90 88 89 88 86 86 84 85 83 87 86 89
97 98 98 98 97 100 99 96 94 98 90 93 94 90 91 91 81 96 96 96 90 95 98 98 98 96 90 83 85 86 85 85 88 88 88 88 85 86 86 87 91 95 97 98
77 88 98 100 98 99 98 96 96 98 96 98 99 99 100 90 96 98 99 99 97 93 98 97 96 94 91 82 84 89 88 85 86 90 92 93 96 95 92 96 99 97 98 92
87 92 94 98 97 97 98 98 99 100 100 99 99 99 99 100 86 94 92 99 97 96 97 98 96 95 92 90 85 86 96 93 93 94 95 96 96 98 100 95 92 94 100 94
81 80 95 95 96 95 96 99 97 98 99 98 98 98 95 91 88 83 91 91 97 96 98 98 98 96 95 95 94 96 95 95 95 95 96 97 96 97 100 95 92 90 89 87
82 91 94 97 95 97 97 97 98 97 99 99 99 90 86 92 94 96 94 96 98 98 98 96 94 97 96 96 96 96 96 95 96 96 96 95 93 97 99 94 91 90 88 88
83 97 96 96 97 99 99 98 98 99 99 99 98 94 94 97 94 94 98 98 97 96 96 96 94 94 96 96 95 96 96 95 96 95 93 94 90 92 93 92 87 81 73 71

GFSNW_925_rhum_066.txt.gz
RH
79 94 93 92 92 83 87 88 97 47 76 92 94 90 67 52 47 41 45 48 51 47 40 43 41 41 48 34 41 59 52 71 87 53 32 30 53 74 75 99 86 81 86 95
92 91 80 91 84 92 86 100 92 50 60 98 94 76 68 59 57 53 46 50 44 44 47 44 42 41 44 33 45 52 42 68 88 60 43 35 50 50 63 75 89 98 98 84
91 88 85 91 88 75 92 100 98 85 91 87 90 97 86 72 53 55 50 52 49 46 47 43 43 38 42 37 42 53 47 68 80 89 89 80 84 67 63 86 100 88 90 72
90 89 84 92 72 75 95 100 94 84 96 95 96 85 82 80 79 68 62 55 50 47 51 52 53 47 52 49 60 63 65 70 82 76 69 59 58 85 79 74 80 85 69 68
78 78 79 71 71 89 99 99 99 89 95 74 70 81 86 81 84 60 65 81 82 77 66 46 58 64 55 73 64 67 78 78 84 85 59 50 61 72 75 94 87 61 62 69
82 80 89 90 76 87 99 100 89 91 80 83 79 78 65 76 54 74 60 76 90 86 74 75 71 67 64 59 62 73 76 82 87 86 67 62 79 59 58 61 75 80 94 67
91 89 88 88 85 86 95 85 81 96 88 79 70 55 57 57 53 81 81 83 96 72 70 74 61 66 63 66 65 64 72 69 85 96 76 80 55 39 41 67 70 69 73 79
88 90 88 80 74 72 96 93 89 100 98 89 70 64 62 59 73 74 84 75 67 67 72 73 71 70 61 60 63 71 68 72 85 90 90 61 41 48 52 64 78 65 74 75
92 88 80 74 73 72 87 97 98 99 98 80 55 79 76 86 90 92 90 75 90 82 89 88 82 82 64 60 56 52 62 67 79 96 88 87 58 44 41 39 98 62 53 68
83 85 84 82 85 86 85 88 97 99 99 86 64 78 91 93 95 97 99 98 96 75 96 97 94 85 58 67 67 59 83 87 83 87 93 77 51 42 43 65 96 65 60 66
82 80 80 82 87 94 93 90 88 97 100 88 70 65 80 94 98 97 92 96 95 93 94 95 86 91 72 68 61 71 80 87 93 87 92 80 56 53 62 72 70 67 63 66
90 92 86 82 89 98 96 90 89 89 99 89 78 68 66 63 58 78 90 89 98 100 90 92 98 93 94 77 86 94 99 87 93 75 73 87 71 72 67 66 77 73 71 64
94 95 99 94 92 98 100 92 82 100 100 95 83 74 44 46 51 54 89 93 91 100 95 99 99 92 94 93 88 81 91 84 99 88 88 90 88 75 60 60 67 64 64 66
100 100 100 97 97 100 100 92 81 97 91 98 84 57 69 47 46 50 56 58 80 86 95 98 96 98 95 99 93 96 94 87 98 99 91 90 90 90 83 63 64 64 64 68
97 93 98 98 99 100 100 87 80 77 89 98 97 72 47 43 49 55 58 64 79 90 98 96 97 95 99 98 90 100 95 100 99 100 97 98 98 85 78 82 75 65 67 72
93 90 99 95 99 100 98 98 82 80 79 98 99 72 68 58 62 66 74 75 82 88 93 98 98 85 98 100 100 100 100 96 96 100 100 100 98 74 71 72 68 67 69 70
93 91 94 99 100 93 82 84 64 68 87 100 96 96 79 68 70 83 86 79 88 92 91 97 89 87 82 100 96 96 92 86 86 93 95 85 76 83 65 65 68 73 76 78
90 94 99 100 91 66 84 92 96 80 78 96 99 96 91 75 95 94 90 96 95 96 92 95 93 92 93 97 96 93 94 89 72 67 65 68 66 68 68 66 70 75 78 77
99 99 98 93 79 85 80 94 92 71 77 97 98 97 94 99 100 100 97 98 99 97 98 94 96 96 98 96 91 90 84 84 83 78 64 67 72 75 75 75 75 78 81 79
97 89 94 99 86 79 74 91 99 99 98 95 98 90 92 97 100 100 99 100 99 98 95 96 98 98 95 91 93 89 89 81 75 84 89 83 83 81 82 84 82 81 86 91
68 93 98 85 79 86 91 98 98 99 94 95 94 92 92 91 100 100 96 98 100 99 94 98 97 95 93 89 90 88 92 88 90 89 92 86 79 82 81 84 84 88 89 91
87 98 92 89 94 99 99 96 93 88 89 96 97 93 89 95 90 97 98 92 96 96 99 97 96 95 93 88 87 90 88 88 88 87 88 88 86 88 86 86 89 94 96 97
98 95 98 100 99 98 96 88 86 100 96 99 99 98 94 91 94 98 99 98 98 97 96 97 97 92 88 88 82 83 83 85 88 92 93 93 95 95 93 96 99 97 97 96
97 96 97 98 98 98 97 98 98 99 100 99 98 99 97 98 89 95 89 98 96 98 96 97 98 92 88 91 86 87 98 96 95 96 97 98 97 99 98 96 94 93 93 92
83 81 99 96 95 97 98 99 96 98 100 98 96 96 94 84 90 77 83 90 97 97 98 98 98 98 96 98 97 97 97 96 96 97 98 98 97 98 99 96 94 94 95 89
83 90 93 97 95 97 97 98 98 98 99 97 95 96 89 86 96 90 95 97 98 96 98 98 96 99 99 98 96 96 96 96 96 96 96 95 96 97 97 93 87 84 81 81
88 97 98 98 100 98 98 98 98 99 99 99 94 94 89 95 93 97 97 98 97 97 98 99 97 98 98 97 97 97 96 96 96 96 96 95 88 79 81 85 86 78 72 74

GFSNW_925_rhum_069.txt.gz
RH
94 91 89 83 95 91 80 88 98 66 56 96 93 91 67 53 54 47 52 53 57 59 52 53 40 47 50 39 44 63 52 74 92 71 43 51 63 78 94 99 98 93 100 93
91 94 93 80 88 88 86 86 96 64 58 96 96 82 72 64 64 60 56 56 51 50 57 73 48 42 43 40 46 47 45 69 90 64 54 57 72 79 83 86 93 89 97 83
90 92 90 84 87 87 85 99 98 81 92 88 86 91 85 77 74 72 72 61 54 60 61 48 59 49 41 51 42 59 49 70 78 88 89 82 96 81 75 89 100 94 93 86
90 91 92 92 90 76 86 100 93 84 99 96 80 74 80 93 88 68 67 72 75 91 86 57 67 53 53 58 62 65 59 64 81 78 74 69 71 77 79 96 94 99 69 68
92 90 76 76 75 78 94 99 98 86 94 82 82 81 86 71 79 56 86 78 85 81 96 76 87 59 57 61 68 71 77 78 84 81 69 60 56 52 64 78 86 93 81 69
93 82 76 78 88 86 97 99 98 90 81 80 77 66 61 77 61 57 53 65 94 95 82 79 88 82 75 67 61 72 75 83 87 80 72 72 74 66 55 70 78 75 98 72
93 89 88 92 87 87 87 92 91 98 93 81 76 60 57 65 65 72 62 61 93 79 72 76 82 73 76 68 68 65 76 75 88 94 79 76 44 32 51 62 68 74 78 79
89 89 91 92 88 81 94 86 95 95 96 80 80 78 66 68 68 77 70 73 74 87 89 93 74 79 64 62 69 74 69 77 85 85 90 62 49 54 56 65 69 66 71 71
90 88 82 75 81 75 89 88 93 100 99 87 63 70 72 94 90 91 79 78 78 96 100 97 83 82 62 62 56 61 79 71 77 96 85 83 50 50 43 55 85 74 66 80
84 82 90 94 91 78 89 89 95 97 99 89 71 83 79 85 96 94 85 88 97 97 96 94 95 83 61 63 65 68 88 92 93 87 90 78 54 74 54 85 94 77 69 82
91 88 84 82 82 90 95 89 88 91 95 87 74 67 80 96 97 97 88 89 91 97 94 94 85 90 72 68 60 70 79 90 96 89 85 86 76 75 64 84 81 76 75 76
82 83 84 92 92 94 97 91 91 95 95 90 88 77 69 65 63 78 83 86 98 100 99 94 91 96 95 80 86 94 91 96 91 78 79 86 76 80 79 80 88 88 90 83
81 82 92 92 96 96 96 100 84 99 99 89 94 81 48 52 58 63 88 88 87 100 96 100 98 93 98 98 91 90 90 95 100 99 94 91 82 72 70 67 74 70 79 90
83 83 85 88 92 98 99 100 98 86 98 99 84 62 71 52 56 66 63 63 73 79 96 100 96 92 93 97 97 99 100 85 94 99 97 94 93 85 90 93 84 83 70 70
95 98 99 99 97 100 100 100 100 81 78 94 95 73 44 50 55 64 64 70 75 83 97 93 83 91 99 100 100 100 98 100 97 100 100 99 100 98 85 90 93 78 74 77
95 92 98 92 98 100 98 100 100 88 74 94 98 71 75 65 61 67 79 81 85 85 84 95 93 86 100 99 97 98 99 99 97 100 100 100 100 97 69 81 94 95 89 79
99 100 93 94 100 99 82 80 65 82 82 96 96 97 76 71 74 88 89 81 88 89 87 94 93 87 88 100 97 96 99 100 97 97 97 87 80 85 72 70 72 76 77 79
98 96 100 98 90 78 87 98 87 79 81 89 96 95 92 90 92 94 93 96 93 92 91 93 97 90 96 94 97 89 88 96 76 69 69 74 71 70 71 70 70 74 78 78
96 100 100 98 69 84 98 99 88 68 70 98 97 98 93 97 99 93 97 95 98 94 98 96 94 96 96 96 93 92 91 87 87 70 69 70 76 78 78 75 74 78 79 76
99 90 81 99 80 93 98 96 99 97 95 96 97 87 96 96 100 99 99 98 95 98 90 96 98 99 93 90 90 89 88 86 88 86 86 80 82 82 81 84 82 79 78 81
68 96 95 80 90 80 89 91 92 98 99 96 92 92 94 95 99 99 99 98 99 98 97 99 97 94 91 84 84 86 89 88 89 91 93 89 84 83 80 82 84 87 88 94
74 86 85 92 96 95 93 95 92 97 86 95 98 94 88 91 91 100 98 95 99 97 98 96 95 94 92 84 83 86 90 89 90 86 85 85 84 85 86 86 91 98 100 97
92 84 92 87 91 98 96 93 93 94 97 99 100 99 98 93 95 98 95 98 99 98 96 96 95 91 88 84 79 83 86 87 87 91 94 94 97 96 94 100 99 95 96 95
93 92 98 92 97 96 96 94 98 100 100 100 99 99 98 96 90 94 84 95 96 96 98 94 98 91 89 84 84 85 95 94 92 95 96 97 96 100 96 95 91 90 96 98
85 83 99 95 94 97 98 98 97 98 100 99 99 98 93 76 77 78 85 92 98 97 95 97 98 97 96 98 96 97 96 96 96 96 96 96 96 96 97 96 91 87 86 80
84 90 93 98 95 97 97 98 98 99 99 99 93 97 87 78 96 85 99 97 97 93 100 98 97 100 100 99 97 96 96 95 96 96 96 96 95 95 96 96 92 93 92 91
87 97 97 98 97 97 98 98 97 96 99 100 89 94 82 90 94 96 98 96 96 100 99 98 98 97 98 97 95 96 96 96 96 96 96 96 95 91 90 89 90 89 86 80

GFSNW_925_rhum_072.txt.gz
RH
89 89 91 85 93 81 75 87 93 73 72 96 95 100 76 54 61 51 56 60 64 66 61 72 55 58 53 61 59 84 65 87 95 74 49 57 77 92 89 100 99 97 100 97
88 87 88 88 88 80 76 88 85 75 68 92 100 87 86 66 70 66 66 63 53 50 63 80 78 70 58 59 60 69 63 94 88 56 61 67 81 79 82 94 99 100 97 88
86 92 93 85 84 81 74 95 98 80 90 86 93 98 88 81 79 83 75 75 73 74 72 54 80 83 67 62 68 61 50 73 66 63 68 78 83 66 67 98 100 97 94 85
90 92 92 93 89 83 78 90 91 83 98 95 84 82 77 85 91 91 72 82 90 96 93 72 80 64 83 67 63 63 54 64 78 72 71 70 72 72 66 77 91 100 88 88
93 92 92 89 79 80 90 98 97 89 95 82 83 81 81 82 82 66 65 95 91 78 94 77 95 85 76 95 63 79 81 91 80 71 69 63 57 43 54 57 74 81 85 84
94 94 93 82 81 80 92 99 98 89 81 80 78 74 65 69 67 65 61 63 76 85 80 82 77 80 92 93 82 79 75 85 81 71 70 68 52 58 48 58 74 82 89 68
95 94 82 77 89 86 81 86 98 97 92 81 72 70 66 74 74 78 61 62 81 75 74 85 83 86 92 89 80 80 84 77 83 89 68 74 38 36 51 71 69 71 70 76
90 92 94 93 94 93 89 85 98 98 99 79 71 74 82 68 70 86 78 72 70 79 93 99 93 87 77 64 72 74 72 79 87 82 87 60 49 57 68 67 63 63 73 72
90 91 92 93 87 90 93 86 81 99 97 89 65 69 66 91 87 91 79 71 73 94 100 99 92 87 60 64 61 77 81 72 77 95 88 83 50 60 66 62 81 83 76 76
85 84 82 80 76 79 92 89 82 85 97 84 76 85 82 76 92 98 89 85 95 90 98 97 91 81 64 60 62 91 95 95 94 91 92 75 59 79 72 81 80 85 82 81
92 94 94 95 96 93 93 92 86 82 93 69 77 72 80 95 90 96 84 87 91 95 97 95 93 94 77 75 59 78 80 93 98 87 92 88 84 77 69 91 87 83 81 83
92 94 94 93 93 88 95 92 82 91 94 85 90 84 72 68 67 80 82 90 90 99 98 95 95 97 96 95 89 92 84 80 87 79 78 86 80 84 77 84 92 90 95 95
90 93 92 93 85 95 96 99 88 100 99 88 88 81 54 55 58 62 92 87 84 100 99 100 99 96 100 94 95 92 86 90 100 100 91 87 82 80 82 76 77 89 93 96
92 93 91 90 90 97 99 100 99 97 93 96 84 64 73 58 62 66 68 68 72 76 94 100 99 99 94 83 97 94 99 100 96 98 98 97 98 99 99 90 90 92 90 89
94 95 96 96 96 95 99 100 100 95 83 95 90 71 53 54 59 66 74 75 79 87 88 99 94 86 96 98 98 99 100 100 97 100 100 100 100 100 97 94 95 86 82 82
82 91 95 96 98 99 100 99 100 100 100 98 94 69 75 67 69 74 83 80 87 89 100 93 89 86 100 99 98 99 100 100 100 100 100 98 97 95 94 93 94 95 95 94
77 88 98 96 98 100 99 92 85 100 98 96 99 95 75 78 79 91 91 84 86 88 84 89 89 90 96 99 97 98 99 97 96 98 100 95 94 92 89 77 76 79 79 82
96 100 100 98 99 99 99 85 95 99 82 82 91 91 93 89 93 94 94 96 95 94 88 93 97 87 99 97 97 95 94 96 82 75 74 76 74 73 72 70 73 77 78 77
100 99 98 95 81 95 100 99 95 74 69 98 89 96 89 98 96 95 99 92 96 91 99 98 92 98 96 97 92 92 90 90 93 75 74 74 79 82 77 74 74 79 80 77
100 97 74 97 100 93 85 84 95 94 90 97 97 91 99 97 99 97 94 96 97 92 90 97 97 97 93 89 90 90 86 85 86 90 86 86 86 82 81 85 81 77 78 84
74 94 94 99 85 86 87 98 98 99 95 95 89 95 98 95 98 99 94 94 92 84 98 98 98 97 95 90 86 86 88 88 90 89 90 88 82 81 80 82 85 88 89 93
73 86 94 94 90 95 79 93 89 96 84 95 98 95 94 93 94 99 100 98 99 97 98 97 98 95 92 88 88 88 89 89 86 84 84 84 84 87 87 88 91 96 98 95
63 80 83 84 97 97 94 99 78 89 93 98 100 100 97 96 100 99 97 98 97 98 96 96 98 91 87 83 79 85 85 87 88 92 94 94 97 96 96 98 99 98 97 94
82 88 99 97 94 86 83 93 96 99 99 100 100 99 99 97 92 95 81 97 96 95 96 92 98 95 93 86 87 85 97 95 95 97 97 98 99 100 97 95 93 92 98 95
84 81 99 96 95 99 98 96 98 98 99 100 99 96 93 86 77 89 88 93 96 96 95 96 98 97 95 96 95 96 97 97 97 95 97 97 96 98 100 96 91 89 86 82
86 91 94 98 96 97 98 98 98 99 100 99 93 98 88 95 95 86 96 95 96 92 99 98 98 100 100 100 97 97 96 95 96 95 95 95 93 94 98 96 92 82 78 78
90 98 97 98 98 98 98 98 97 97 99 100 95 88 84 85 94 96 98 96 95 99 99 100 97 98 99 97 97 96 96 96 96 96 95 96 95 89 87 91 93 90 84 80

GFSNW_925_rhum_075.txt.gz
RH
81 78 88 84 88 65 60 82 81 69 64 87 92 82 70 57 56 44 48 57 56 60 54 71 60 56 54 59 70 71 74 80 68 53 46 51 58 66 86 95 89 93 90 78
74 76 89 88 83 66 64 91 85 70 62 86 94 76 81 71 68 62 64 65 58 55 56 68 62 68 60 66 74 91 70 98 94 75 67 64 71 75 96 96 98 95 92 84
79 85 91 86 80 71 67 93 85 70 88 72 83 92 79 70 74 88 96 79 66 77 71 60 60 72 67 72 82 79 70 65 93 71 57 61 72 56 57 92 96 95 97 86
86 92 93 94 87 72 69 89 90 80 97 91 82 82 76 79 89 80 70 96 93 91 92 70 67 54 58 68 75 93 89 76 82 63 61 65 57 54 45 50 70 89 63 71
91 93 94 95 90 75 82 96 92 83 89 79 76 74 61 69 71 59 62 88 65 67 91 80 91 83 71 77 80 97 97 80 79 62 66 54 50 38 43 52 49 56 67 72
92 94 94 90 84 71 80 99 97 87 80 78 72 66 61 65 65 61 59 63 68 66 90 86 91 82 87 92 98 100 91 90 69 58 61 50 40 44 38 48 53 60 73 61
94 93 82 80 90 73 73 90 98 96 88 78 65 63 61 68 67 76 60 68 79 64 66 72 79 87 86 84 91 83 97 66 72 67 60 51 30 34 42 62 60 54 55 71
94 94 85 82 84 80 76 82 91 93 96 70 66 65 66 70 61 71 70 70 58 72 88 87 91 86 87 85 74 72 85 72 71 69 62 47 37 57 63 74 60 78 76 75
91 87 90 94 90 96 89 81 71 96 93 80 64 67 62 72 79 80 74 62 68 84 98 99 91 78 51 66 76 76 75 68 65 88 75 64 40 63 56 66 50 79 79 75
84 80 84 86 84 90 91 87 77 79 95 78 77 80 75 71 88 92 77 76 83 82 93 96 96 73 65 57 63 90 88 87 80 76 75 60 71 72 70 44 60 83 84 86
84 77 76 83 80 83 90 89 84 75 93 74 74 77 76 89 86 85 77 80 83 87 90 93 96 88 81 74 63 78 67 84 89 74 78 77 80 73 72 91 86 84 85 91
86 88 93 90 92 94 94 91 85 85 88 77 76 68 66 69 68 75 80 84 85 89 96 84 88 90 85 87 68 78 73 78 79 68 68 84 80 89 84 86 91 92 92 90
80 80 94 93 90 89 97 98 84 100 100 88 92 74 57 63 60 65 85 81 78 100 100 100 100 94 96 89 84 80 74 94 100 100 97 95 93 86 88 91 96 96 91 89
77 89 94 92 85 85 94 99 96 87 97 96 77 64 71 52 59 74 70 59 77 77 82 89 98 94 83 81 94 92 99 99 95 100 100 100 100 100 98 95 94 94 96 94
88 93 93 93 93 92 93 100 98 90 80 90 83 71 59 60 61 76 80 80 79 82 82 91 90 81 94 88 96 94 100 100 98 99 100 95 95 95 94 92 93 94 86 86
93 93 94 95 96 95 99 99 99 100 99 99 94 75 73 69 74 80 84 83 85 86 90 97 87 82 97 98 93 96 97 96 100 100 96 94 95 93 92 90 90 92 88 89
82 94 89 93 92 100 99 96 85 100 100 98 95 84 73 79 84 89 89 86 88 87 86 86 81 78 80 100 95 94 97 96 95 99 96 92 94 91 88 79 77 77 77 78
88 82 91 100 100 99 100 97 100 99 99 93 89 87 83 86 92 95 92 94 91 90 86 90 94 87 95 97 96 94 94 96 93 94 89 84 80 72 71 71 69 70 74 73
99 100 100 100 96 99 99 99 100 97 72 93 82 90 85 93 88 93 99 90 97 85 94 94 88 89 95 93 93 93 91 91 92 80 77 76 79 81 73 69 68 72 75 73
100 98 80 99 100 97 98 100 96 87 86 92 89 84 96 91 97 92 92 96 88 82 82 91 98 94 89 88 86 84 81 81 80 86 86 81 81 79 79 76 70 71 74 80
100 98 98 100 93 85 87 94 93 94 89 86 83 90 94 91 97 96 89 91 82 82 88 84 93 89 88 85 83 82 81 80 83 84 85 84 77 78 78 80 81 82 83 87
73 94 99 98 87 89 80 90 89 91 81 94 97 90 91 95 89 99 98 94 94 94 94 94 93 90 88 83 84 83 83 81 81 80 80 83 83 84 84 86 89 92 97 100
66 78 88 87 93 98 90 97 77 85 82 93 99 100 99 96 99 100 100 97 94 98 95 93 90 86 85 81 78 82 82 84 85 89 90 91 94 94 90 94 100 100 100 98
82 88 99 87 99 92 87 88 89 89 99 99 100 100 100 100 98 96 94 96 96 94 95 92 88 87 86 85 81 80 91 90 90 93 94 96 97 100 99 96 94 94 97 91
82 81 98 99 92 98 96 94 92 93 97 99 98 94 92 87 82 86 85 90 93 92 92 91 90 91 90 91 90 94 95 96 96 96 96 98 98 97 100 98 97 92 89 85
83 90 96 95 94 96 96 97 98 96 99 99 90 90 88 96 90 84 89 89 91 89 93 92 90 95 97 97 94 97 97 97 97 97 97 98 96 96 99 87 78 76 75 80
89 99 96 95 96 97 96 97 96 94 96 96 87 85 91 83 89 91 91 92 90 94 95 92 92 94 98 97 98 97 96 96 97 98 98 99 95 93 87 88 97 95 87 81

GFSNW_925_rhum_078.txt.gz
RH
72 73 78 79 67 62 65 60 64 65 70 56 55 44 45 51 41 39 40 38 40 35 31 27 28 27 32 54 54 69 41 52 50 37 29 34 35 44 55 67 71 87 95 66
68 71 78 68 68 62 71 55 48 62 69 70 53 49 52 53 51 52 49 48 42 37 41 44 31 28 22 54 76 96 94 73 61 47 52 45 49 51 88 88 100 82 89 81
84 75 77 73 66 66 77 65 75 51 48 46 59 69 52 50 56 70 58 61 60 61 52 46 42 36 36 49 46 80 97 72 57 41 82 50 59 49 49 59 77 58 53 62
80 83 89 79 68 69 74 72 71 60 75 60 50 55 52 55 64 58 46 89 76 83 72 54 52 38 31 31 55 77 96 94 57 59 68 61 39 36 35 46 47 56 32 32
86 90 93 86 70 66 67 90 62 54 52 55 53 54 43 46 51 47 44 73 48 43 59 71 91 69 57 53 62 76 98 92 58 64 62 47 44 34 26 31 38 37 38 42
90 92 93 84 76 71 67 94 81 53 61 50 48 46 44 50 45 44 46 46 54 53 56 68 57 56 56 65 79 100 99 100 67 62 47 40 39 29 31 32 30 45 55 46
90 92 89 90 78 70 68 84 81 64 58 44 44 44 42 46 48 56 47 42 59 47 38 49 51 54 55 53 55 77 97 96 68 50 41 43 36 27 32 39 38 48 45 64
87 76 75 78 89 70 73 83 65 62 63 42 42 46 45 44 46 49 46 42 42 43 61 74 51 51 59 55 52 62 84 100 78 50 43 30 24 45 45 49 45 58 62 59
83 79 80 79 82 78 80 78 74 62 66 52 42 49 44 50 47 48 50 42 44 63 73 80 79 77 42 37 46 56 70 64 90 56 49 46 50 46 42 40 45 61 66 73
80 85 85 83 92 92 85 80 75 68 82 50 56 53 53 49 56 58 52 60 55 61 77 85 89 86 40 37 43 72 71 66 70 54 49 40 52 51 48 46 74 71 74 85
82 74 76 76 75 92 89 77 87 64 72 50 52 52 54 54 60 66 54 60 63 64 75 76 90 92 62 52 42 48 51 60 66 55 60 58 63 57 61 87 84 79 81 86
81 77 73 72 78 85 88 77 91 85 75 55 73 62 56 50 49 58 53 66 75 70 82 72 79 88 68 64 55 51 69 78 72 56 74 73 75 80 87 84 92 92 86 82
71 66 80 92 91 95 90 79 92 97 100 68 61 57 54 64 60 56 72 54 56 90 98 94 89 90 74 80 76 65 67 73 82 91 97 98 94 82 88 91 93 86 88 85
66 75 82 86 84 88 98 97 94 89 85 80 54 58 59 58 62 63 61 52 48 58 64 77 83 82 63 77 81 78 88 74 87 100 100 98 94 93 81 88 88 91 96 94
70 76 76 93 92 85 90 99 96 83 61 73 62 56 56 59 62 65 68 68 64 62 70 79 76 58 72 84 81 87 88 100 96 92 97 95 94 91 84 86 90 95 86 87
75 74 90 94 82 84 98 100 100 98 89 99 83 56 56 58 70 64 66 69 70 70 73 73 72 56 68 77 90 92 91 89 100 97 97 94 92 88 82 82 86 88 84 76
84 90 92 94 93 96 98 92 92 100 100 99 90 74 57 69 66 67 69 69 70 66 69 70 59 53 59 89 91 92 93 96 96 99 95 89 86 84 75 67 65 65 63 64
90 74 85 90 100 100 100 99 99 100 99 100 92 69 68 70 71 74 68 73 73 71 65 64 63 55 68 86 94 93 93 96 91 93 92 83 76 68 62 57 56 58 59 60
94 97 100 99 99 98 100 100 100 99 88 84 72 70 73 81 73 75 82 72 85 59 80 69 61 62 79 92 92 91 92 92 92 85 70 64 66 63 59 56 55 58 61 60
99 99 100 100 100 99 97 98 97 88 69 68 72 58 80 78 78 82 83 92 72 75 63 65 76 81 83 80 77 79 77 82 85 80 78 69 68 66 64 62 59 60 64 67
99 99 98 100 97 89 65 86 76 75 73 61 66 67 72 69 85 84 72 76 70 69 63 73 78 84 82 71 73 70 68 65 69 72 72 67 64 67 67 68 69 70 72 77
96 97 100 98 82 73 74 72 69 72 56 69 78 74 67 70 65 81 82 76 81 83 79 82 79 88 77 72 73 70 68 70 71 70 71 73 73 73 74 76 80 86 90 95
88 84 94 80 79 88 78 81 73 71 66 83 88 93 84 79 82 95 99 98 95 93 95 82 82 75 71 68 64 68 70 73 74 79 80 80 82 85 83 87 92 93 96 100
79 76 92 86 90 83 76 71 74 85 90 93 99 100 100 100 100 99 97 97 93 92 88 88 78 74 76 73 69 69 83 83 82 84 87 89 90 93 96 96 98 96 94 94
73 67 74 91 85 93 94 96 84 90 100 100 100 99 99 96 98 90 86 94 91 86 86 84 78 81 84 84 84 86 88 88 87 88 89 90 91 90 92 96 97 96 95 90
72 83 91 86 85 89 95 95 93 90 99 100 97 93 95 92 83 84 83 81 80 90 85 83 83 88 87 87 86 87 88 87 88 90 90 91 91 89 91 92 91 92 89 88
83 92 90 90 92 87 93 92 90 89 98 98 80 83 90 76 80 82 78 88 90 88 87 81 81 85 89 88 89 91 89 87 87 88 88 89 91 92 81 79 86 83 90 94

GFSNW_925_rhum_081.txt.gz
RH
69 78 70 66 72 56 62 41 56 49 56 42 32 31 28 46 28 30 30 30 29 29 26 28 26 23 15 21 38 62 60 73 38 24 20 20 24 36 43 68 49 52 60 66
75 69 63 66 72 59 48 33 35 39 57 69 38 34 33 34 34 35 34 34 31 31 36 39 26 24 19 17 23 80 85 67 56 38 29 24 29 28 33 55 68 65 72 76
70 63 60 63 72 57 64 43 69 39 31 31 46 46 39 40 41 45 40 42 43 44 41 32 39 35 24 23 30 62 65 67 69 51 49 60 67 32 39 53 70 56 54 37
78 65 64 68 68 56 67 52 62 44 63 44 39 44 38 40 47 43 34 66 60 46 50 41 40 40 43 37 24 32 65 71 52 48 33 41 62 82 41 50 46 47 33 26
85 66 68 68 62 54 54 90 45 38 39 41 42 46 36 31 36 35 36 54 38 34 41 36 52 52 50 48 37 58 75 72 57 70 54 45 54 56 30 26 23 25 26 28
86 87 80 74 55 68 46 63 54 43 46 38 37 36 35 38 35 33 31 34 39 40 38 36 36 37 40 42 50 55 77 78 76 69 58 51 66 44 31 22 24 26 43 46
81 90 79 67 64 67 50 54 44 49 49 31 33 33 33 34 34 41 33 32 40 32 30 34 36 37 39 42 42 39 88 79 86 88 55 70 34 22 20 24 26 35 39 57
90 89 78 75 71 57 62 52 44 45 56 29 32 35 34 32 32 41 35 32 31 34 43 58 48 39 36 42 38 37 41 87 90 95 44 36 24 34 33 39 68 49 50 46
83 79 73 71 78 60 70 52 51 44 68 40 29 35 33 37 34 34 34 32 35 45 76 70 73 63 48 43 30 28 45 75 92 82 60 52 53 36 34 30 56 58 55 59
82 82 73 70 69 68 66 61 65 50 80 37 39 42 46 37 45 44 37 44 44 45 69 81 83 82 48 49 39 61 69 74 82 88 47 44 49 37 33 44 89 64 66 73
82 79 82 80 88 72 72 72 64 60 65 41 41 38 42 40 43 55 49 50 63 59 71 69 85 92 60 49 34 46 48 49 55 51 54 61 61 46 65 89 75 72 72 76
78 74 72 70 77 77 75 85 70 68 71 55 54 52 50 44 38 43 42 51 55 59 71 61 81 91 66 62 60 44 73 87 95 89 98 83 72 79 83 78 86 84 80 77
71 78 75 72 74 79 74 81 79 77 73 60 48 44 44 50 52 47 56 42 42 67 86 91 72 90 67 76 90 74 61 50 78 83 96 94 87 77 80 80 84 78 74 78
78 71 66 77 85 89 75 74 81 65 62 69 50 44 44 46 48 49 50 49 47 45 46 69 76 77 57 70 69 76 69 59 71 97 86 79 80 94 93 85 83 86 87 86
75 71 71 74 80 82 95 92 86 70 59 79 64 46 39 43 48 50 49 50 52 51 65 74 79 54 78 61 60 78 72 96 90 95 85 90 95 95 95 93 86 93 81 80
77 77 80 70 76 78 90 100 96 89 81 86 71 49 48 44 49 47 46 50 57 66 71 73 58 55 57 63 86 83 80 76 96 97 99 97 96 96 91 88 81 90 85 77
72 72 76 90 89 90 96 85 97 98 100 100 87 54 47 47 49 51 50 57 62 63 67 55 56 52 50 67 88 92 83 89 100 100 97 93 93 90 77 61 60 57 57 60
81 88 93 85 84 93 97 98 99 98 98 98 89 63 60 53 60 62 51 70 70 71 60 54 59 51 50 79 92 85 94 98 94 96 94 82 78 61 53 52 50 52 55 56
91 90 88 98 99 98 99 98 100 100 99 91 71 69 72 64 62 61 68 60 75 44 66 59 52 59 72 87 85 86 89 93 94 93 72 56 57 53 50 48 49 53 57 58
84 97 100 100 98 99 97 99 100 100 91 70 68 44 64 61 72 80 67 66 62 71 62 52 68 71 77 71 72 68 72 90 90 79 68 63 61 60 58 56 53 54 59 64
99 98 100 100 97 100 95 85 85 70 76 55 54 52 60 54 80 73 58 68 62 63 56 64 71 82 81 66 63 61 59 57 60 64 66 64 60 61 61 63 64 68 75 83
98 98 98 99 94 75 73 68 57 58 47 47 58 55 48 55 52 71 64 62 64 74 70 76 74 81 72 65 65 62 62 62 64 64 65 67 69 68 70 73 77 83 86 90
100 95 88 77 74 90 82 74 66 64 55 70 78 79 60 58 54 78 79 91 80 79 90 83 83 70 62 60 60 62 62 65 68 71 73 74 78 83 78 83 87 87 92 96
86 84 93 84 86 76 66 62 68 88 83 77 79 87 87 81 97 98 100 95 97 87 86 88 74 70 70 67 60 63 76 76 77 80 82 84 86 88 90 91 92 92 91 91
86 58 76 87 87 92 98 97 81 80 99 99 99 90 94 92 100 96 94 96 93 80 92 86 82 82 77 78 78 81 82 82 82 83 84 86 86 87 89 91 93 91 89 84
69 78 88 88 84 85 94 100 99 83 99 100 100 100 98 95 82 83 80 72 76 91 87 86 79 80 80 81 80 80 81 82 83 84 85 86 84 83 87 87 89 89 86 85
84 91 89 93 94 95 96 98 90 82 95 100 93 94 95 75 74 74 69 88 92 87 87 84 77 82 85 83 83 84 82 81 82 82 82 83 84 84 73 70 78 74 84 91

GFSNW_925_rhum_084.txt.gz
RH
67 72 76 74 63 50 54 48 63 48 51 57 37 33 25 36 23 24 25 26 24 24 25 27 25 24 19 15 16 20 37 87 75 42 23 24 25 27 38 68 55 54 59 66
70 68 72 71 62 53 72 45 38 34 59 76 40 31 27 27 28 29 29 29 27 28 32 34 25 24 20 21 20 31 40 58 65 43 29 22 34 31 48 58 65 71 86 67
70 60 63 61 56 50 76 48 75 38 37 30 42 37 33 35 33 35 33 31 33 35 35 28 31 28 25 28 34 51 51 47 61 72 57 59 72 69 52 43 77 60 56 57
68 61 60 62 50 48 78 57 73 45 64 40 37 39 32 34 39 35 31 46 45 47 41 34 32 28 31 28 30 30 41 55 45 51 41 38 54 84 60 61 74 60 44 34
77 63 60 61 50 50 69 90 55 38 38 38 37 42 34 28 30 28 38 46 34 30 35 32 44 35 36 41 33 39 67 65 46 48 39 38 52 44 57 67 86 73 62 36
88 66 54 52 48 66 48 47 46 53 44 39 37 39 32 31 30 29 26 27 31 35 31 28 32 32 36 38 43 52 57 88 74 61 37 44 68 39 35 39 53 37 49 70
85 77 61 58 54 62 74 47 39 51 52 32 31 30 29 30 28 33 29 27 34 29 28 32 32 32 33 33 36 37 59 64 70 76 59 76 38 23 24 28 52 67 49 60
89 85 66 58 51 53 73 42 49 46 66 26 29 31 31 28 27 32 32 27 26 31 38 52 49 44 36 35 36 38 40 56 82 84 74 71 33 27 29 34 93 59 55 53
78 84 71 64 57 50 76 55 53 48 76 34 25 29 28 34 35 36 34 26 30 37 60 68 69 61 50 55 75 31 31 43 82 72 94 95 99 54 30 29 97 69 58 68
76 78 70 62 56 57 77 65 65 51 86 34 32 53 63 36 43 42 40 41 38 42 67 79 82 66 48 69 60 41 50 69 80 86 94 98 82 59 33 47 97 72 67 75
77 72 78 67 54 49 74 70 59 62 61 45 35 35 37 39 40 54 47 47 62 54 70 78 70 86 82 86 53 45 54 68 72 74 94 94 73 61 80 95 82 72 72 77
73 78 77 77 68 60 68 75 64 63 54 59 50 49 47 44 40 45 40 47 49 68 77 64 72 76 97 93 82 56 92 84 97 93 99 93 77 88 82 77 86 82 78 76
81 77 70 70 67 67 73 94 71 62 68 62 50 42 44 46 47 45 53 48 54 58 68 92 72 82 75 93 94 90 74 57 93 98 91 85 85 78 80 81 82 76 77 82
75 72 76 72 63 67 76 78 80 61 58 74 57 40 38 40 44 45 46 46 48 44 42 67 70 77 64 78 79 92 78 65 84 96 95 86 78 97 81 86 82 91 90 87
72 79 62 66 71 68 81 78 88 84 71 92 67 48 36 38 43 44 43 44 46 47 59 66 70 49 82 68 75 83 82 96 91 95 95 93 97 94 81 90 98 99 82 87
79 73 72 78 78 72 87 100 88 82 75 85 82 46 42 41 41 43 43 44 51 59 67 68 52 44 78 64 85 98 80 81 83 97 98 95 97 99 94 89 89 91 86 89
76 69 72 84 87 77 90 92 99 95 88 100 80 56 39 38 40 47 53 47 51 56 65 58 55 48 57 70 88 83 80 80 97 100 100 97 96 94 92 77 69 59 55 58
77 77 73 88 85 84 86 94 96 88 98 98 86 62 57 49 54 64 65 63 66 68 63 56 59 48 52 79 84 75 79 89 95 100 96 90 82 62 58 54 51 53 57 59
71 60 83 90 87 95 97 94 99 98 98 94 70 67 73 56 59 59 65 62 78 52 80 62 48 67 77 90 81 79 88 95 96 95 93 72 62 53 48 48 50 58 64 64
82 88 96 100 98 100 92 99 100 100 100 95 83 49 70 56 65 72 67 70 67 71 63 49 68 79 74 69 67 66 68 80 94 99 92 74 62 60 61 62 60 64 67 72
89 98 100 99 99 98 99 97 94 76 87 60 54 55 64 48 77 74 55 68 66 74 71 64 70 84 82 63 64 61 59 58 61 67 71 71 67 67 66 73 75 76 79 83
88 98 99 99 100 100 89 78 61 70 55 46 62 56 48 61 53 77 74 65 63 67 68 67 70 89 68 63 65 64 64 66 67 67 71 70 70 71 74 77 80 87 92 96
99 99 96 100 81 91 78 77 63 62 50 64 72 77 58 56 52 85 76 83 76 82 93 90 90 76 66 63 63 64 62 65 69 78 81 82 86 83 81 87 95 92 94 95
100 93 94 89 86 72 63 66 76 82 82 72 81 81 78 83 92 86 93 89 93 92 81 94 77 74 76 67 63 70 82 84 81 85 85 87 89 93 92 92 93 93 94 91
100 76 82 81 85 92 100 98 94 79 95 83 95 87 80 83 93 91 88 93 85 87 94 92 90 84 79 82 82 84 86 90 87 87 87 90 92 91 94 95 92 88 84 82
79 77 85 86 85 91 84 96 100 76 100 100 99 99 95 95 78 95 85 79 83 95 92 91 81 84 87 87 84 85 88 90 90 88 89 90 94 90 89 91 91 88 85 88
87 91 93 99 99 98 100 99 91 82 100 100 99 99 98 89 81 74 68 93 94 92 90 84 82 83 89 87 88 89 87 87 87 90 89 87 87 86 77 75 82 75 89 80

GFSNW_925_rhum_087.txt.gz
RH
67 70 78 70 65 55 56 78 90 48 55 86 83 61 30 31 24 23 25 27 25 26 32 32 30 28 26 36 35 40 49 69 67 52 37 32 43 50 55 70 68 73 77 90
69 75 69 73 67 55 72 82 63 38 60 94 77 32 30 26 27 31 29 29 34 36 36 39 32 34 30 36 39 61 55 69 86 48 38 50 69 73 79 89 82 96 90 80
74 79 63 58 60 54 73 87 90 53 63 49 58 45 40 38 33 41 33 33 37 40 42 35 40 35 30 37 35 51 46 63 72 81 64 51 88 72 57 86 99 97 90 65
66 65 56 51 51 50 77 90 88 57 87 66 53 45 35 45 45 36 36 49 45 49 55 45 44 44 41 36 37 43 58 75 61 53 44 42 44 70 52 72 86 98 86 77
85 65 51 55 48 54 74 96 88 60 57 45 49 48 38 31 33 29 50 49 42 38 47 45 55 52 53 53 46 54 72 83 80 69 56 54 44 38 39 49 72 79 84 97
90 78 54 54 51 76 69 48 52 74 52 46 53 50 37 34 37 33 27 32 40 46 46 49 47 46 48 50 54 59 63 89 85 68 56 61 68 52 46 54 62 69 88 95
87 84 61 56 56 71 79 57 64 86 73 50 47 34 33 31 33 39 36 37 39 44 39 43 45 45 43 43 44 43 63 74 84 89 73 93 42 42 48 80 89 86 86 89
89 83 59 53 52 60 71 64 65 81 91 50 35 35 34 32 33 36 37 37 41 44 44 71 77 65 56 53 46 50 47 70 89 89 96 71 52 93 96 78 99 69 73 72
89 76 58 56 55 64 68 61 62 77 98 72 31 39 31 46 56 54 48 44 36 40 92 92 93 85 63 71 65 52 69 73 82 89 95 94 98 94 78 87 99 76 74 81
80 67 56 56 60 61 72 64 62 69 99 58 55 67 69 48 62 62 64 58 63 55 91 94 96 95 60 80 95 66 78 80 81 87 92 89 99 87 67 86 98 77 76 82
75 69 64 53 50 49 75 70 61 70 88 68 58 45 48 55 64 88 66 73 76 85 88 95 94 97 90 93 99 81 71 80 87 82 94 95 84 76 87 99 82 76 78 82
78 69 65 57 46 47 75 74 58 56 74 73 54 52 50 49 50 65 66 62 72 95 92 88 92 89 94 94 95 94 98 100 98 96 98 100 91 95 97 85 90 84 81 79
71 79 69 65 58 64 83 84 71 65 92 86 71 65 47 49 46 46 74 79 68 72 79 96 95 95 81 97 98 93 81 68 99 97 95 93 96 96 95 97 93 85 82 86
78 76 65 67 70 69 69 87 79 74 74 92 75 44 43 41 45 48 48 54 58 62 67 89 94 94 73 96 92 94 86 77 95 99 99 92 92 99 100 98 92 94 90 85
73 69 75 64 57 58 70 84 82 85 84 95 88 53 40 40 44 44 46 49 60 70 82 91 90 75 92 95 96 95 90 97 92 97 96 94 100 100 98 94 98 93 85 90
67 73 64 63 58 70 80 95 88 86 83 96 97 61 47 42 43 45 52 56 65 72 82 90 78 59 91 98 98 96 81 84 92 99 96 96 100 100 94 91 92 92 90 88
72 74 66 73 64 86 81 98 99 82 74 96 90 84 52 43 46 58 69 58 75 70 81 84 76 68 82 94 98 94 84 88 95 98 96 95 96 97 78 69 60 62 65 72
73 68 71 76 71 86 87 86 83 84 94 95 86 89 78 50 72 78 90 84 75 83 86 82 81 76 72 96 95 88 80 90 95 100 94 90 83 74 73 62 57 65 71 75
77 68 69 78 82 82 84 95 92 85 91 92 94 93 89 80 76 80 86 82 98 80 94 86 76 92 98 92 89 86 83 99 98 98 78 65 60 58 60 61 64 72 75 78
71 72 86 92 84 92 94 94 98 96 99 100 91 77 87 83 93 94 94 91 94 93 89 78 92 97 87 80 77 76 85 99 79 98 94 85 72 76 82 83 77 81 88 84
86 90 93 93 89 98 97 99 99 99 98 93 88 82 88 76 92 93 80 93 89 92 90 89 96 97 94 72 76 72 73 76 85 83 82 82 76 82 81 82 83 87 90 96
83 96 100 100 100 100 100 97 91 96 76 80 86 81 80 76 73 92 92 85 88 86 90 90 92 97 85 80 82 78 77 81 85 83 88 85 84 82 84 89 95 99 99 94
93 99 96 100 99 98 95 96 88 87 85 77 85 86 87 76 83 95 98 93 93 94 99 98 97 85 80 79 75 79 77 84 88 90 92 96 96 90 95 100 95 91 90 84
99 100 100 97 96 92 90 91 93 92 96 93 96 95 95 96 95 90 90 87 95 98 97 97 96 91 94 82 80 90 97 95 95 97 96 94 92 94 92 94 87 87 89 87
100 98 96 94 92 97 99 95 90 96 93 98 97 96 93 91 89 90 94 98 96 97 97 99 96 94 94 95 95 96 96 96 96 92 95 96 96 97 97 90 81 71 64 60
99 94 82 95 88 96 80 86 89 97 98 98 91 98 92 93 95 99 95 97 97 99 98 96 92 96 96 95 94 92 95 95 94 90 89 93 95 90 92 88 84 76 77 87
92 97 96 99 99 98 95 86 99 94 95 95 86 96 90 99 94 87 97 98 99 96 97 95 92 94 97 96 97 95 91 93 93 93 95 87 77 76 85 91 86 86 74 70

GFSNW_925_rhum_090.txt.gz
RH
95 91 81 71 82 64 65 84 94 53 52 93 93 63 35 25 26 27 28 29 34 40 38 37 34 35 41 39 40 52 56 65 78 48 37 34 37 67 88 99 90 81 80 68
92 69 79 75 69 60 72 88 68 43 62 89 74 36 36 36 32 35 34 36 39 39 41 43 38 36 34 38 38 50 45 64 77 38 38 55 63 53 59 81 95 98 95 78
85 66 64 64 64 55 67 92 83 61 69 64 61 51 41 43 38 41 37 47 50 47 46 41 44 46 42 47 44 53 50 64 62 73 60 58 62 46 42 68 97 94 84 92
64 59 61 61 55 54 76 92 86 63 84 68 55 48 45 52 52 42 40 48 52 52 59 51 50 52 52 46 42 50 59 73 65 66 61 57 59 58 47 48 59 94 83 93
81 78 67 58 48 64 75 90 80 71 55 48 52 56 40 43 37 45 50 49 43 42 48 49 60 59 56 60 47 54 69 76 65 52 51 53 60 60 51 44 41 49 61 84
87 74 64 49 67 71 73 64 61 72 60 49 60 47 41 42 39 37 39 42 43 45 53 46 49 52 54 53 57 63 67 79 89 65 58 64 70 68 53 41 53 72 84 94
90 80 57 57 66 68 70 67 72 86 71 53 51 40 40 44 40 41 34 34 41 45 40 46 50 55 50 51 54 51 78 79 85 87 74 98 60 80 67 91 98 98 98 96
90 74 61 55 64 68 63 68 70 82 91 56 41 42 41 37 38 35 35 47 43 44 52 74 81 73 56 54 60 58 54 67 95 97 89 61 52 95 97 95 99 97 98 87
84 68 65 54 65 63 58 64 66 86 87 71 49 46 41 56 56 64 58 50 52 55 92 93 96 88 68 69 67 69 68 63 92 93 95 97 96 84 86 100 97 100 88 85
83 66 64 55 58 66 62 63 61 74 90 71 57 72 64 55 66 71 66 56 62 64 94 96 98 96 73 91 94 87 90 95 91 92 93 86 96 96 98 96 98 85 81 83
73 65 58 52 50 66 61 63 57 66 91 79 65 62 66 66 75 87 68 73 78 90 93 96 97 97 90 95 98 95 91 94 93 92 96 95 87 79 94 100 98 80 81 82
69 62 56 50 42 66 67 65 56 56 80 76 58 51 50 50 53 72 71 70 84 94 90 89 93 95 95 91 96 92 96 98 98 96 97 100 99 100 100 100 95 93 88 89
72 60 60 55 44 61 69 80 75 66 93 79 74 60 48 47 46 46 76 85 72 76 81 95 96 99 88 97 98 91 76 94 98 96 96 94 99 100 97 96 91 87 85 90
78 73 64 66 63 64 75 82 82 77 87 92 75 53 52 46 48 46 47 58 63 69 79 92 96 96 76 96 99 94 85 82 94 96 96 94 93 97 97 91 91 90 90 87
80 65 70 68 67 70 73 75 76 84 80 96 87 61 45 46 48 50 50 53 66 78 82 93 91 81 89 98 90 93 89 95 97 100 89 94 99 95 93 96 92 86 80 88
66 72 67 59 58 66 60 92 87 83 81 94 92 70 56 48 46 52 57 61 76 81 86 91 86 69 84 99 98 94 86 90 98 100 97 97 100 96 88 94 94 91 90 86
69 66 65 59 84 76 86 93 95 77 74 94 92 86 66 51 53 68 80 66 78 74 84 90 85 74 84 98 96 94 84 94 96 100 94 95 95 98 82 76 75 80 83 82
74 77 70 64 80 77 83 87 86 74 84 79 96 91 82 56 75 77 90 88 81 84 83 89 88 82 87 97 98 86 86 91 96 98 93 79 80 85 69 66 72 79 85 87
73 71 65 61 66 84 97 94 85 82 83 84 96 94 91 81 85 88 89 87 99 81 95 91 88 96 99 92 93 88 90 97 95 99 86 72 75 69 74 68 75 84 86 86
70 62 75 86 87 95 91 88 82 96 95 88 80 85 90 85 96 95 95 96 95 96 92 88 94 98 98 87 84 86 97 96 100 98 95 87 90 83 81 83 83 83 85 90
72 86 87 98 94 89 92 96 89 90 89 98 94 92 89 80 91 94 88 94 96 96 93 91 98 95 95 87 86 86 96 97 96 96 96 94 84 84 85 85 86 89 93 97
69 89 99 98 95 95 86 93 96 99 86 91 92 89 84 78 83 93 94 90 96 94 94 94 98 98 96 91 89 88 90 90 92 89 89 86 85 88 90 93 97 100 94 91
98 98 93 96 94 97 96 100 94 93 89 84 88 86 89 83 90 95 98 98 94 92 100 97 97 95 92 86 86 93 92 90 90 94 95 95 97 94 93 97 92 88 85 80
92 90 99 92 100 96 93 92 91 88 96 95 96 96 90 98 94 97 90 86 98 100 98 97 98 93 91 87 88 87 98 96 95 96 95 95 96 99 92 88 86 86 88 88
98 99 98 100 92 91 98 94 88 97 93 96 92 94 93 95 88 93 90 98 97 96 96 98 98 96 96 97 95 96 97 97 98 93 95 100 95 94 95 85 68 64 71 62
99 99 97 95 90 99 94 88 87 98 98 94 92 85 89 88 97 98 96 97 96 95 100 97 94 96 98 97 96 94 94 93 95 93 96 93 91 88 79 74 61 52 54 78
98 91 96 95 96 98 96 93 98 96 97 92 80 91 84 94 98 93 98 89 97 99 97 96 93 95 97 96 97 96 94 93 92 94 95 91 82 81 82 85 70 72 72 62

GFSNW_925_rhum_093.txt.gz
RH
94 94 94 92 76 76 68 88 96 69 68 98 95 91 46 32 33 31 32 39 42 41 39 39 39 44 43 38 39 48 48 65 76 43 38 38 42 78 82 97 93 86 95 85
94 93 94 82 63 64 77 90 78 65 66 98 85 43 45 46 39 44 40 41 42 40 45 50 41 44 48 44 46 45 41 61 65 32 42 47 54 47 47 60 84 92 94 78
91 93 90 69 62 61 69 92 85 66 81 75 64 51 46 47 41 44 45 50 47 46 51 45 45 51 49 48 53 54 50 61 56 67 50 59 68 59 55 62 95 90 84 74
92 91 65 57 58 59 78 94 85 63 87 72 55 50 48 51 51 42 45 53 57 54 60 50 58 57 54 46 44 60 60 68 67 65 65 55 56 57 54 62 58 73 58 67
87 75 64 56 51 70 81 90 79 69 60 50 52 56 50 51 45 50 51 56 49 48 56 51 57 56 53 54 49 54 71 75 63 61 45 44 58 57 55 56 54 52 45 48
87 76 62 56 65 73 74 70 66 68 65 55 53 49 47 46 46 44 41 42 45 54 56 52 51 52 52 48 59 64 67 80 81 64 56 66 67 67 89 56 46 56 62 64
90 67 61 65 68 63 61 71 76 82 72 53 52 45 42 44 43 45 37 40 46 44 41 48 52 57 61 63 57 57 79 77 83 89 67 96 58 87 98 89 91 94 94 97
88 64 63 66 67 63 62 71 70 79 87 54 45 44 48 44 41 40 60 50 45 47 62 72 74 70 55 58 66 68 58 73 95 94 96 66 59 94 98 98 99 100 100 97
75 68 57 67 67 58 59 67 69 80 81 72 63 53 46 59 59 72 56 53 56 64 92 92 92 87 68 69 78 69 70 62 78 95 99 96 90 84 79 100 96 96 95 93
68 64 56 60 65 55 54 61 63 62 90 73 60 63 64 64 70 79 68 63 66 67 95 98 98 95 74 91 100 93 91 94 89 92 96 86 95 94 98 97 98 94 87 88
66 61 56 53 66 56 48 64 60 62 90 76 66 60 62 69 73 85 69 74 77 86 93 93 96 97 84 97 93 96 95 94 92 87 96 95 90 86 94 99 97 94 86 92
65 59 52 45 67 60 48 62 58 54 77 73 60 52 51 47 52 75 80 70 87 93 90 92 94 98 96 95 98 88 97 98 97 96 96 99 98 98 98 99 96 92 89 91
68 62 50 42 67 65 63 74 65 61 90 77 73 62 52 47 46 46 87 87 78 80 81 95 97 99 91 98 100 99 81 91 97 97 96 96 98 96 96 93 93 93 92 88
66 62 53 50 71 70 66 84 80 68 86 89 80 54 53 50 47 45 53 68 69 78 83 94 97 96 78 96 100 96 82 83 94 97 96 94 95 97 94 94 93 94 93 93
77 66 69 67 65 69 66 76 87 79 71 92 82 62 53 51 49 51 50 57 73 80 84 94 92 84 90 95 89 98 87 96 96 96 92 92 96 94 96 90 93 94 87 88
66 72 61 59 60 57 57 90 74 79 70 88 89 70 60 56 54 59 63 68 80 84 86 90 87 78 86 99 100 87 89 93 93 98 96 95 95 96 95 94 95 94 91 83
72 69 58 69 61 58 86 93 94 79 67 90 87 83 68 57 59 74 82 71 84 75 87 90 86 79 86 99 98 89 89 93 95 96 90 94 96 97 96 86 81 77 81 89
70 64 77 77 76 76 87 94 77 66 79 92 95 89 83 61 78 82 92 88 90 88 81 90 93 85 91 98 97 90 87 91 95 98 94 88 85 73 76 79 82 86 83 85
67 60 65 52 54 81 97 92 79 75 77 95 96 92 93 81 92 92 92 89 99 86 95 90 90 97 98 93 96 92 94 97 98 97 88 79 93 82 73 78 80 85 86 86
62 53 68 95 94 99 86 74 89 89 93 87 94 91 94 84 97 96 95 97 97 99 91 90 97 98 96 95 92 92 96 98 98 93 97 91 87 82 82 86 83 84 84 86
53 93 94 96 96 81 78 87 84 87 88 88 86 92 91 83 91 94 91 96 97 99 93 95 98 97 96 94 93 92 94 94 96 96 96 92 83 84 86 85 85 90 91 96
61 97 86 94 89 93 78 83 94 94 84 97 96 94 89 80 87 92 92 94 98 94 98 98 98 97 96 90 92 94 93 91 92 95 92 88 84 87 90 93 95 95 95 92
99 89 91 90 98 94 93 98 94 99 93 91 93 91 91 87 90 93 98 98 96 92 97 97 96 95 93 93 94 93 89 88 90 94 94 93 94 91 91 95 93 88 88 88
92 77 96 92 95 97 94 93 91 88 97 97 96 98 90 99 94 99 76 88 91 97 98 92 97 94 94 91 87 88 98 95 95 96 94 95 93 95 88 85 82 77 79 78
96 97 92 99 94 92 93 96 95 99 98 96 92 94 93 97 90 85 90 97 96 96 96 96 95 95 96 98 96 96 97 97 98 96 96 97 94 91 93 89 86 79 80 70
95 98 98 98 94 97 95 93 88 97 99 92 95 92 92 88 95 98 95 97 94 91 98 100 97 98 97 96 95 95 93 94 95 93 93 93 90 86 76 65 54 51 53 73
99 95 98 99 98 97 96 94 96 97 96 87 79 84 81 86 96 98 93 90 96 98 100 98 95 94 96 96 95 95 94 93 93 95 90 87 86 76 71 72 57 58 64 62

GFSNW_925_rhum_096.txt.gz
RH
99 98 97 94 95 96 83 91 98 82 72 97 91 94 58 39 46 40 46 58 53 49 45 43 49 53 50 47 39 48 48 64 61 42 42 46 44 82 75 93 92 88 94 85
96 96 94 94 94 83 73 84 91 78 75 99 97 64 50 52 48 54 52 53 50 50 49 48 48 54 48 52 45 46 40 61 49 34 40 38 57 52 60 68 83 92 96 72
95 87 95 93 86 68 69 91 89 75 85 86 79 55 56 54 47 52 51 55 50 49 52 51 53 57 50 52 56 56 50 60 44 39 38 64 66 62 59 73 98 80 58 55
94 93 94 88 68 64 74 97 83 68 94 87 68 51 51 53 51 45 48 56 56 54 54 55 63 56 50 48 51 60 59 63 66 62 64 58 60 50 45 61 59 83 39 48
95 91 90 66 62 68 83 91 82 71 66 59 58 57 51 52 48 50 52 59 50 48 55 52 59 53 50 47 54 57 69 78 63 67 58 54 51 52 57 59 59 61 57 58
89 86 66 61 65 74 82 72 70 71 64 54 54 52 53 48 48 43 44 48 52 56 53 46 44 46 48 43 56 61 63 82 78 66 58 52 44 54 86 87 78 85 74 56
88 78 64 73 75 74 63 68 77 82 72 54 54 48 44 48 44 47 43 45 50 44 42 46 52 56 58 59 59 57 80 73 80 82 63 64 67 84 86 92 90 92 92 84
88 64 67 79 74 65 66 72 70 75 83 54 49 49 50 49 58 60 62 60 56 51 62 67 62 67 60 66 68 69 63 80 93 88 96 63 68 88 97 98 87 97 97 96
73 62 65 74 64 62 61 71 75 74 80 73 66 54 49 60 68 72 58 56 60 66 90 89 86 92 76 72 77 72 71 66 85 91 97 99 93 81 76 94 96 95 96 96
68 62 64 68 59 55 54 67 66 66 92 74 60 58 65 65 73 76 69 69 68 67 96 99 97 94 73 92 99 93 88 93 91 92 96 90 91 85 89 98 97 95 96 96
65 62 58 67 58 50 50 69 61 60 89 73 66 56 65 69 70 80 69 73 76 86 92 89 97 96 92 91 94 98 96 95 94 86 97 95 89 75 89 98 97 96 96 95
65 57 51 62 60 50 49 59 57 52 77 71 64 61 55 46 52 78 83 68 88 92 93 95 95 98 98 96 98 87 96 98 97 95 98 96 96 97 98 97 96 96 94 92
62 55 51 66 62 52 49 67 60 52 91 80 77 70 52 45 46 51 85 90 82 83 81 95 98 94 92 96 98 96 88 94 97 97 97 96 97 95 95 95 95 95 92 90
63 56 56 73 66 59 53 76 72 59 82 89 80 57 60 52 47 53 60 75 75 86 83 95 97 95 79 97 96 94 81 86 94 97 96 94 95 96 96 96 94 90 91 89
65 61 66 74 68 63 61 70 79 64 68 93 82 63 59 54 49 52 52 61 75 82 84 94 93 85 91 96 88 98 83 97 99 97 94 91 97 97 96 93 92 89 84 88
73 75 72 69 64 53 46 88 69 71 60 85 87 70 64 62 60 62 65 72 82 85 85 90 86 79 87 100 99 88 87 90 90 98 95 96 96 94 87 89 90 89 88 87
70 66 58 51 52 49 88 93 92 73 59 87 90 86 70 61 65 80 84 79 87 82 89 87 85 80 90 99 98 85 94 92 92 91 90 96 95 97 86 79 77 84 92 92
64 77 73 72 73 75 87 84 69 65 74 93 93 90 87 66 80 85 94 88 89 91 86 92 92 86 94 88 96 91 90 93 94 97 90 92 90 82 84 86 82 78 81 84
72 72 65 54 61 87 96 82 70 68 71 95 94 93 96 83 94 94 93 91 98 90 97 90 89 98 98 93 93 92 94 94 96 92 91 90 88 83 82 80 82 84 82 84
59 43 60 92 96 92 78 67 88 91 94 90 95 92 92 86 98 97 97 98 98 98 91 92 99 98 97 95 90 96 94 95 86 96 95 94 90 88 87 82 83 81 83 89
48 95 94 91 96 80 78 89 91 84 91 90 91 89 94 85 92 94 91 97 97 99 93 96 96 99 95 95 96 95 96 96 94 90 88 82 80 86 86 86 88 91 93 97
67 86 92 88 83 74 72 82 82 89 81 99 98 94 91 86 87 92 96 96 98 95 97 99 98 97 97 95 94 94 93 92 94 95 93 87 84 86 90 94 95 95 96 93
84 73 86 90 96 82 84 96 92 100 96 94 97 94 93 91 90 94 97 99 96 93 98 95 95 96 93 92 91 92 89 90 91 95 94 92 93 88 87 94 95 93 91 92
93 72 87 90 94 92 94 94 94 92 98 98 98 100 94 100 95 96 77 88 92 96 94 93 98 93 96 93 88 90 98 95 95 96 94 94 93 96 92 88 83 77 77 80
96 90 95 96 93 94 97 96 96 100 97 97 93 94 93 99 94 83 84 94 97 96 95 95 98 97 96 98 96 96 97 98 100 95 95 96 92 91 94 88 83 77 79 72
94 96 97 98 97 98 95 94 94 98 99 97 94 97 93 93 95 97 96 99 96 90 97 99 89 98 97 97 96 95 94 95 96 93 93 92 89 86 80 73 68 62 57 74
98 97 99 98 98 97 97 96 96 99 95 91 78 80 85 93 87 93 94 95 94 98 100 100 97 94 97 96 95 95 94 95 94 94 91 90 78 62 60 58 49 53 60 63

GFSNW_925_rhum_099.txt.gz
RH
97 97 95 83 99 92 79 89 93 88 88 98 99 88 53 43 44 42 50 73 63 50 45 44 60 51 51 56 47 47 51 48 37 43 43 40 50 70 68 54 67 80 83 67
99 99 98 96 97 81 75 93 99 80 75 94 84 68 46 48 47 54 72 65 58 47 48 49 49 47 48 51 48 46 42 43 32 40 46 40 48 49 49 52 64 65 73 56
99 98 95 94 95 84 77 76 96 98 83 90 89 70 56 54 46 55 54 65 59 48 48 50 54 49 45 52 60 56 47 50 33 28 47 51 52 54 51 58 78 59 50 35
97 94 88 93 92 81 76 93 80 70 93 83 81 65 54 52 52 48 47 54 54 52 49 52 56 48 46 48 52 58 54 54 54 48 58 56 54 48 44 44 40 51 22 32
93 90 94 92 92 93 78 92 88 74 71 61 76 70 59 47 50 46 52 56 48 46 50 50 54 50 46 45 50 54 60 74 60 60 52 53 52 43 40 38 42 49 54 63
93 91 90 88 86 80 86 76 74 69 64 65 62 60 56 49 46 43 44 48 49 50 51 46 48 47 50 48 49 58 56 67 58 46 51 44 42 45 42 59 65 70 84 66
90 91 84 69 77 88 79 70 74 79 68 54 50 47 44 48 44 47 46 45 53 48 45 52 54 56 54 52 53 52 66 62 63 53 58 45 78 74 78 83 75 85 82 87
90 88 69 74 83 77 87 73 72 74 78 54 52 53 61 59 60 64 64 62 62 55 58 56 56 61 62 69 67 62 55 61 72 69 69 50 81 86 91 91 84 92 91 94
90 68 69 80 77 72 75 72 72 72 79 66 57 54 54 59 65 65 61 60 62 63 78 74 71 74 70 73 78 64 61 58 67 82 86 77 88 72 68 88 90 86 88 90
70 66 74 72 63 63 62 69 72 68 92 74 59 55 60 64 69 68 66 67 60 65 85 92 82 79 67 82 90 87 80 80 82 82 84 79 89 82 77 92 91 88 92 94
66 64 70 66 58 56 56 67 64 62 86 73 68 56 66 67 64 70 68 66 67 75 78 74 89 81 85 86 93 91 85 82 80 75 87 90 81 68 81 93 95 94 94 94
64 59 62 62 52 52 52 58 62 59 74 71 65 62 55 49 50 70 73 63 82 78 77 80 82 86 89 89 88 86 90 92 90 91 90 92 90 90 94 95 93 95 93 94
61 53 61 61 54 46 49 58 57 52 88 75 73 74 57 49 52 54 75 86 76 79 72 84 86 81 78 87 86 89 82 87 91 93 92 92 94 94 92 93 92 93 91 91
56 69 72 64 54 55 53 66 65 55 77 87 77 59 65 59 56 56 61 77 78 77 71 83 84 75 73 90 83 82 74 77 88 92 93 93 94 94 92 94 92 92 93 91
54 78 72 68 65 57 51 60 68 57 64 90 78 65 66 58 50 54 55 63 69 66 71 80 81 74 84 89 81 90 70 87 87 86 86 84 94 95 94 93 94 93 85 84
78 74 70 66 58 47 44 87 57 54 52 85 85 71 69 65 58 63 71 72 74 71 71 78 72 73 80 94 92 81 69 83 80 92 92 90 92 94 86 85 84 82 79 79
70 64 59 52 52 46 95 91 78 61 47 88 88 82 70 68 69 82 83 82 80 71 79 74 68 69 80 91 93 79 88 85 86 85 82 91 88 89 77 75 79 82 81 81
65 64 68 67 65 68 82 79 66 59 64 84 90 87 80 70 75 85 90 85 81 85 78 82 78 80 88 80 90 86 88 92 89 85 87 82 83 79 77 77 72 73 75 77
70 61 53 54 72 94 85 74 64 60 62 86 82 90 96 80 90 91 88 86 95 83 89 80 76 89 96 84 88 88 87 89 94 88 84 79 78 79 77 74 72 73 77 76
57 35 61 95 97 92 68 59 82 86 89 86 91 85 94 82 92 94 91 94 92 88 80 84 95 92 89 88 75 76 81 87 85 93 92 88 84 80 78 75 73 73 76 80
49 94 96 88 96 75 84 90 88 87 82 83 87 84 93 84 88 88 85 90 90 94 84 87 89 87 87 92 92 91 90 87 83 77 75 75 74 79 81 82 84 84 85 90
69 78 88 83 84 85 80 80 81 82 78 95 90 84 80 89 82 84 95 92 94 90 92 93 94 92 92 91 92 91 90 91 92 82 82 82 83 82 85 88 91 96 96 90
69 70 86 81 82 86 87 95 93 98 94 92 96 92 86 90 83 96 91 98 95 92 96 88 90 88 90 88 87 88 88 90 91 93 94 92 92 90 90 95 96 94 92 90
81 69 88 89 87 91 90 88 90 91 91 93 92 98 92 97 93 92 76 83 90 92 92 89 89 86 89 88 84 85 93 92 92 93 94 95 94 97 92 91 90 89 90 88
94 82 96 93 92 95 96 97 97 98 92 93 91 90 87 96 94 82 82 88 93 91 90 88 87 92 94 95 94 94 96 95 95 96 95 96 94 92 94 83 71 59 57 54
92 93 95 96 95 97 97 94 96 97 96 92 87 94 89 93 89 87 93 96 93 84 93 91 92 96 96 95 94 94 95 94 96 93 93 92 90 88 87 81 71 62 59 77
96 97 97 97 98 98 98 96 96 97 91 85 71 84 86 86 84 82 87 95 89 95 98 92 93 93 96 95 94 96 96 97 96 96 95 88 70 57 68 64 57 60 67 64

GFSNW_925_rhum_102.txt.gz
RH
92 87 95 97 99 76 70 63 81 96 98 100 100 69 49 45 41 36 44 56 57 68 49 65 60 51 44 51 47 45 36 32 31 33 36 28 25 36 35 42 37 43 57 41
97 93 98 98 89 83 64 80 85 99 97 93 74 55 47 44 44 42 53 56 61 42 54 46 67 72 67 56 51 44 32 33 44 36 37 35 36 41 40 43 41 42 44 35
96 96 98 97 97 76 78 61 90 99 99 93 68 61 54 52 39 42 45 51 61 53 49 38 47 50 46 48 47 53 33 28 25 25 37 37 47 42 35 44 57 36 31 22
93 97 95 94 99 76 77 61 72 49 88 82 68 55 47 51 49 45 40 52 70 88 54 45 47 41 47 44 47 43 37 32 32 35 36 34 35 35 31 31 26 35 18 18
94 97 93 93 97 96 78 97 55 50 44 51 63 63 49 45 46 44 45 56 43 50 64 46 46 40 37 37 40 41 43 53 42 35 33 34 36 27 26 27 25 23 23 29
100 96 92 91 98 91 72 64 62 45 53 48 63 53 44 42 39 44 49 42 41 41 42 37 37 35 35 37 37 42 39 54 43 25 33 32 30 32 26 24 25 41 54 52
93 92 94 90 91 77 80 62 55 63 59 39 52 40 39 39 37 44 39 35 39 43 37 36 34 35 35 33 39 31 40 40 39 34 39 55 66 58 65 70 61 72 67 62
95 88 89 92 89 92 95 75 62 53 60 35 43 40 40 38 40 43 44 50 49 39 39 41 47 53 52 60 53 38 33 43 60 66 54 43 76 76 89 89 78 86 82 72
93 88 80 92 72 79 89 81 78 55 62 48 38 44 40 42 43 50 56 52 50 47 48 51 49 48 42 62 67 56 46 43 58 60 69 62 92 62 55 82 87 76 82 79
88 78 67 80 85 85 91 76 79 55 84 55 44 41 44 43 44 44 51 50 50 52 64 70 63 59 49 63 70 76 72 69 67 62 65 85 83 62 66 92 92 78 82 87
78 70 78 77 71 70 78 79 68 61 61 60 56 48 48 51 40 47 59 52 54 54 56 53 67 65 61 70 92 82 70 72 68 58 74 86 66 60 88 94 87 86 91 92
70 72 74 66 62 64 56 68 78 64 52 60 64 64 59 51 43 43 52 52 59 56 48 48 54 68 74 68 82 77 88 90 84 86 88 82 75 86 84 89 89 93 92 93
66 65 68 60 55 53 55 79 70 54 63 52 45 55 60 61 62 62 42 56 56 60 56 61 59 67 55 66 75 74 71 72 78 84 83 80 83 77 79 90 90 92 91 90
58 65 63 58 52 49 51 69 60 59 44 66 63 57 58 65 61 62 57 60 62 54 43 54 59 61 58 69 74 62 60 62 70 88 86 80 81 83 86 90 86 90 92 88
71 70 64 66 65 58 49 56 70 54 45 66 59 54 62 59 51 52 50 46 43 36 39 50 53 51 64 68 64 70 60 76 74 83 69 81 88 89 86 90 87 84 75 75
78 78 67 58 50 51 62 98 66 53 68 58 66 60 58 59 54 52 53 51 49 44 46 47 42 56 64 75 79 75 67 66 63 86 81 85 85 84 81 83 86 76 70 68
78 69 57 48 44 54 89 83 79 47 58 85 66 58 58 62 53 55 55 54 52 48 50 46 39 46 58 73 77 73 71 69 75 72 74 88 78 84 73 64 66 67 65 66
63 59 58 58 58 64 75 87 60 48 74 61 72 75 62 60 52 61 66 55 52 59 56 55 48 57 59 72 89 73 73 75 74 74 68 64 64 62 61 62 61 60 61 62
72 62 52 58 82 76 77 64 56 49 60 67 62 68 79 61 65 67 65 62 75 61 63 56 53 65 73 70 73 78 73 78 82 81 66 62 64 65 61 58 56 59 61 61
42 39 59 92 86 78 65 65 67 66 62 60 72 61 79 61 72 74 71 74 64 64 61 62 71 64 71 67 62 63 64 70 74 82 79 69 68 64 62 59 55 56 60 64
64 75 85 90 79 73 63 78 67 62 59 56 64 61 71 63 76 71 62 65 68 67 70 65 69 68 74 71 65 59 63 67 67 65 62 60 60 64 66 66 64 64 66 71
66 70 92 87 67 63 69 74 70 61 58 68 70 66 61 71 60 62 73 65 76 79 73 77 74 85 84 87 84 82 76 74 74 68 70 68 68 68 71 74 77 84 91 91
71 60 65 59 68 76 69 87 82 80 78 76 77 86 73 75 66 89 78 95 87 80 92 76 80 77 82 85 80 80 78 84 83 78 77 77 77 78 80 87 96 95 96 100
59 65 83 77 82 80 78 75 81 87 85 77 78 95 86 90 89 84 77 83 82 82 84 85 82 77 80 83 76 75 87 91 90 90 91 92 94 97 98 99 99 96 96 89
77 65 86 84 89 88 93 94 91 89 84 78 84 81 72 89 94 75 75 84 82 75 78 85 78 78 84 88 88 91 93 92 91 92 92 94 95 94 98 100 96 78 68 85
76 82 89 92 87 95 100 100 99 89 84 78 68 87 83 87 76 82 84 80 73 86 92 87 84 88 88 90 88 89 90 90 92 92 92 93 93 87 86 90 83 72 76 72
79 92 97 93 95 93 98 94 89 83 82 83 66 77 82 74 71 75 74 85 95 96 92 83 82 88 92 90 90 92 92 91 90 91 88 89 93 88 67 62 72 72 80 81

GFSNW_925_rhum_105.txt.gz
RH
100 91 87 92 82 60 63 63 98 99 100 100 100 72 51 42 36 31 35 39 44 46 46 36 54 41 34 36 28 38 38 44 50 33 31 26 26 27 41 75 53 65 44 54
89 87 85 89 94 62 71 94 92 96 99 98 91 55 47 38 40 37 44 47 42 38 51 53 84 45 50 47 39 38 35 46 43 37 32 26 26 24 28 32 37 36 45 48
98 96 86 86 95 78 94 75 98 100 100 96 74 60 55 47 34 37 41 61 44 47 50 41 63 69 58 43 38 54 40 34 36 42 37 29 36 28 26 32 51 32 26 18
95 100 90 88 81 82 97 83 79 60 97 96 61 58 50 49 47 35 35 59 55 57 61 51 52 47 49 43 48 36 36 43 30 24 25 24 28 28 27 27 26 30 19 16
75 100 91 88 93 93 97 97 60 45 48 49 59 68 63 44 41 37 46 51 49 57 67 50 44 40 39 37 36 33 34 36 35 31 25 24 24 19 18 19 18 19 17 17
89 99 94 90 92 99 97 69 57 47 53 51 65 69 46 42 44 40 43 47 43 59 60 35 30 29 31 32 36 38 38 46 36 24 26 23 22 24 20 18 14 22 32 46
73 100 85 79 92 90 79 79 68 64 63 53 53 45 41 43 48 46 41 46 37 36 29 29 29 30 30 30 30 29 35 36 32 27 30 34 52 47 49 54 44 52 51 51
98 100 84 86 85 94 91 92 69 69 84 36 43 45 38 44 39 57 35 37 33 30 31 37 40 40 38 37 28 26 23 30 42 54 38 40 48 55 86 84 79 80 67 59
100 94 89 89 88 93 90 88 86 71 84 42 37 40 42 48 47 47 51 44 38 34 37 40 39 44 30 48 49 33 34 37 50 47 56 51 86 52 44 67 75 65 72 71
96 87 87 84 80 86 86 90 85 66 97 48 44 50 45 39 40 44 45 47 46 38 53 62 49 46 32 49 57 66 56 56 57 50 51 85 71 50 55 92 92 74 77 81
88 86 79 75 73 85 96 95 80 71 66 55 43 39 44 40 34 46 44 45 46 42 53 44 51 58 44 57 93 57 56 54 55 43 62 83 58 56 80 89 78 74 82 88
81 72 69 78 77 82 86 90 76 67 56 59 54 54 51 50 41 35 42 43 37 42 41 36 40 55 60 60 66 63 81 93 88 83 90 80 69 82 78 72 75 88 84 88
64 73 78 74 77 74 80 69 65 53 59 52 42 50 50 49 52 54 36 37 43 45 47 47 46 61 44 60 72 67 62 59 79 79 82 76 78 69 74 71 79 77 77 86
72 71 65 62 58 63 69 62 66 60 41 61 56 45 52 48 46 44 44 45 46 41 38 49 52 50 52 64 59 76 52 57 69 88 78 71 71 72 72 78 80 87 81 75
66 63 62 60 59 56 67 71 66 62 53 56 54 45 47 42 40 39 38 35 34 28 32 50 46 42 55 54 49 55 48 92 74 85 65 75 81 75 71 78 81 76 67 69
65 71 72 68 67 70 60 98 63 66 35 46 60 49 49 45 42 41 41 39 35 30 34 33 34 50 55 66 76 69 55 54 61 84 70 78 74 72 66 75 75 64 61 59
75 64 55 49 50 64 74 75 67 54 64 67 57 48 49 48 40 42 41 39 38 35 34 33 29 37 45 58 66 64 59 68 72 66 68 79 72 77 61 58 59 61 59 58
64 58 54 54 57 66 58 72 54 63 64 47 56 60 54 47 41 50 44 41 39 42 41 40 36 40 41 59 84 60 66 70 68 64 60 60 57 54 53 54 53 54 55 54
62 56 57 60 62 54 54 50 60 69 50 55 50 62 72 47 49 52 47 42 60 42 48 41 39 53 62 57 70 67 65 71 78 61 56 55 56 53 52 51 51 53 55 54
46 48 54 85 70 61 65 57 60 50 44 45 53 44 72 54 56 59 55 50 48 58 48 46 55 50 57 47 56 61 60 63 60 69 70 63 62 56 54 52 49 50 53 56
46 61 80 71 64 57 47 68 55 48 49 44 46 52 64 48 67 61 43 50 51 54 65 53 60 55 62 62 64 60 59 67 60 56 55 55 54 56 55 54 53 55 58 61
54 66 68 68 54 55 68 64 57 45 47 53 57 47 48 53 42 53 52 50 57 70 54 60 59 81 63 73 72 69 67 64 63 64 61 63 59 58 59 60 63 72 82 91
63 49 54 52 60 80 66 83 67 71 64 66 62 78 61 55 50 70 63 89 83 60 81 66 78 72 67 76 85 83 78 70 66 80 69 66 66 66 69 76 91 90 89 93
51 60 86 76 82 70 68 67 82 85 74 65 76 85 71 70 80 73 72 77 68 75 76 74 75 76 73 72 73 76 85 93 90 90 85 84 87 91 94 92 95 96 93 93
67 58 80 79 83 84 93 92 87 88 72 66 68 66 62 73 88 70 69 79 76 65 82 85 77 80 84 87 89 88 90 92 91 91 91 92 93 92 95 97 94 94 90 88
68 75 85 86 87 100 99 100 97 76 71 63 57 80 79 79 67 75 73 70 68 92 90 83 79 88 84 89 93 92 92 92 92 92 91 91 92 90 91 93 86 83 83 84
70 93 100 100 100 99 99 92 81 66 67 88 56 76 71 60 61 63 64 89 97 90 88 79 83 83 88 90 89 90 89 89 90 90 87 88 88 89 70 63 71 73 83 88

GFSNW_925_rhum_108.txt.gz
RH
78 80 83 100 99 95 100 96 100 99 100 100 100 93 62 54 50 29 29 33 37 40 40 43 38 57 53 39 47 60 44 43 55 44 25 24 28 35 70 98 94 90 82 77
87 86 75 98 100 97 80 98 100 100 98 99 98 70 56 52 37 35 35 36 36 36 45 53 49 50 54 41 35 38 40 52 54 63 42 27 31 33 30 40 41 45 52 50
92 88 83 82 98 82 90 99 100 100 99 98 87 70 64 63 34 34 33 38 42 41 46 37 56 63 53 40 36 48 40 40 46 63 60 34 36 27 24 30 60 44 36 45
88 78 74 75 98 73 92 99 97 62 96 97 84 65 49 57 52 34 35 48 48 47 52 44 54 57 55 44 49 39 39 51 37 33 24 23 28 24 22 25 25 42 29 20
79 74 88 96 100 97 98 100 98 65 48 61 81 71 68 48 42 39 40 51 44 46 54 46 51 66 50 53 40 44 44 60 46 42 26 23 24 17 18 20 20 18 16 21
84 96 96 88 99 99 98 76 60 78 60 89 71 66 61 55 40 40 32 39 45 50 53 48 36 36 38 35 50 56 45 52 42 40 28 23 26 26 18 20 17 25 29 54
94 94 91 91 98 95 70 67 80 90 71 55 67 48 46 47 48 71 44 52 58 53 33 29 29 32 34 35 37 31 42 40 36 33 31 34 49 44 42 49 63 56 52 52
95 87 94 98 95 95 87 92 98 96 93 60 46 46 51 45 62 68 41 46 48 29 31 45 50 42 38 35 29 28 26 34 38 43 37 47 45 53 81 77 87 70 64 57
94 96 94 96 92 94 98 92 94 96 100 77 42 49 53 92 88 62 49 37 31 33 47 51 56 57 38 48 43 22 24 27 52 50 54 49 78 46 43 62 82 66 70 72
89 94 99 92 85 93 98 96 92 89 100 65 69 73 81 61 63 50 51 50 47 37 59 70 58 58 27 52 52 46 49 51 56 52 47 87 68 46 49 85 89 79 74 82
89 100 95 90 88 96 99 96 88 94 100 59 71 57 73 53 48 57 53 49 48 50 60 50 52 65 41 64 89 48 49 52 54 48 53 73 60 54 76 87 74 79 76 84
96 95 95 91 88 98 97 92 80 82 96 63 54 50 48 48 44 51 46 42 46 49 44 33 39 55 60 60 69 60 84 92 87 89 91 76 71 83 77 77 78 81 77 77
88 88 86 78 74 82 92 90 78 78 62 59 53 53 45 41 48 46 40 33 39 47 50 68 51 55 46 64 69 60 57 57 80 79 76 75 73 70 66 70 73 72 74 76
84 76 64 69 78 87 89 98 68 73 73 81 57 42 42 38 38 40 44 42 42 40 48 59 61 57 54 75 58 59 46 49 69 88 80 76 68 70 73 74 71 72 70 73
75 84 86 84 97 88 86 92 83 78 79 66 57 42 38 36 35 35 36 38 47 43 42 56 61 48 53 52 54 60 51 88 70 84 67 77 81 70 70 75 77 72 66 70
72 78 79 73 72 63 94 99 64 62 72 51 63 43 42 39 38 37 38 35 34 29 36 38 42 49 54 66 73 59 53 61 59 84 73 80 76 69 62 70 65 60 60 60
72 67 66 62 61 86 80 78 63 58 62 81 62 53 45 41 37 38 39 35 39 35 31 33 34 41 48 62 70 58 60 67 70 68 72 78 70 75 63 61 58 57 56 57
62 56 64 66 65 75 67 61 53 58 63 57 59 64 53 45 45 52 43 40 38 44 40 36 33 38 37 68 77 62 67 71 67 66 58 62 57 54 54 55 53 54 55 53
58 52 56 68 67 49 57 42 44 58 56 56 57 64 68 49 52 49 45 40 66 39 45 38 36 57 61 63 63 70 73 70 73 62 56 54 53 52 52 50 51 54 56 54
54 59 60 88 64 52 45 63 63 59 41 44 58 52 70 52 61 60 53 46 50 59 47 46 54 65 52 49 54 58 62 63 60 69 68 60 56 54 52 51 49 51 54 56
55 65 80 63 57 61 42 69 58 52 51 41 48 50 61 44 68 60 43 51 49 51 61 50 62 57 62 51 57 58 58 63 61 54 57 55 53 57 56 56 54 56 57 60
55 58 55 59 50 54 65 62 51 51 46 51 59 52 51 47 39 56 48 47 52 64 54 57 55 79 67 68 77 73 71 67 64 57 60 59 57 56 58 59 64 87 88 79
63 47 51 51 55 79 70 76 57 69 64 66 67 79 60 48 56 71 59 82 74 57 73 65 84 76 82 91 80 79 73 69 70 66 66 63 63 63 69 92 94 90 93 91
47 61 85 82 80 66 81 88 86 77 75 71 80 86 84 67 87 70 75 79 66 73 71 87 81 84 98 93 85 92 94 99 98 88 86 88 93 98 96 94 93 96 99 88
63 60 80 80 82 85 96 87 83 86 74 72 73 70 63 71 80 72 67 74 72 64 95 92 86 90 97 98 97 97 96 94 95 92 94 95 96 94 97 98 96 92 83 87
67 76 81 85 88 96 99 100 99 76 70 67 61 79 79 78 67 69 67 66 74 96 92 94 91 94 95 95 91 92 92 91 93 94 94 95 94 93 94 99 91 80 83 86
71 93 99 100 100 100 100 97 82 64 73 94 54 72 64 57 58 61 61 87 95 87 92 89 90 92 96 96 96 97 97 94 94 95 94 94 95 97 88 79 80 75 79 73

GFSNW_925_rhum_111.txt.gz
RH
82 73 72 72 88 95 99 97 98 98 100 99 100 97 86 56 59 46 54 52 52 56 47 47 48 66 61 47 52 66 62 66 69 55 44 42 39 53 61 97 92 98 98 99
87 81 80 76 84 99 97 98 100 100 100 98 97 87 69 58 64 69 68 43 41 38 47 56 54 63 60 44 55 81 78 99 83 56 58 51 47 39 62 66 83 79 78 92
90 89 87 82 72 86 96 99 99 100 100 100 97 79 91 92 75 53 51 39 37 48 54 50 54 81 56 48 43 52 49 56 57 67 73 64 48 37 38 54 80 64 52 82
88 93 89 83 76 79 98 100 99 84 98 97 100 80 79 73 77 47 39 47 52 61 64 58 56 57 66 49 45 44 55 67 48 42 50 34 30 30 30 37 40 57 42 74
83 86 85 61 76 94 97 100 98 88 81 71 92 89 99 87 67 66 48 62 56 56 64 56 60 83 89 62 46 55 52 82 52 59 39 28 30 24 21 22 23 23 55 90
88 86 75 70 71 92 100 98 84 96 98 93 90 82 75 70 64 50 42 46 53 59 56 54 48 63 60 48 56 62 59 69 64 81 45 37 36 46 40 48 62 56 75 79
86 91 88 89 83 99 91 76 80 97 95 100 86 66 68 64 58 81 58 56 71 58 41 41 43 56 59 51 55 51 59 59 66 65 40 55 62 49 54 75 76 66 63 72
84 90 91 94 82 99 97 93 92 98 97 77 66 75 62 57 54 81 85 59 57 52 44 61 57 52 44 44 40 44 40 57 62 72 68 61 56 64 80 81 90 78 79 81
84 92 87 93 96 94 95 93 90 99 97 93 80 74 64 93 100 99 98 58 52 42 74 78 91 85 57 55 42 30 32 43 75 72 80 80 85 58 59 68 96 79 82 81
90 91 84 83 90 98 97 92 92 99 98 95 96 94 97 89 98 99 71 54 50 48 87 89 86 77 40 64 65 53 58 67 71 79 84 90 72 54 55 88 88 80 80 93
90 88 91 88 100 99 97 95 98 97 100 98 82 81 96 92 89 96 70 71 63 67 80 81 88 98 76 76 81 56 67 76 82 75 84 97 75 69 81 92 86 84 90 91
90 96 91 97 99 95 97 96 94 97 98 93 74 70 75 68 63 67 63 66 58 77 69 60 58 83 86 81 95 66 83 87 96 95 99 84 75 89 85 80 90 86 90 90
94 93 93 99 92 89 97 92 92 93 97 85 74 66 48 44 44 45 61 58 54 60 70 89 77 65 72 88 91 82 75 73 93 92 83 81 80 75 79 80 83 80 78 82
100 98 96 90 80 86 98 86 94 95 94 98 66 42 43 37 41 42 42 51 46 54 67 82 90 88 79 85 78 81 70 70 85 96 85 79 80 78 79 79 76 81 84 85
93 93 90 75 88 97 90 92 97 92 93 89 72 47 38 36 37 40 40 51 56 66 61 80 85 68 77 75 81 90 75 83 91 93 82 82 91 82 73 80 77 80 82 88
77 71 74 83 92 99 97 100 88 76 80 87 88 52 46 40 40 45 43 51 54 59 64 62 68 56 76 92 98 76 77 80 72 91 86 86 81 76 69 77 75 71 74 73
83 85 88 96 95 97 95 92 74 68 69 91 84 69 55 49 43 54 54 49 55 62 50 56 66 63 65 92 95 83 84 83 82 77 77 86 78 86 68 64 62 64 66 70
74 76 83 87 82 94 83 63 60 66 66 82 88 87 74 48 67 66 58 58 61 62 59 56 63 55 61 95 90 81 82 80 77 75 70 72 65 62 61 61 58 61 64 63
74 72 79 89 92 87 58 51 51 56 68 88 81 90 91 61 71 67 63 63 87 58 73 63 62 90 84 84 87 87 82 80 81 68 65 64 67 64 63 59 59 62 65 68
68 63 78 100 73 55 40 42 84 78 60 64 82 74 91 78 92 88 78 78 84 86 76 72 90 94 66 68 75 77 67 68 67 74 74 67 66 66 62 59 60 61 64 63
68 94 96 67 50 67 71 84 84 85 71 66 69 70 83 64 87 90 70 84 80 81 86 82 91 94 83 71 76 72 67 65 66 65 68 66 63 67 67 68 63 64 63 74
58 64 54 61 70 82 76 88 76 72 64 67 80 75 70 66 62 84 76 72 81 80 82 84 86 94 82 80 78 78 77 73 71 63 68 68 66 66 71 80 83 86 80 67
54 58 63 75 82 86 82 93 80 91 88 83 85 86 78 73 81 92 89 83 91 79 84 89 100 96 98 94 83 83 78 75 73 77 70 69 72 79 87 93 90 84 82 73
69 80 90 90 93 93 100 99 99 93 92 92 94 96 94 95 92 94 78 93 90 88 89 94 99 98 98 97 94 92 99 98 89 88 86 91 93 97 96 92 86 84 86 74
83 82 95 95 97 98 99 99 98 97 90 91 93 92 89 92 85 80 81 85 81 87 98 100 98 98 97 98 98 97 96 96 96 93 94 97 97 99 100 94 87 79 73 78
85 92 91 93 94 95 89 97 98 92 90 91 91 89 90 88 86 86 81 86 95 98 100 99 97 98 97 97 97 96 95 96 98 97 96 98 98 97 100 94 84 75 81 84
82 98 100 99 97 98 99 99 100 96 92 96 90 77 75 86 84 81 92 98 98 98 100 98 94 95 97 97 96 97 98 97 97 97 97 97 98 97 95 93 88 82 76 60

GFSNW_925_rhum_114.txt.gz
RH
72 76 78 76 79 91 96 98 93 98 100 99 100 98 78 58 61 54 58 63 64 65 56 51 50 72 58 49 51 66 81 78 92 60 53 50 52 61 74 94 88 97 94 97
84 74 73 71 76 93 97 99 99 97 100 97 95 97 91 71 74 61 62 63 60 56 58 69 60 56 62 52 65 79 87 100 97 90 64 53 60 51 55 66 91 93 90 89
92 93 79 77 70 90 94 99 99 100 100 99 98 96 98 88 70 81 71 64 60 49 55 53 62 80 62 53 62 77 84 100 99 85 69 61 57 46 57 74 96 76 70 87
91 92 90 75 75 74 100 100 99 86 98 98 93 80 70 75 97 75 78 78 62 62 68 59 64 73 65 51 60 59 83 91 74 56 55 53 49 29 36 55 57 68 58 84
87 86 91 80 71 74 93 99 100 98 92 76 93 97 98 81 71 67 91 99 87 65 68 61 68 78 86 68 48 67 68 96 94 91 55 39 31 26 24 23 40 77 78 95
88 88 86 83 74 80 99 98 94 99 88 88 91 80 75 78 75 70 56 66 64 64 64 59 50 71 77 72 58 71 81 96 96 94 75 69 64 38 52 65 66 67 82 76
85 84 84 83 76 85 93 94 93 99 96 97 83 71 71 74 69 75 65 68 64 57 60 63 64 67 60 56 59 59 74 86 86 87 78 95 66 63 60 76 80 73 82 80
86 85 83 84 84 74 96 81 85 99 98 91 96 99 97 72 69 70 84 71 69 63 70 88 94 94 83 76 59 59 57 85 96 83 72 71 62 66 80 77 92 81 84 88
88 87 84 81 85 88 98 88 95 97 98 92 76 84 91 96 90 90 87 88 88 58 83 86 94 90 70 70 59 49 58 56 77 82 70 88 81 64 62 61 89 83 84 85
86 86 87 81 81 91 99 99 97 96 98 91 90 95 93 90 93 96 97 97 98 60 91 96 93 82 52 68 69 61 56 70 62 75 83 89 73 62 60 71 80 86 91 95
88 85 79 80 77 90 98 98 91 88 100 93 92 93 92 92 93 95 98 92 81 77 79 88 94 95 84 80 77 58 62 69 80 78 92 92 77 69 77 89 90 94 95 94
88 87 85 91 98 96 100 98 94 99 96 95 96 98 89 80 78 78 73 72 70 78 74 74 79 99 98 83 89 72 77 78 90 93 91 91 86 93 90 84 91 91 93 93
87 85 85 97 90 100 93 93 98 100 92 98 97 98 85 76 67 60 67 69 61 67 72 88 82 71 82 90 93 85 83 75 96 90 91 89 91 86 81 81 90 87 85 85
85 88 94 96 100 96 86 94 95 99 94 97 92 68 70 75 60 53 44 50 53 63 72 87 90 87 77 87 81 86 78 74 91 96 92 85 88 84 84 84 83 86 84 84
94 90 90 99 99 89 89 89 95 100 91 92 73 53 44 42 38 40 42 50 56 68 64 84 89 78 86 84 84 93 80 89 91 91 81 82 91 86 79 87 87 89 90 91
90 98 91 80 86 97 97 100 97 92 92 86 90 61 59 48 44 48 49 55 61 65 70 76 77 64 76 95 99 86 88 83 75 94 78 86 86 79 74 81 82 81 83 85
88 86 80 86 95 96 94 93 90 89 88 90 84 73 59 52 54 66 63 57 64 60 62 65 73 66 75 95 97 96 91 87 85 82 83 91 82 89 72 74 78 77 76 79
86 90 89 97 95 93 87 65 72 71 82 82 92 89 69 54 73 65 69 65 70 68 64 66 66 60 78 96 98 93 88 84 79 77 74 76 72 71 71 68 70 75 78 78
93 97 99 98 93 94 63 57 63 70 78 87 84 88 85 70 80 74 67 74 84 72 77 66 69 93 84 90 96 93 88 87 86 74 73 74 74 71 71 71 70 74 74 75
99 98 98 100 88 59 45 55 82 75 67 76 83 80 84 78 95 89 77 85 85 84 76 74 90 95 82 78 81 83 83 78 72 85 86 78 79 74 71 68 66 67 69 67
85 98 97 74 52 66 72 83 77 86 72 77 79 73 84 70 84 89 76 84 86 84 84 81 94 96 92 85 85 78 74 69 69 72 74 72 70 71 71 71 68 68 63 62
70 62 59 64 78 84 74 90 77 71 69 77 79 74 75 78 72 80 87 75 83 84 88 83 94 96 88 87 84 83 78 74 72 66 70 71 69 68 68 68 71 75 74 66
56 64 69 74 83 85 75 88 82 89 91 86 88 89 80 78 83 91 86 86 93 86 92 89 86 98 91 86 85 84 80 76 78 80 76 77 81 78 85 93 86 76 74 67
74 78 87 81 92 98 96 98 98 94 96 87 92 96 94 98 90 97 87 93 87 95 93 90 94 98 97 88 82 82 93 89 84 87 86 90 94 97 97 96 88 78 80 71
83 82 99 99 98 98 99 99 98 98 93 88 91 92 89 95 85 90 86 87 90 88 94 96 93 98 98 97 98 98 97 94 94 91 92 98 97 96 96 96 95 82 75 70
88 94 93 98 88 93 97 99 100 96 94 94 91 92 92 91 88 85 88 89 94 94 100 100 98 98 98 98 97 96 96 95 96 96 96 96 96 96 96 96 96 94 67 60
88 98 99 100 97 99 99 100 99 95 91 92 90 80 78 90 90 84 91 95 83 99 99 99 95 96 97 97 97 98 97 96 97 97 97 96 96 96 96 94 94 74 65 59

GFSNW_925_rhum_117.txt.gz
RH
69 64 62 79 80 79 99 98 99 86 100 100 100 96 80 60 60 50 58 62 66 66 60 59 54 63 59 52 59 70 72 82 86 68 53 55 59 65 84 92 94 90 95 90
74 72 67 81 76 87 97 98 100 91 100 95 94 82 76 67 65 63 68 62 63 63 68 73 63 57 60 57 69 82 85 92 99 90 83 75 92 64 64 76 82 94 95 82
92 78 72 76 77 85 90 99 99 100 100 98 88 93 96 87 78 73 75 68 60 66 67 64 63 71 68 57 68 82 78 92 84 75 76 74 94 74 62 73 98 87 86 86
95 90 71 71 74 79 95 100 99 86 98 98 95 85 83 89 93 75 75 71 80 77 78 68 71 75 67 53 78 85 83 94 96 90 84 91 94 82 73 68 71 80 64 88
89 91 92 77 71 79 98 99 99 99 96 78 96 90 84 87 76 66 97 94 78 88 82 82 62 76 72 68 67 73 81 90 90 89 73 62 75 47 28 48 56 64 72 91
82 74 76 84 72 88 99 98 94 96 92 91 94 82 81 71 71 66 61 73 86 84 87 83 69 62 73 71 64 83 88 96 97 88 87 96 97 63 35 67 68 76 87 78
88 79 78 84 70 88 98 94 84 99 92 98 87 73 74 77 70 81 68 69 74 67 69 84 89 74 63 72 61 70 92 95 98 95 95 95 75 68 64 74 80 82 86 86
88 88 87 86 76 75 93 85 92 99 95 74 91 86 75 72 70 73 72 66 76 77 78 100 99 97 92 83 63 65 74 89 96 95 92 78 71 74 80 72 86 82 89 89
96 90 85 85 84 91 98 86 91 97 100 93 85 98 86 95 96 88 79 77 90 91 100 98 92 93 82 96 83 60 73 75 88 94 94 94 75 65 62 57 74 83 90 91
93 94 91 86 87 93 98 87 84 93 98 93 86 91 92 86 90 93 89 97 98 98 98 98 96 89 61 89 88 96 95 96 91 84 84 84 74 64 59 66 69 86 88 90
86 89 88 86 86 81 94 86 78 93 100 94 84 80 94 93 92 97 92 96 99 99 97 93 96 92 78 75 78 70 74 88 90 73 87 83 74 66 74 86 96 92 95 95
93 88 90 85 80 76 96 94 89 98 98 90 89 88 90 95 88 88 93 82 90 92 94 82 92 98 97 83 91 68 77 78 81 80 83 92 91 95 92 84 93 96 97 94
93 90 87 83 77 77 96 98 100 98 98 95 98 98 91 91 92 68 80 80 66 75 75 89 84 84 90 94 95 91 84 74 93 88 94 96 98 90 86 86 92 93 91 90
86 83 84 84 81 89 100 98 98 98 98 98 96 84 97 91 83 78 62 53 60 70 76 90 93 94 78 86 84 86 78 74 90 96 94 91 90 92 90 93 87 87 86 84
92 82 88 92 94 98 99 98 98 98 94 93 99 87 94 76 75 59 55 58 62 70 68 87 91 87 85 89 84 95 79 91 91 88 81 82 89 92 86 91 90 87 89 90
99 95 96 92 100 99 97 100 95 94 100 90 96 67 73 59 57 59 55 61 69 71 77 84 81 67 83 96 97 89 88 79 71 87 78 86 90 85 78 86 86 85 84 84
89 91 94 99 96 83 94 93 84 83 100 91 85 75 62 57 61 69 67 65 74 61 67 72 78 72 78 94 93 94 93 90 88 86 86 94 88 93 76 80 81 80 87 88
92 96 97 88 84 85 87 79 86 86 86 86 93 87 72 56 73 69 75 70 69 75 69 71 66 66 81 95 94 97 92 90 84 80 76 79 78 71 76 80 83 86 88 85
92 93 93 98 97 96 84 74 78 78 84 91 84 86 89 71 84 78 71 75 84 74 78 68 73 94 85 85 89 96 88 85 88 82 79 80 80 79 83 85 83 85 85 84
99 97 98 100 94 75 77 65 86 83 76 82 87 82 87 78 96 90 78 86 86 82 81 76 92 96 88 87 88 84 85 85 80 92 93 86 86 84 81 82 76 75 77 81
90 97 99 91 75 73 74 87 76 87 75 82 85 80 88 75 83 91 79 87 88 86 85 78 95 96 94 90 91 86 85 78 77 77 76 76 77 79 79 77 73 74 76 72
76 68 68 68 80 82 72 90 80 72 73 83 80 75 78 84 72 82 89 77 85 83 90 83 92 93 92 91 87 84 85 83 79 76 83 81 75 72 72 73 74 74 74 73
60 68 70 74 81 83 73 86 82 89 94 89 90 92 87 76 83 91 86 86 93 86 90 89 88 91 90 85 85 86 84 81 81 83 76 76 76 72 74 84 84 79 80 77
76 78 92 84 93 91 90 92 96 95 97 90 93 97 94 98 91 97 88 94 86 97 97 91 89 95 91 88 83 86 92 88 88 89 87 87 87 94 92 94 84 79 85 77
85 82 99 97 98 98 99 98 99 99 95 89 91 93 90 94 86 93 87 89 95 90 90 96 99 97 93 93 94 96 95 94 94 90 91 95 97 96 97 96 92 87 82 75
90 89 92 97 94 98 99 99 100 97 97 95 91 93 91 93 90 86 89 86 93 92 98 99 98 98 98 98 97 96 96 94 96 95 96 97 97 96 96 96 96 96 95 84
88 98 99 100 98 99 99 98 97 95 89 93 89 82 81 91 92 88 83 97 94 99 99 99 97 98 98 98 97 98 97 97 97 97 97 96 96 96 96 95 96 96 95 73